[[{"header":{"parameterUnit":"m.s-1","parameterCategory":1,"la1":31.0,"la2":29.5877,"lo1":-88.7671,"lo2":-86.6584,"dy":0.0162,"dx":0.0185,"nx":115,"ny":88,"refTime":"2023-08-21T06:00:00:Z","depth":0,"parameterNumber":2,"parameterNumberName":"U-component_of_WINDS"},"data":[0.0,0.0,0.0,0.0,0.0,0.0,0.0,0.0,0.0,0.0,0.0,0.0,0.0,0.0,0.0,0.0,0.0,0.0,0.0,0.0,0.0,0.0,0.0,0.0,0.0,0.0,0.0,0.0,0.0,0.0,0.0,0.0,0.0,0.0,0.0,0.0,0.0,0.0,0.0,0.0,0.0,0.0,0.0,0.0,0.0,0.0,0.0,0.0,0.0,0.0,0.0,0.0,0.0,0.0,0.0,0.0,0.0,0.0,0.0,0.0,0.0,0.0,0.0,0.0,0.0,0.0,0.0,0.0,0.0,0.0,0.0,0.0,0.0,0.0,0.0,0.0,0.0,0.0,0.0,0.0,0.0,0.0,0.0,0.0,0.0,0.0,0.0,0.0,0.0,0.0,0.0,0.0,0.0,0.0,0.0,0.0,0.0,0.0,0.0,0.0,0.0,0.0,0.0,0.0,0.0,0.0,0.0,0.0,0.0,0.0,0.0,0.0,0.0,0.0,0.0,0.0,0.0,0.0,0.0,0.0,0.0,0.0,0.0,0.0,0.0,0.0,0.0,0.0,0.0,0.0,0.0,0.0,0.0,0.0,0.0,0.0,0.0,0.0,0.0,0.0,0.0,0.0,0.0,0.0,0.0,0.0,0.0,0.0,0.0,0.0,0.0,0.0,0.0,0.0,0.0,0.0,0.0,0.0,0.0,0.0,0.0,0.0,0.0,0.0,0.0,0.0,0.0,0.0,0.0,0.0,0.0,0.0,0.0,0.0,0.0,0.0,0.0,0.0,0.0,0.0,0.0,0.0,0.0,0.0,0.0,0.0,0.0,0.0,0.0,0.0,0.0,0.0,0.0,0.0,0.0,0.0,0.0,0.0,0.0,0.0,0.0,0.0,0.0,0.0,0.0,0.0,0.0,0.0,0.0,0.0,0.0,0.0,0.0,0.0,0.0,0.0,0.0,0.0,0.0,0.0,0.0,0.0,0.0,0.0,0.0,0.0,0.0,0.0,0.0,0.0,0.0,0.0,0.0,0.0,0.0,0.0,0.0,0.0,0.0,0.0,0.0,0.0,0.0,0.0,0.0,0.0,0.0,0.0,0.0,0.0,0.0,0.0,0.0,0.0,0.0,0.0,0.0,0.0,0.0,0.0,0.0,0.0,0.0,0.0,0.0,0.0,0.0,0.0,0.0,0.0,0.0,0.0,0.0,0.0,0.0,0.0,0.0,0.0,0.0,0.0,0.0,0.0,0.0,0.0,0.0,0.0,0.0,0.0,0.0,0.0,0.0,0.0,0.0,0.0,0.0,0.0,0.0,0.0,0.0,0.0,0.0,0.0,0.0,0.0,0.0,0.0,0.0,0.0,0.0,0.0,0.0,0.0,0.0,0.0,0.0,0.0,0.0,0.0,0.0,0.0,0.0,0.0,0.0,0.0,0.0,0.0,0.0,0.0,0.0,0.0,0.0,0.0,0.0,0.0,0.0,0.0,0.0,0.0,0.0,0.0,0.0,0.0,0.0,0.0,0.0,0.0,0.0,0.0,0.0,0.0,0.0,0.0,0.0,0.0,0.0,0.0,0.0,0.0,0.0,0.0,0.0,0.0,0.0,0.0,0.0,0.0,0.0,0.0,0.0,0.0,0.0,0.0,0.0,0.0,0.0,0.0,0.0,0.0,0.0,0.0,0.0,0.0,0.0,0.0,0.0,0.0,0.0,0.0,0.0,0.0,0.0,0.0,0.0,0.0,0.0,0.0,0.0,0.0,0.0,0.0,0.0,0.0,0.0,0.0,0.0,0.0,0.0,0.0,0.0,0.0,0.0,0.0,0.0,0.0,0.0,0.0,0.0,0.0,0.0,0.0,0.0,0.0,0.0,0.0,0.0,0.0,0.0,0.0,0.0,0.0,0.0,0.0,0.0,0.0,0.0,0.0,0.0,0.0,0.0,0.0,0.0,0.0,0.0,0.0,0.0,0.0,0.0,0.0,0.0,0.0,0.0,0.0,0.0,0.0,0.0,0.0,0.0,0.0,0.0,0.0,0.0,0.0,0.0,0.0,0.0,0.0,0.0,0.0,0.0,0.0,0.0,0.0,0.0,0.0,0.0,0.0,0.0,0.0,0.0,0.0,0.0,0.0,0.0,0.0,0.0,0.0,0.0,0.0,0.0,0.0,0.0,0.0,0.0,0.0,0.0,0.0,0.0,0.0,0.0,0.0,0.0,0.0,0.0,0.0,0.0,0.0,0.0,0.0,0.0,0.0,0.0,0.0,0.0,0.0,0.0,0.0,0.0,0.0,0.0,0.0,0.0,0.0,0.0,0.0,0.0,0.0,0.0,0.0,0.0,0.0,0.0,0.0,0.0,0.0,0.0,0.0,0.0,0.0,0.0,0.0,0.0,0.0,0.0,0.0,0.0,0.0,0.0,0.0,0.0,0.0,0.0,0.0,0.0,0.0,0.0,0.0,0.0,0.0,0.0,0.0,0.0,0.0,0.0,0.0,0.0,0.0,0.0,0.0,0.0,0.0,0.0,0.0,0.0,0.0,0.0,0.0,0.0,0.0,0.0,0.0,0.0,0.0,0.0,0.0,0.0,0.0,0.0,0.0,0.0,0.0,0.0,0.0,0.0,0.0,0.0,0.0,0.0,0.0,0.0,0.0,0.0,0.0,0.0,0.0,0.0,0.0,0.0,0.0,0.0,0.0,0.0,0.0,0.0,0.0,0.0,0.0,0.0,0.0,0.0,0.0,0.0,0.0,0.0,0.0,0.0,0.0,0.0,0.0,0.0,0.0,0.0,0.0,0.0,0.0,0.0,0.0,0.0,0.0,0.0,0.0,0.0,0.0,0.0,0.0,0.0,0.0,0.0,0.0,0.0,0.0,0.0,0.0,0.0,0.0,0.0,0.0,0.0,0.0,0.0,0.0,0.0,0.0,0.0,0.0,0.0,0.0,0.0,0.0,0.0,0.0,0.0,0.0,0.0,0.0,0.0,0.0,0.0,0.0,0.0,0.0,0.0,0.0,0.0,0.0,0.0,0.0,0.0,0.0,0.0,0.0,0.0,0.0,0.0,0.0,0.0,0.0,0.0,0.0,0.0,0.0,0.0,0.0,0.0,0.0,0.0,0.0,0.0,0.0,0.0,0.0,0.0,0.0,0.0,0.0,0.0,0.0,0.0,0.0,0.0,0.0,0.0,0.0,0.0,0.0,0.0,0.0,0.0,0.0,0.0,0.0,0.0,0.0,0.0,0.0,0.0,0.0,0.0,0.0,0.0,0.0,0.0,0.0,0.0,0.0,0.0,0.0,0.0,0.0,0.0,0.0,0.0,0.0,0.0,0.0,0.0,0.0,0.0,0.0,0.0,0.0,0.0,0.0,0.0,0.0,0.0,0.0,0.0,0.0,0.0,0.0,0.0,0.0,0.0,0.0,0.0,0.0,0.0,0.0,0.0,0.0,0.0,0.0,0.0,0.0,0.0,0.0,0.0,0.0,0.0,0.0,0.0,0.0,0.0,0.0,0.0,0.0,0.0,0.0,0.0,0.0,0.0,0.0,0.0,0.0,0.0,0.0,0.0,0.0,0.0,0.0,0.0,0.0,0.0,0.0,0.0,0.0,0.0,0.0,0.0,0.0,0.0,0.0,0.0,0.0,0.0,0.0,0.0,0.0,0.0,0.0,0.0,0.0,0.0,0.0,0.0,0.0,0.0,0.0,0.0,0.0,0.0,0.0,0.0,0.0,0.0,0.0,0.0,0.0,0.0,0.0,0.0,0.0,0.0,0.0,0.0,0.0,0.0,0.0,0.0,0.0,0.0,0.0,0.0,0.0,0.0,0.0,0.0,0.0,0.0,0.0,0.0,0.0,0.0,0.0,0.0,0.0,0.0,0.0,0.0,0.0,0.0,0.0,0.0,0.0,0.0,0.0,0.0,0.0,0.0,0.0,0.0,0.0,0.0,0.0,0.0,0.0,0.0,0.0,0.0,0.0,0.0,0.0,0.0,0.0,0.0,0.0,0.0,0.0,0.0,0.0,0.0,0.0,0.0,0.0,0.0,0.0,0.0,0.0,0.0,0.0,0.0,0.0,0.0,0.0,0.0,0.0,0.0,0.0,0.0,0.0,0.0,0.0,0.0,0.0,0.0,0.0,0.0,0.0,0.0,0.0,0.0,0.0,0.0,0.0,0.0,0.0,0.0,0.0,0.0,0.0,0.0,0.0,0.0,0.0,0.0,0.0,0.0,0.0,0.0,0.0,0.0,0.0,0.0,0.0,0.0,0.0,3.5643,0.0,0.0,0.0,0.0,0.0,0.0,0.0,0.0,0.0,0.0,0.0,0.0,0.0,0.0,0.0,0.0,0.0,0.0,0.0,0.0,0.0,0.0,0.0,0.0,0.0,0.0,0.0,0.0,0.0,0.0,0.0,0.0,0.0,0.0,0.0,0.0,0.0,0.0,0.0,0.0,0.0,0.0,0.0,0.0,0.0,0.0,0.0,0.0,0.0,0.0,0.0,0.0,0.0,0.0,0.0,0.0,0.0,0.0,0.0,0.0,0.0,0.0,0.0,0.0,0.0,0.0,0.0,0.0,0.0,0.0,0.0,0.0,0.0,0.0,0.0,0.0,0.0,0.0,0.0,0.0,0.0,0.0,0.0,0.0,0.0,0.0,0.0,0.0,0.0,0.0,0.0,0.0,0.0,0.0,0.0,0.0,0.0,0.0,0.0,0.0,0.0,0.0,0.0,0.0,0.0,0.0,0.0,0.0,0.0,0.0,3.4944,3.5083,3.5119,3.5216,3.5364,0.0,0.0,0.0,0.0,0.0,0.0,0.0,0.0,0.0,0.0,0.0,0.0,0.0,0.0,0.0,0.0,0.0,0.0,0.0,0.0,0.0,0.0,0.0,0.0,0.0,0.0,0.0,0.0,0.0,0.0,0.0,0.0,0.0,0.0,0.0,0.0,0.0,0.0,0.0,0.0,0.0,0.0,0.0,0.0,0.0,0.0,0.0,0.0,0.0,0.0,0.0,0.0,0.0,0.0,0.0,0.0,0.0,0.0,0.0,0.0,0.0,0.0,0.0,0.0,0.0,0.0,0.0,0.0,0.0,0.0,0.0,0.0,0.0,0.0,0.0,0.0,0.0,0.0,0.0,0.0,0.0,0.0,0.0,0.0,0.0,0.0,0.0,0.0,0.0,0.0,0.0,0.0,0.0,0.0,0.0,0.0,0.0,0.0,0.0,0.0,0.0,0.0,0.0,0.0,0.0,0.0,0.0,0.0,0.0,0.0,0.0,0.0,3.4926,3.5086,3.5243,0.0,0.0,0.0,0.0,0.0,0.0,0.0,0.0,0.0,0.0,0.0,0.0,0.0,0.0,0.0,0.0,0.0,0.0,0.0,0.0,0.0,0.0,0.0,0.0,0.0,0.0,0.0,0.0,0.0,0.0,0.0,0.0,0.0,0.0,0.0,0.0,0.0,0.0,0.0,0.0,0.0,0.0,0.0,0.0,0.0,0.0,0.0,0.0,0.0,0.0,0.0,0.0,0.0,0.0,0.0,0.0,0.0,0.0,0.0,0.0,0.0,0.0,0.0,0.0,0.0,0.0,0.0,0.0,0.0,0.0,0.0,0.0,0.0,0.0,0.0,0.0,0.0,0.0,0.0,0.0,0.0,0.0,0.0,0.0,0.0,0.0,0.0,0.0,0.0,0.0,0.0,0.0,0.0,0.0,0.0,0.0,0.0,0.0,0.0,0.0,0.0,0.0,0.0,0.0,0.0,0.0,0.0,0.0,0.0,0.0,3.5053,3.5336,3.535,0.0,3.5728,0.0,0.0,0.0,0.0,0.0,0.0,0.0,0.0,0.0,0.0,0.0,0.0,0.0,0.0,0.0,0.0,0.0,0.0,0.0,0.0,0.0,0.0,0.0,0.0,0.0,0.0,0.0,0.0,0.0,0.0,0.0,0.0,0.0,0.0,0.0,0.0,0.0,0.0,0.0,0.0,0.0,0.0,0.0,0.0,0.0,0.0,0.0,0.0,0.0,0.0,0.0,0.0,0.0,0.0,0.0,0.0,0.0,0.0,0.0,0.0,0.0,0.0,0.0,0.0,0.0,0.0,0.0,0.0,0.0,0.0,0.0,0.0,0.0,0.0,0.0,0.0,0.0,0.0,0.0,0.0,0.0,0.0,0.0,0.0,0.0,0.0,0.0,0.0,0.0,0.0,0.0,0.0,0.0,0.0,0.0,0.0,0.0,0.0,0.0,0.0,0.0,0.0,0.0,0.0,0.0,0.0,0.0,0.0,0.0,0.0,3.4505,3.4736,3.5089,3.5334,0.0,0.0,0.0,0.0,0.0,0.0,0.0,0.0,0.0,0.0,0.0,0.0,0.0,0.0,0.0,0.0,0.0,0.0,0.0,0.0,0.0,0.0,0.0,0.0,0.0,0.0,0.0,0.0,0.0,0.0,0.0,0.0,0.0,0.0,0.0,0.0,0.0,0.0,0.0,0.0,0.0,0.0,0.0,0.0,0.0,0.0,0.0,0.0,0.0,0.0,0.0,0.0,0.0,0.0,0.0,0.0,0.0,0.0,0.0,0.0,0.0,0.0,0.0,0.0,0.0,0.0,0.0,0.0,0.0,0.0,0.0,0.0,0.0,0.0,0.0,0.0,0.0,0.0,0.0,0.0,0.0,0.0,0.0,0.0,0.0,0.0,0.0,0.0,0.0,0.0,0.0,0.0,0.0,0.0,0.0,0.0,0.0,0.0,0.0,0.0,0.0,0.0,0.0,0.0,0.0,0.0,0.0,0.0,0.0,0.0,3.4099,3.4111,3.4242,3.4753,3.5028,3.5062,0.0,0.0,0.0,0.0,0.0,0.0,0.0,0.0,0.0,0.0,0.0,0.0,0.0,0.0,0.0,0.0,0.0,0.0,0.0,0.0,0.0,0.0,0.0,0.0,0.0,0.0,0.0,0.0,0.0,0.0,0.0,0.0,0.0,0.0,0.0,0.0,0.0,0.0,0.0,0.0,0.0,0.0,0.0,0.0,0.0,0.0,0.0,0.0,0.0,0.0,0.0,0.0,0.0,0.0,0.0,0.0,0.0,0.0,0.0,0.0,0.0,0.0,0.0,0.0,0.0,0.0,0.0,0.0,0.0,0.0,0.0,0.0,0.0,0.0,0.0,0.0,0.0,0.0,0.0,0.0,0.0,0.0,0.0,0.0,0.0,0.0,0.0,0.0,0.0,0.0,0.0,0.0,0.0,0.0,0.0,0.0,0.0,0.0,0.0,0.0,0.0,0.0,0.0,0.0,0.0,0.0,0.0,0.0,3.3543,3.3975,3.4157,3.3953,3.4336,3.4597,0.0,0.0,0.0,0.0,0.0,0.0,0.0,0.0,0.0,0.0,0.0,0.0,0.0,0.0,0.0,0.0,0.0,0.0,0.0,0.0,0.0,0.0,0.0,0.0,0.0,0.0,0.0,0.0,0.0,0.0,0.0,0.0,0.0,0.0,0.0,0.0,0.0,0.0,0.0,0.0,0.0,0.0,0.0,0.0,0.0,0.0,0.0,0.0,0.0,0.0,0.0,0.0,0.0,0.0,0.0,0.0,0.0,0.0,0.0,0.0,0.0,0.0,0.0,0.0,0.0,0.0,0.0,0.0,0.0,0.0,0.0,0.0,0.0,0.0,0.0,0.0,0.0,0.0,0.0,0.0,0.0,0.0,0.0,0.0,0.0,0.0,0.0,0.0,0.0,0.0,0.0,0.0,0.0,0.0,0.0,0.0,0.0,0.0,0.0,0.0,0.0,0.0,0.0,0.0,0.0,0.0,0.0,0.0,0.0,3.2182,3.169,3.1611,3.2007,3.2742,3.3563,0.0,0.0,0.0,0.0,0.0,0.0,0.0,0.0,0.0,0.0,0.0,0.0,0.0,0.0,0.0,0.0,0.0,0.0,0.0,0.0,0.0,0.0,0.0,0.0,0.0,0.0,0.0,0.0,0.0,0.0,0.0,0.0,0.0,0.0,0.0,0.0,0.0,0.0,0.0,0.0,0.0,0.0,0.0,0.0,0.0,0.0,0.0,0.0,0.0,0.0,0.0,0.0,0.0,0.0,0.0,0.0,0.0,0.0,0.0,0.0,0.0,0.0,0.0,0.0,0.0,0.0,0.0,0.0,0.0,0.0,0.0,0.0,0.0,0.0,0.0,0.0,0.0,0.0,0.0,0.0,0.0,0.0,0.0,0.0,0.0,0.0,0.0,0.0,0.0,0.0,0.0,0.0,0.0,0.0,0.0,0.0,0.0,0.0,0.0,0.0,0.0,0.0,0.0,0.0,0.0,0.0,0.0,0.0,0.0,2.9678,0.0,2.7087,2.8665,2.9198,3.0379,0.0,0.0,0.0,0.0,0.0,0.0,0.0,0.0,0.0,0.0,0.0,0.0,0.0,0.0,0.0,0.0,0.0,0.0,0.0,0.0,0.0,0.0,0.0,0.0,0.0,0.0,0.0,0.0,0.0,0.0,0.0,0.0,0.0,0.0,0.0,0.0,0.0,0.0,0.0,0.0,0.0,0.0,0.0,0.0,0.0,0.0,0.0,0.0,0.0,0.0,0.0,0.0,0.0,0.0,0.0,0.0,0.0,0.0,0.0,0.0,0.0,0.0,0.0,0.0,0.0,0.0,0.0,0.0,0.0,0.0,0.0,0.0,0.0,0.0,0.0,0.0,0.0,0.0,0.0,0.0,0.0,0.0,0.0,0.0,0.0,0.0,0.0,0.0,0.0,0.0,0.0,0.0,0.0,0.0,0.0,0.0,0.0,0.0,0.0,0.0,0.0,0.0,0.0,0.0,0.0,0.0,0.0,0.0,2.6085,2.5911,2.1343,2.0373,2.3821,2.3406,2.4782,0.0,0.0,0.0,0.0,0.0,0.0,0.0,0.0,0.0,0.0,0.0,0.0,0.0,0.0,0.0,0.0,0.0,0.0,0.0,0.0,0.0,0.0,0.0,0.0,0.0,0.0,0.0,0.0,0.0,0.0,0.0,0.0,0.0,0.0,0.0,0.0,0.0,0.0,0.0,0.0,0.0,0.0,0.0,0.0,0.0,0.0,0.0,0.0,0.0,0.0,0.0,0.0,0.0,0.0,0.0,0.0,0.0,0.0,0.0,0.0,0.0,0.0,0.0,0.0,0.0,0.0,0.0,0.0,0.0,0.0,0.0,0.0,0.0,0.0,0.0,0.0,0.0,0.0,0.0,0.0,0.0,0.0,0.0,0.0,0.0,0.0,0.0,0.0,0.0,0.0,0.0,0.0,0.0,0.0,0.0,0.0,0.0,0.0,0.0,0.0,0.0,0.0,0.0,0.0,0.0,0.0,0.0,0.0,0.0,1.8994,1.3376,1.0877,1.2171,1.5691,1.8436,0.0,0.0,0.0,0.0,0.0,0.0,0.0,0.0,0.0,0.0,0.0,0.0,0.0,0.0,0.0,0.0,0.0,0.0,0.0,0.0,0.0,0.0,0.0,0.0,0.0,0.0,0.0,0.0,0.0,0.0,0.0,0.0,0.0,0.0,0.0,0.0,0.0,0.0,0.0,0.0,0.0,0.0,0.0,0.0,0.0,0.0,0.0,0.0,0.0,0.0,0.0,0.0,0.0,0.0,0.0,0.0,0.0,0.0,0.0,0.0,0.0,0.0,0.0,0.0,0.0,0.0,0.0,0.0,0.0,0.0,0.0,0.0,0.0,0.0,0.0,0.0,0.0,0.0,0.0,0.0,0.0,0.0,0.0,0.0,0.0,0.0,0.0,0.0,0.0,0.0,0.0,0.0,0.0,0.0,0.0,0.0,0.0,0.0,0.0,0.0,0.0,0.0,0.0,0.0,0.0,0.0,0.0,0.0,0.0,0.8241,0.4645,0.2455,0.2151,0.6403,1.009,1.3129,0.0,0.0,0.0,0.0,0.0,0.0,0.0,0.0,0.0,0.0,0.0,0.0,0.0,0.0,0.0,0.0,0.0,0.0,0.0,0.0,0.0,0.0,0.0,0.0,0.0,0.0,0.0,0.0,0.0,0.0,0.0,0.0,0.0,0.0,0.0,0.0,0.0,0.0,0.0,0.0,0.0,0.0,0.0,0.0,0.0,0.0,0.0,0.0,0.0,0.0,0.0,0.0,0.0,0.0,0.0,0.0,0.0,0.0,0.0,0.0,0.0,0.0,0.0,0.0,0.0,0.0,0.0,0.0,0.0,0.0,0.0,0.0,0.0,0.0,0.0,0.0,0.0,0.0,0.0,0.0,0.0,0.0,0.0,0.0,0.0,0.0,0.0,0.0,0.0,0.0,0.0,0.0,0.0,0.0,0.0,0.0,0.0,0.0,0.0,0.0,0.0,0.0,0.0,0.0,0.0,0.0,0.0,0.0,-0.5174,-0.4692,-0.5012,-0.6119,-0.3619,0.0384,0.0,0.0,0.0,0.0,0.0,0.0,0.0,0.0,0.0,0.0,0.0,0.0,0.0,0.0,0.0,0.0,0.0,0.0,0.0,0.0,0.0,0.0,0.0,0.0,0.0,0.0,0.0,0.0,0.0,0.0,0.0,0.0,0.0,0.0,0.0,0.0,0.0,0.0,0.0,0.0,0.0,0.0,0.0,0.0,0.0,0.0,0.0,0.0,0.0,0.0,0.0,0.0,0.0,0.0,0.0,0.0,0.0,0.0,0.0,0.0,0.0,0.0,0.0,0.0,0.0,0.0,0.0,0.0,0.0,0.0,0.0,0.0,0.0,0.0,0.0,0.0,0.0,0.0,0.0,0.0,0.0,0.0,0.0,0.0,0.0,0.0,0.0,0.0,0.0,0.0,0.0,0.0,0.0,0.0,0.0,0.0,0.0,0.0,0.0,0.0,0.0,0.0,0.0,0.0,0.0,0.0,0.0,0.0,0.0,-1.4973,-1.4104,-1.3755,-1.4579,-1.0156,-0.6012,0.0,0.0,0.0,0.0,0.0,0.0,0.0,0.0,0.0,0.0,0.0,0.0,0.0,0.0,0.0,0.0,0.0,0.0,0.0,0.0,0.0,0.0,0.0,0.0,0.0,0.0,0.0,0.0,0.0,0.0,0.0,0.0,0.0,0.0,0.0,0.0,0.0,0.0,0.0,0.0,0.0,0.0,0.0,0.0,0.0,0.0,0.0,0.0,0.0,0.0,0.0,0.0,0.0,0.0,0.0,0.0,0.0,0.0,0.0,0.0,0.0,0.0,0.0,0.0,0.0,0.0,0.0,0.0,0.0,0.0,0.0,0.0,0.0,0.0,0.0,0.0,0.0,0.0,0.0,0.0,0.0,0.0,0.0,0.0,0.0,0.0,0.0,0.0,0.0,0.0,0.0,0.0,0.0,0.0,0.0,0.0,0.0,0.0,0.0,0.0,0.0,0.0,0.0,0.0,0.0,0.0,0.0,0.0,-1.042,-1.9722,-2.0047,-1.9941,-1.9567,-1.5378,-1.136,0.0,0.0,0.0,0.0,0.0,0.0,0.0,0.0,0.0,0.0,0.0,0.0,0.0,0.0,0.0,0.0,0.0,0.0,0.0,0.0,0.0,0.0,0.0,0.0,0.0,0.0,0.0,0.0,0.0,0.0,0.0,0.0,0.0,0.0,0.0,0.0,0.0,0.0,0.0,0.0,0.0,0.0,0.0,0.0,0.0,0.0,0.0,0.0,0.0,0.0,0.0,0.0,0.0,0.0,0.0,0.0,0.0,0.0,0.0,0.0,0.0,0.0,0.0,0.0,0.0,0.0,0.0,0.0,0.0,0.0,0.0,0.0,0.0,0.0,0.0,0.0,0.0,0.0,0.0,0.0,0.0,0.0,0.0,0.0,0.0,0.0,0.0,0.0,0.0,0.0,0.0,0.0,0.0,0.0,0.0,0.0,0.0,0.0,0.0,0.0,0.0,0.0,0.0,0.0,0.0,0.0,0.0,0.0,-1.8287,-2.0896,-2.3228,-2.3585,-2.173,-1.918,-1.5548,0.0,0.0,0.0,0.0,0.0,0.0,0.0,0.0,0.0,0.0,0.0,0.0,0.0,0.0,0.0,0.0,0.0,0.0,0.0,0.0,0.0,0.0,0.0,0.0,0.0,0.0,0.0,0.0,0.0,0.0,0.0,0.0,0.0,0.0,0.0,0.0,0.0,0.0,0.0,0.0,0.0,0.0,0.0,0.0,0.0,0.0,0.0,0.0,0.0,0.0,0.0,0.0,0.0,0.0,0.0,0.0,0.0,0.0,0.0,0.0,0.0,0.0,0.0,0.0,0.0,0.0,0.0,0.0,0.0,0.0,0.0,0.0,0.0,0.0,0.0,0.0,0.0,0.0,0.0,0.0,0.0,0.0,0.0,0.0,0.0,0.0,0.0,0.0,0.0,0.0,0.0,0.0,0.0,0.0,0.0,0.0,0.0,0.0,0.0,0.0,0.0,0.0,0.0,0.0,0.0,0.0,0.0,0.0,-1.9177,-2.4207,-2.3087,-2.2177,-2.1752,-1.9901,-1.6918,0.0,0.0,0.0,0.0,0.0,0.0,0.0,0.0,0.0,0.0,0.0,0.0,0.0,0.0,0.0,0.0,0.0,0.0,0.0,0.0,0.0,0.0,0.0,0.0,0.0,0.0,0.0,0.0,0.0,0.0,0.0,0.0,0.0,0.0,0.0,0.0,0.0,0.0,0.0,0.0,0.0,0.0,0.0,0.0,0.0,0.0,0.0,0.0,3.5718,0.0,0.0,0.0,0.0,0.0,0.0,0.0,0.0,0.0,0.0,0.0,0.0,0.0,0.0,0.0,0.0,0.0,0.0,0.0,0.0,0.0,0.0,0.0,0.0,0.0,0.0,0.0,0.0,0.0,0.0,0.0,0.0,0.0,0.0,0.0,0.0,0.0,0.0,0.0,0.0,0.0,0.0,0.0,0.0,0.0,0.0,0.0,0.0,0.0,0.0,0.0,0.0,0.0,0.0,0.0,0.0,0.0,0.0,0.0,-2.3253,-2.531,-2.2649,-2.1143,-2.1059,-1.957,-1.7016,0.0,0.0,0.0,0.0,0.0,0.0,0.0,0.0,0.0,0.0,0.0,0.0,0.0,0.0,0.0,0.0,0.0,0.0,0.0,0.0,0.0,0.0,0.0,0.0,0.0,0.0,0.0,0.0,0.0,0.0,0.0,0.0,0.0,0.0,0.0,0.0,0.0,0.0,0.0,0.0,0.0,0.0,0.0,0.0,0.0,0.0,0.0,0.0,0.0,0.0,0.0,0.0,0.0,0.0,0.0,0.0,0.0,0.0,0.0,0.0,0.0,0.0,0.0,0.0,0.0,0.0,0.0,0.0,0.0,0.0,0.0,0.0,0.0,0.0,0.0,0.0,0.0,0.0,0.0,0.0,0.0,0.0,0.0,0.0,0.0,0.0,0.0,0.0,0.0,0.0,0.0,0.0,0.0,0.0,0.0,0.0,0.0,0.0,0.0,0.0,0.0,0.0,0.0,0.0,0.0,0.0,0.0,-2.8402,-2.7356,-2.5115,-2.214,-2.0506,-2.0317,-1.8996,-1.6675,-1.3353,0.0,0.0,0.0,0.0,0.0,0.0,0.0,0.0,0.0,0.0,0.0,0.0,0.0,0.0,0.0,0.0,0.0,0.0,0.0,0.0,0.0,0.0,0.0,0.0,0.0,0.0,0.0,0.0,0.0,0.0,0.0,0.0,0.0,0.0,0.0,0.0,0.0,0.0,3.3201,3.282,0.0,0.0,0.0,0.0,0.0,0.0,0.0,0.0,1.9797,0.0,0.0,0.0,0.0,0.0,0.0,0.0,0.0,0.0,0.0,0.0,0.0,0.0,0.0,0.0,0.0,0.0,0.0,0.0,0.0,0.0,0.0,0.0,0.0,0.0,0.0,0.0,0.0,0.0,0.0,0.0,0.0,0.0,0.0,0.0,0.0,0.0,0.0,0.0,0.0,0.0,0.0,0.0,0.0,0.0,0.0,0.0,0.0,0.0,0.0,0.0,0.0,0.0,0.0,0.0,0.0,-2.7213,-2.7713,-2.6654,-2.3963,-2.1753,-2.057,-2.0508,-1.8886,-1.686,-1.4417,0.0,0.0,0.0,0.0,0.0,0.0,0.0,0.0,0.0,0.0,0.0,0.0,0.0,0.0,0.0,0.0,0.0,0.0,0.0,0.0,0.0,0.0,0.0,0.0,0.0,0.0,0.0,0.0,0.0,0.0,0.0,0.0,0.0,0.0,0.0,0.0,0.0,0.0,0.0,3.1373,2.9878,0.0,0.0,0.0,0.0,0.0,0.0,0.0,0.0,0.8973,0.0,0.0,0.0,0.0,0.0,0.0,0.0,0.0,0.0,0.0,0.0,0.0,0.0,0.0,0.0,0.0,0.0,0.0,0.0,0.0,0.0,0.0,0.0,0.0,0.0,0.0,0.0,0.0,0.0,0.0,0.0,0.0,0.0,0.0,0.0,0.0,0.0,0.0,0.0,0.0,0.0,0.0,0.0,0.0,0.0,0.0,0.0,0.0,0.0,0.0,0.0,0.0,0.0,0.0,0.0,-2.7154,-2.6787,-2.5702,-2.38,-2.1787,-2.0505,-1.9927,-1.8359,-1.6321,0.0,0.0,0.0,0.0,0.0,0.0,0.0,0.0,0.0,0.0,0.0,0.0,0.0,0.0,0.0,0.0,0.0,0.0,0.0,0.0,0.0,0.0,0.0,0.0,0.0,0.0,0.0,0.0,0.0,0.0,0.0,0.0,0.0,0.0,0.0,0.0,0.0,0.0,0.0,0.0,2.8132,2.668,2.2422,0.0,0.0,0.0,0.0,0.0,0.0,-0.1222,-0.1088,0.0,0.0,0.0,0.0,0.0,0.0,0.0,0.0,0.0,0.0,0.0,0.0,0.0,0.0,0.0,0.0,0.0,0.0,0.0,0.0,0.0,0.0,0.0,0.0,0.0,0.0,0.0,0.0,0.0,0.0,0.0,0.0,0.0,0.0,0.0,0.0,0.0,0.0,0.0,0.0,0.0,0.0,0.0,0.0,0.0,0.0,0.0,0.0,0.0,0.0,0.0,0.0,0.0,0.0,0.0,-2.6933,-2.5909,-2.4814,-2.3646,-2.1854,-2.039,-1.9337,-1.7881,-1.5837,0.0,0.0,0.0,0.0,0.0,0.0,0.0,0.0,0.0,0.0,0.0,0.0,0.0,0.0,0.0,0.0,0.0,0.0,0.0,0.0,0.0,0.0,0.0,0.0,0.0,0.0,0.0,0.0,0.0,0.0,0.0,0.0,0.0,0.0,0.0,0.0,0.0,0.0,0.0,0.0,0.0,2.1472,1.6596,1.2739,0.0,0.0,0.0,0.0,-1.1631,-1.0441,0.0,0.0,0.0,0.0,0.0,0.0,0.0,0.0,0.0,0.0,0.0,0.0,0.0,0.0,0.0,0.0,0.0,0.0,0.0,0.0,0.0,0.0,0.0,0.0,0.0,0.0,0.0,0.0,0.0,0.0,0.0,0.0,0.0,0.0,0.0,0.0,0.0,0.0,0.0,0.0,0.0,0.0,0.0,0.0,0.0,0.0,0.0,0.0,0.0,0.0,0.0,0.0,0.0,0.0,0.0,0.0,-2.5743,-2.5153,-2.4087,-2.2546,-2.1486,-2.0426,-1.9386,-1.7904,-1.5997,0.0,0.0,0.0,0.0,0.0,0.0,0.0,0.0,0.0,0.0,0.0,0.0,0.0,0.0,0.0,0.0,0.0,0.0,0.0,0.0,0.0,0.0,0.0,0.0,0.0,0.0,0.0,0.0,0.0,0.0,0.0,0.0,0.0,0.0,0.0,0.0,0.0,0.0,0.0,0.0,0.0,1.1846,0.1833,-0.1947,-0.6791,0.0,0.0,-2.1724,-2.3435,-2.2347,0.0,0.0,0.0,0.0,0.0,0.0,0.0,0.0,0.0,0.0,0.0,0.0,0.0,0.0,0.0,0.0,0.0,0.0,0.0,0.0,0.0,0.0,0.0,0.0,0.0,0.0,0.0,0.0,0.0,0.0,0.0,0.0,0.0,0.0,0.0,0.0,0.0,0.0,0.0,0.0,0.0,0.0,0.0,0.0,0.0,0.0,0.0,0.0,0.0,0.0,0.0,0.0,0.0,0.0,0.0,-2.5903,-2.487,-2.4199,-2.3374,-2.2406,-2.0973,-1.9889,-1.9137,-1.7125,-1.5225,0.0,0.0,0.0,0.0,0.0,0.0,0.0,0.0,0.0,0.0,0.0,0.0,0.0,0.0,0.0,0.0,0.0,0.0,0.0,0.0,0.0,0.0,0.0,0.0,0.0,0.0,0.0,0.0,0.0,0.0,0.0,0.0,0.0,0.0,0.0,0.0,0.0,0.0,0.0,0.0,0.0,0.0,-0.4893,-0.8828,0.0,0.0,0.0,-2.4087,-2.3696,0.0,0.0,0.0,0.0,0.0,0.0,0.0,0.0,0.0,0.0,0.0,0.0,0.0,0.0,0.0,0.0,0.0,0.0,0.0,0.0,0.0,0.0,0.0,0.0,0.0,0.0,0.0,0.0,0.0,0.0,0.0,0.0,0.0,0.0,0.0,0.0,0.0,0.0,0.0,0.0,0.0,0.0,0.0,0.0,0.0,0.0,0.0,0.0,0.0,0.0,0.0,0.0,0.0,0.0,0.0,0.0,0.0,-2.4002,-2.3317,-2.2608,-2.1791,-2.0455,-1.9233,-1.824,-1.6352,0.0,0.0,0.0,0.0,0.0,0.0,0.0,0.0,0.0,0.0,0.0,0.0,0.0,0.0,0.0,0.0,0.0,0.0,0.0,0.0,0.0,0.0,0.0,0.0,0.0,0.0,0.0,2.4417,0.0,0.0,0.0,0.0,0.0,0.0,0.0,0.0,0.0,0.0,0.0,0.0,0.0,0.0,-0.8127,-1.1144,-1.4121,-1.6764,0.0,0.0,-2.3187,-2.2367,-2.2477,-2.2227,0.0,0.0,0.0,0.0,0.0,0.0,0.0,0.0,0.0,0.0,0.0,0.0,0.0,0.0,0.0,0.0,0.0,0.0,0.0,0.0,0.0,0.0,0.0,0.0,0.0,0.0,0.0,0.0,0.0,0.0,0.0,0.0,0.0,0.0,0.0,0.0,0.0,0.0,0.0,0.0,0.0,0.0,0.0,0.0,0.0,0.0,0.0,0.0,0.0,0.0,0.0,0.0,0.0,0.0,-2.4013,-2.286,-2.274,-2.1791,-1.9953,-1.9762,-1.8684,-1.6532,-1.5688,-1.4269,0.0,0.0,0.0,0.0,0.0,0.0,0.0,0.0,0.0,0.0,0.0,0.0,0.0,0.0,0.0,0.0,0.0,0.0,0.0,0.0,0.0,0.0,0.0,0.0,0.0,0.0,0.0,0.0,0.0,0.0,0.0,0.0,0.0,0.0,0.0,0.0,0.0,0.0,0.0,0.0,0.0,-1.4605,-1.9469,-1.9448,-2.0141,0.0,-2.3117,-2.2346,-2.2355,-2.1655,-2.1053,-2.0783,0.0,0.0,0.0,0.0,0.0,0.0,0.0,0.0,0.0,0.0,0.0,0.0,0.0,0.0,0.0,0.0,0.0,0.0,0.0,0.0,0.0,0.0,0.0,0.0,0.0,0.0,0.0,0.0,0.0,0.0,0.0,0.0,0.0,0.0,0.0,0.0,0.0,0.0,0.0,0.0,0.0,0.0,0.0,0.0,0.0,0.0,0.0,0.0,0.0,0.0,0.0,0.0,0.0,-2.3069,-2.2402,-2.1766,-2.0855,-1.971,-1.9061,-1.7927,-1.6317,-1.5361,-1.3888,0.0,0.0,0.0,0.0,0.0,0.0,0.0,0.0,0.0,0.0,0.0,0.0,0.0,0.0,0.0,0.0,0.0,0.0,0.0,0.0,0.0,0.0,0.0,0.0,0.0,0.0,0.0,0.0,0.1338,-0.0664,-0.2526,0.0,0.0,0.0,0.0,0.0,0.0,0.0,0.0,0.0,0.0,-2.2457,-2.3253,-2.272,0.0,0.0,-2.211,-2.1259,-2.109,-2.1121,-2.0957,-2.0232,-2.0498,0.0,0.0,0.0,0.0,0.0,0.0,0.0,0.0,0.0,0.0,0.0,0.0,0.0,0.0,0.0,0.0,0.0,0.0,0.0,0.0,0.0,0.0,0.0,0.0,0.0,0.0,0.0,0.0,0.0,0.0,0.0,0.0,0.0,0.0,0.0,0.0,0.0,0.0,0.0,0.0,0.0,0.0,0.0,0.0,0.0,0.0,0.0,0.0,0.0,0.0,0.0,0.0,-2.2296,-2.1746,-2.0769,-1.9953,-1.9258,-1.8328,-1.7191,-1.5813,-1.4796,-1.3485,0.0,0.0,0.0,0.0,0.0,0.0,0.0,0.0,0.0,0.0,0.0,0.0,0.0,0.0,0.0,0.0,0.0,0.0,0.0,0.0,0.0,0.0,0.0,0.0,0.0,0.0,0.0,0.0,-0.5828,-0.789,-1.2272,0.0,0.0,0.0,0.0,0.0,0.0,0.0,0.0,0.0,0.0,-2.6189,-2.4625,-2.3978,-2.3308,-2.2235,-2.1305,-2.0614,-2.0207,-2.0591,-2.0587,-1.9558,0.0,0.0,0.0,0.0,0.0,0.0,0.0,0.0,0.0,0.0,0.0,0.0,0.0,0.0,0.0,0.0,0.0,0.0,0.0,0.0,0.0,0.0,0.0,0.0,0.0,0.0,0.0,0.0,0.0,0.0,-1.8998,0.0,0.0,0.0,0.0,0.0,0.0,0.0,0.0,0.0,0.0,0.0,0.0,0.0,0.0,0.0,0.0,0.0,0.0,0.0,0.0,0.0,0.0,-2.1684,-2.0646,-2.0054,-1.9218,-1.8135,-1.7534,-1.6348,-1.4647,-1.4025,-1.2862,-1.1038,0.0,0.0,0.0,0.0,0.0,0.0,0.0,0.0,0.0,0.0,0.0,0.0,0.0,0.0,0.0,0.0,0.0,0.0,0.0,0.0,0.0,0.0,0.0,0.0,0.0,0.0,-1.8253,-1.7882,-1.8528,0.0,0.0,0.0,0.0,0.0,0.0,0.0,0.0,0.0,0.0,-2.4959,-2.4532,-2.3654,-2.2915,-2.2295,-2.1855,-2.113,-2.0489,-2.0049,-2.0013,-1.9733,0.0,0.0,0.0,0.0,0.0,0.0,0.0,0.0,0.0,0.0,0.0,0.0,0.0,0.0,0.0,0.0,0.0,0.0,0.0,0.0,0.0,0.0,0.0,0.0,0.0,0.0,0.0,-1.8385,-1.792,0.0,0.0,0.0,0.0,0.0,0.0,0.0,0.0,0.0,0.0,0.0,-2.4898,-2.469,0.0,0.0,0.0,0.0,0.0,0.0,0.0,0.0,0.0,0.0,0.0,0.0,-2.0782,-1.9991,-1.9503,-1.8673,-1.7534,-1.6901,-1.5938,-1.4529,-1.3606,-1.1873,-0.9233,0.0,0.0,0.0,0.0,0.0,0.0,0.0,0.0,0.0,0.0,0.0,0.0,0.0,0.0,0.0,0.0,0.0,0.0,0.0,0.0,0.0,0.0,0.0,0.0,0.0,-2.1363,0.0,0.0,0.0,0.0,0.0,0.0,0.0,0.0,0.0,0.0,0.0,-2.4184,-2.3842,-2.3626,-2.3224,-2.2359,-2.1785,-2.1182,0.0,0.0,0.0,0.0,0.0,0.0,0.0,0.0,0.0,0.0,0.0,0.0,0.0,0.0,-1.5242,-1.5007,-1.4768,-1.5314,-1.7316,0.0,0.0,0.0,0.0,0.0,0.0,0.0,0.0,0.0,0.0,0.0,0.0,0.0,0.0,-1.8104,0.0,-1.8452,0.0,0.0,0.0,0.0,0.0,0.0,0.0,0.0,-2.2262,-2.2573,-2.3106,-2.2756,-2.2497,0.0,-2.1663,-2.1609,0.0,0.0,0.0,0.0,0.0,0.0,0.0,0.0,-2.0105,-1.9438,-1.8804,-1.7941,-1.6901,-1.628,-1.5429,-1.4172,-1.2887,-1.0947,-0.8409,-0.8166,-0.7907,0.0,0.0,0.0,0.0,0.0,0.0,0.0,0.0,0.0,0.0,0.0,0.0,0.0,0.0,0.0,0.0,0.0,0.0,0.0,0.0,0.0,0.0,0.0,-2.0873,0.0,0.0,0.0,0.0,0.0,0.0,0.0,0.0,0.0,-2.2441,-2.2877,-2.2966,-2.262,-2.2469,-2.212,-2.1351,0.0,0.0,0.0,0.0,0.0,0.0,0.0,-1.9715,-1.8148,-1.9011,-1.9467,-1.7938,-1.781,-1.7789,-1.7416,0.0,0.0,-1.599,-1.5534,-1.5692,-1.7045,-1.6767,-1.6767,-1.8244,-1.8052,-1.7868,0.0,0.0,0.0,0.0,0.0,0.0,0.0,0.0,-1.8509,-1.7901,0.0,-1.8046,0.0,0.0,0.0,0.0,0.0,-1.9911,0.0,0.0,-2.0347,-2.0684,-2.115,-2.0254,-2.0018,-2.0467,-1.9899,-1.9364,-1.902,-2.0495,0.0,0.0,0.0,0.0,0.0,0.0,-1.9621,-1.8881,-1.792,-1.7078,-1.626,-1.5671,-1.4697,-1.3442,-1.1849,-1.0218,-0.8619,-0.9081,-0.8823,-0.7517,-0.8102,0.0,0.0,0.0,0.0,0.0,0.0,0.0,0.0,0.0,0.0,0.0,0.0,0.0,0.0,0.0,0.0,0.0,0.0,0.0,0.0,-1.9915,0.0,0.0,0.0,0.0,0.0,0.0,0.0,0.0,0.0,0.0,-2.1833,-2.2035,-2.2002,-2.1835,0.0,0.0,0.0,0.0,-2.0135,-2.0182,-1.9932,-1.9599,-1.9149,-1.9416,-1.9326,-1.814,0.0,0.0,-1.8173,-1.7427,-1.6873,-1.6683,-1.6568,-1.6554,-1.6281,-1.5306,-1.5057,-1.6634,-1.6731,-1.6657,-1.6911,-1.7051,-1.7144,-2.027,0.0,0.0,0.0,0.0,-1.8967,-1.8633,-1.8499,-1.8114,-1.7784,-1.751,-1.7774,0.0,0.0,0.0,0.0,0.0,0.0,-1.9846,-2.0171,-2.02,-2.0167,-1.9951,-1.953,-1.9242,-1.8929,-1.8655,-1.8424,-1.8352,-1.8809,-1.885,-1.8555,0.0,0.0,0.0,0.0,-1.8437,-1.7124,-1.68,-1.612,-1.504,-1.4392,-1.3312,-1.1725,-1.0919,-0.9907,-0.8554,-0.8683,-0.8619,-0.8226,-0.8032,0.0,0.0,0.0,0.0,0.0,0.0,0.0,0.0,0.0,0.0,0.0,0.0,0.0,0.0,0.0,0.0,0.0,0.0,0.0,-1.8447,-1.8821,-1.8915,0.0,0.0,0.0,0.0,0.0,0.0,0.0,0.0,0.0,-2.0709,-2.0894,-2.1153,0.0,0.0,-2.0532,-2.0764,-1.9818,-1.9364,-2.0307,-1.9582,0.0,-1.9957,-2.0112,-1.9767,-1.8572,-1.8415,-1.8383,-1.8037,-1.7703,-1.731,-1.6897,-1.6413,-1.6034,-1.5925,-1.5451,-1.5367,-1.6219,-1.6017,-1.5824,-1.636,-1.6517,-1.6515,-1.9922,-1.977,-1.9966,-1.9639,-1.8967,-1.8643,-1.8365,-1.8172,-1.7842,-1.7569,-1.7373,-1.7382,-1.7288,-1.7186,-1.7539,0.0,0.0,0.0,-1.8606,-1.8843,-1.8649,-1.8371,-1.8118,-1.8023,-1.7666,-1.7168,-1.7435,-1.739,-1.7024,-1.7202,-1.7202,-1.7024,0.0,0.0,-1.7401,-1.7768,-1.7286,-1.5918,-1.5167,-1.4489,-1.3855,-1.2948,-1.1911,-1.08,-1.0428,-0.9849,-0.8952,-0.8888,-0.8882,-0.8882,-0.8624,-0.8759,0.0,0.0,0.0,0.0,0.0,0.0,0.0,0.0,0.0,0.0,0.0,-1.461,-1.5706,0.0,0.0,0.0,-1.6853,-1.7313,-1.7875,-1.7941,0.0,0.0,0.0,0.0,0.0,0.0,0.0,-1.9109,-1.9685,-2.0045,-2.0045,-2.0326,-2.0585,-2.0641,-2.022,-1.9936,-2.0067,0.0,-1.9214,-1.9981,-1.9462,-1.9154,-1.9678,-1.9812,-1.953,-1.8554,-1.7645,-1.7197,-1.7107,-1.6808,-1.6369,-1.6002,-1.561,-1.5336,-1.5336,-1.516,-1.5039,-1.5551,-1.5525,-1.5525,-1.5604,-1.5816,-1.5956,-1.9177,-1.8509,-1.8977,-1.89,-1.8509,-1.8442,-1.8172,-1.7706,-1.7638,-1.7373,-1.6908,-1.6908,-1.6688,-1.6361,-1.6381,0.0,-1.6863,-1.7012,-1.6951,-1.6776,-1.6373,-1.6105,-1.6107,-1.6075,-1.5816,-1.5468,-1.6296,-1.6228,-1.541,-1.5758,-1.5758,-1.5284,-1.5881,-1.6224,-1.6285,-1.6499,-1.6157,-1.5147,-1.3415,-1.2502,-1.2634,-1.1538,-1.0737,-1.0301,-1.0244,-0.9989,-0.942,-0.9414,-0.942,-0.942,-0.942,-0.942,-0.9478,0.0,0.0,0.0,0.0,0.0,0.0,0.0,0.0,0.0,0.0,0.0,0.0,0.0,0.0,-1.6316,-1.674,0.0,-1.7556,-1.7224,0.0,0.0,0.0,-1.7431,-1.8008,-1.8126,-1.8153,-1.8219,0.0,0.0,-1.9785,-2.016,-2.0133,-1.9446,-1.9557,-1.9483,-1.9004,-1.9241,-1.9465,-1.961,-1.9492,-1.9271,-1.8961,-1.9061,-1.8891,-1.8024,-1.6793,-1.6009,-1.5896,-1.5367,-1.476,-1.4729,-1.4569,-1.4641,-1.4569,-1.4641,-1.4569,-1.4633,-1.5171,-1.5429,-1.4903,-1.5054,-1.5401,-1.8442,-1.791,-1.8037,-1.824,-1.8442,-1.8037,-1.7842,-1.7638,-1.7235,-1.7047,-1.6908,-1.6908,-1.6884,-1.6873,-1.6187,-1.6376,-1.7163,-1.6801,-1.6638,-1.6638,-1.6528,-1.6307,-1.5918,-1.5808,-1.5652,-1.5584,-1.5642,-1.5478,-1.5001,-1.4787,-1.4483,-1.4136,-1.3828,-1.4339,-1.5629,-1.5242,-1.4702,-1.4067,-1.2302,-1.1373,-1.1413,-1.08,-1.0428,-1.0308,-0.9926,-0.9408,-0.8753,-0.8748,-0.8753,-0.8753,-0.8753,-0.8952,-0.9484,-0.9676,0.0,0.0,0.0,0.0,0.0,0.0,0.0,0.0,0.0,-1.3899,-1.4859,0.0,-1.5652,0.0,-1.6488,-1.6591,-1.6694,-1.6591,0.0,0.0,-1.6953,-1.7294,-1.7877,-1.8284,-1.867,-1.9148,-1.9367,-1.9564,-1.9552,-1.9668,-1.9506,-1.892,-1.9212,-1.9657,-1.9877,-1.9244,-1.9112,-1.9781,-1.9242,-1.8913,-1.9441,-1.8911,-1.8014,-1.7257,-1.6862,-1.648,-1.5861,-1.5635,-1.5345,-1.4752,-1.4569,-1.4569,-1.4569,-1.4569,-1.4569,-1.4569,-1.4776,-1.4832,-1.4641,-1.4705,-1.4848,-1.8475,-1.784,-1.7661,-1.7777,-1.8025,-1.7508,-1.7373,-1.7295,-1.6853,-1.6652,-1.6624,-1.6266,-1.6271,-1.6374,-1.5549,-1.557,-1.6282,-1.5852,-1.5642,-1.5671,-1.5662,-1.5348,-1.4864,-1.4932,-1.4874,-1.4697,-1.4728,-1.456,-1.4282,-1.3828,-1.3459,-1.3053,-1.2504,-1.2803,-1.3962,-1.4038,-1.3694,-1.2798,-1.1403,-1.0728,-1.0674,-0.9907,-0.9597,-0.9737,-0.896,-0.8511,-0.8339,-0.8109,-0.8161,-0.8549,-0.8613,-0.8742,-0.9139,-0.9274,-0.9139,0.0,0.0,0.0,0.0,0.0,0.0,0.0,0.0,0.0,0.0,0.0,-1.4932,-1.5904,-1.6143,-1.6254,-1.6195,-1.6356,-1.6526,-1.6471,-1.6698,-1.7103,-1.7739,-1.8029,-1.8312,-1.8676,-1.9166,-1.947,-1.947,-1.9331,-1.916,-1.8779,-1.8505,-1.8636,-1.9253,-1.8776,-1.8674,-1.9544,-1.892,-1.8375,-1.892,-1.7588,-1.6453,-1.621,-1.5843,-1.5514,-1.5337,-1.5283,-1.5097,-1.4697,-1.4569,-1.4513,-1.4328,-1.4263,-1.4183,-1.3928,-1.3848,-1.3912,-1.4201,-1.4266,-1.4201,-1.8585,-1.7779,-1.7424,-1.7242,-1.7089,-1.6693,-1.6645,-1.6742,-1.626,-1.608,-1.599,-1.5196,-1.5034,-1.5295,-1.4592,-1.4448,-1.4736,-1.4412,-1.4258,-1.4258,-1.4258,-1.395,-1.3381,-1.3786,-1.3795,-1.3381,-1.3571,-1.3597,-1.3336,-1.2997,-1.2583,-1.2149,-1.1703,-1.161,-1.1854,-1.2745,-1.2633,-1.1421,-1.067,-1.0142,-1.004,-0.9011,-0.8642,-0.8827,-0.7935,-0.756,-0.7819,-0.7486,-0.7642,-0.8345,-0.8409,-0.8409,-0.8544,-0.8538,-0.8285,0.0,-0.8285,0.0,0.0,0.0,0.0,0.0,0.0,0.0,0.0,-1.3934,-1.415,-1.5254,-1.5768,-1.595,-1.5888,-1.6206,-1.6427,-1.6473,-1.6543,-1.6782,-1.7432,-1.7567,-1.7582,-1.7582,-1.847,-1.9072,-1.903,-1.8895,-1.8716,-1.8558,-1.7644,-1.7243,-1.788,-1.7917,-1.7994,-1.866,-1.8175,-1.7463,-1.7118,-1.5796,-1.4844,-1.4917,-1.4577,-1.4095,-1.4316,-1.4347,-1.4307,-1.4227,-1.414,-1.4076,-1.3615,-1.3535,-1.3368,-1.2963,-1.2912,-1.3121,-1.3535,-1.3688,-1.347,-1.6899,-1.6262,-1.6192,-1.5615,-1.4841,-1.4767,-1.5194,-1.5965,-1.5255,-1.4776,-1.4525,-1.3819,-1.3539,-1.3564,-1.3083,-1.2911,-1.2977,-1.292,-1.2887,-1.2879,-1.2879,-1.2818,-1.2696,-1.2749,-1.2749,-1.2687,-1.274,-1.2717,-1.2646,-1.2183,-1.1797,-1.1579,-1.1451,-1.1041,-1.0302,0.0,0.0,0.0,-0.9976,-0.9479,-0.8538,-0.8544,-0.8275,-0.7713,-0.7497,0.0,-0.6742,-0.6641,-0.6662,-0.6854,-0.685,0.0,0.0,0.0,0.0,0.0,0.0,0.0,0.0,0.0,0.0,0.0,-1.1045,-1.2189,-1.3053,-1.41,-1.4818,-1.5053,-1.5376,-1.5597,-1.5606,-1.5661,-1.5725,-1.5731,-1.6065,-1.6361,-1.6506,-1.6797,-1.7051,-1.7051,-1.7243,-1.7417,-1.7417,-1.7366,-1.7295,-1.7263,-1.6798,-1.6519,-1.6665,-1.6627,-1.6706,-1.6806,-1.6478,-1.5984,-1.5334,-1.4863,-1.4271,-1.4072,-1.3814,-1.3512,-1.3262,-1.3204,-1.3028,-1.2706,-1.2548,-1.2565,-1.2443,-1.2395,-1.2382,-1.231,-1.2424,-1.2677,-1.299,-1.3039,-1.3046,-1.6768,0.0,-1.5713,-1.5016,0.0,-1.3629,-1.3729,-1.4215,-1.3978,-1.3707,-1.3355,-1.2941,-1.2782,-1.2782,-1.2591,-1.2512,-1.2512,-1.2512,-1.2512,-1.252,-1.2695,-1.2586,-1.2287,-1.2383,-1.2459,-1.2459,-1.2129,-1.2087,-1.2255,-1.1731,-1.1073,-1.0378,-1.0516,-1.002,-0.9071,-0.9384,-0.9611,-0.947,-0.961,-0.9165,-0.8117,-0.7782,-0.7538,-0.725,0.0,0.0,0.0,0.0,0.0,0.0,0.0,0.0,0.0,0.0,0.0,-0.6601,-0.699,-0.7181,-0.7242,-0.814,-0.8661,-0.8474,-0.978,-1.1026,-1.2004,-1.3043,-1.3842,-1.435,-1.4928,-1.5354,-1.5296,-1.5463,-1.5639,-1.5634,-1.5841,-1.612,-1.6482,-1.676,-1.6872,-1.6941,-1.6941,-1.6941,-1.6941,-1.6515,-1.6314,-1.6051,-1.5558,-1.5137,-1.5068,-1.5312,-1.5485,-1.5505,-1.4988,-1.4507,-1.4067,-1.3276,-1.2889,-1.2613,-1.2608,-1.255,-1.2503,-1.2472,-1.2347,-1.2118,-1.2054,-1.2034,-1.1696,-1.1622,-1.1579,-1.1315,-1.1335,-1.1473,-1.165,-1.2025,-1.2372,-1.6599,-1.5753,-1.5076,-1.4435,-1.3666,-1.2721,-1.2253,-1.2254,0.0,0.0,0.0,-1.2166,-1.2143,-1.2205,-1.2143,-1.2143,-1.2143,-1.2143,-1.2143,-1.2158,-1.2428,-1.2247,-1.1776,-1.1954,-1.2037,-1.1952,-1.1411,-1.1328,-1.1614,-1.1145,-1.0411,-0.9461,-0.9526,-0.9227,-0.8411,-0.8118,-0.8284,-0.8945,-0.9207,-0.8777,-0.7663,-0.7061,-0.6767,-0.6768,-0.5879,-0.5563,-0.5878,-0.5552,-0.5752,-0.6396,-0.6326,-0.626,-0.626,-0.6191,-0.5738,-0.509,-0.5609,-0.6005,-0.6067,-0.6793,-0.7256,-0.7386,-0.8573,-0.9844,-1.1297,-1.1995,-1.2668,-1.3455,-1.4307,-1.4734,-1.4742,-1.5068,-1.5313,-1.5325,-1.5296,-1.5488,-1.6087,-1.6202,-1.6079,-1.621,-1.6149,-1.6262,-1.5974,-1.5625,-1.5166,-1.4678,-1.403,-1.3517,-1.3349,-1.377,-1.4145,-1.3891,-1.3364,-1.2989,-1.2798,-1.1996,-1.1164,-1.1524,-1.1567,-1.157,-1.1701,-1.1796,-1.1723,-1.1534,-1.1664,-1.133,-1.0877,-1.0755,-1.0588,-0.9917,-0.9949,-0.9978,-0.9944,-1.0622,-1.1144,-1.4678,-1.3104,-1.3014,-1.2409,-1.1441,-1.1334,-1.1111,-1.0894,-1.1163,-1.1283,-1.1235,-1.0973,-1.087,-1.087,-1.0863,-1.0863,-1.087,-1.087,-1.087,0.0,-1.0911,-1.0869,-1.0819,-1.0853,-1.0614,-1.0171,-1.005,-1.0006,-0.9884,-0.9785,-0.9599,-0.9329,-0.9355,-0.9268,-0.9051,-0.7906,-0.7068,-0.6813,-0.7919,-0.7623,-0.5852,-0.6419,-0.6423,-0.5668,-0.5481,-0.5418,-0.546,-0.5415,-0.5425,-0.5557,-0.4951,-0.4616,-0.4616,-0.4082,-0.3613,-0.3551,-0.4217,-0.4616,-0.4616,-0.5804,-0.6793,-0.7316,-0.7757,-0.8944,-1.1159,-1.199,-1.2425,-1.2621,-1.2985,-1.3186,-1.3194,-1.3368,-1.3448,-1.3389,-1.3368,-1.3353,-1.3611,-1.3613,-1.3658,-1.3678,-1.3932,-1.3968,-1.3527,-1.363,-1.3523,-1.2772,-1.2505,-1.1918,-1.1761,-1.2117,-1.2242,-1.1733,-1.143,-1.1331,-1.1446,-1.122,-1.1009,-1.1038,-1.1044,-1.0843,-1.0497,-1.0458,-1.0329,-0.9925,-0.9928,-0.9673,-0.9085,-0.9397,-0.9162,-0.8332,-0.8569,-0.8883,-0.8419,-0.8623,-0.9145,-1.3433,-1.235,-1.2123,-1.1517,-1.0762,-1.0762,-1.0688,-1.0575,-1.0303,-1.0419,-1.0742,-1.0615,-1.0618,-1.0561,-1.0174,-0.997,-0.9977,-0.9652,-0.9454,-0.9466,-0.9598,-0.967,-0.9682,-0.988,-0.9811,-0.9588,-0.9661,-0.9553,-0.9244,-0.9522,-0.9345,-0.8533,-0.8161,-0.8001,-0.7912,-0.6767,-0.5231,-0.3609,-0.6511,-0.728,-0.5656,-0.51,-0.4803,-0.4758,-0.442,-0.422,-0.422,-0.422,-0.4217,-0.422,-0.3887,-0.3685,-0.3685,-0.3416,-0.3218,-0.3218,-0.3485,-0.3685,-0.3685,-0.4278,-0.5137,-0.6187,-0.6457,-0.7458,-0.948,-1.0231,-1.0914,-1.1516,-1.1991,-1.2439,-1.282,-1.2938,-1.2917,-1.2931,-1.2907,-1.2928,-1.29,-1.2924,-1.2917,-1.291,-1.2992,-1.2913,-1.2572,-1.2713,-1.2738,-1.2147,-1.1867,-1.1517,-1.1115,-1.1319,-1.158,-1.129,-1.1118,-1.1088,-1.1015,-1.0757,-1.0492,-1.0074,-0.994,-0.9682,-0.9079,-0.8879,-0.8792,-0.8478,-0.8361,-0.8259,-0.7927,-0.8093,-0.7952,-0.7727,-0.771,-0.7849,-0.7674,-0.7673,-0.8118,-1.2518,-1.1636,-1.1346,-1.083,-1.02,-1.013,-1.0168,-1.004,-0.9524,-0.9582,-1.0104,-1.0104,-1.0104,-1.004,-0.9524,-0.9256,-0.9192,-0.8742,-0.849,-0.8511,-0.8739,-0.8826,-0.8842,-0.9083,-0.9129,-0.9066,-0.9143,-0.899,-0.8612,-0.8876,-0.8268,-0.703,-0.6416,-0.6356,-0.6748,-0.5538,-0.3683,-0.1502,-0.4987,-0.6359,-0.5081,-0.3847,-0.3502,-0.3951,-0.3485,-0.3218,-0.3218,-0.3218,-0.3226,-0.3177,-0.3094,-0.2958,-0.2975,-0.2824,-0.2748,-0.275,-0.2882,-0.3015,-0.3151,-0.3218,-0.368,-0.4734,-0.5033,-0.5707,-0.6867,-0.779,-0.8869,-1.0099,-1.0708,-1.131,-1.1922,-1.2198,-1.2251,-1.2452,-1.2479,-1.2446,-1.2581,-1.2546,-1.2545,-1.2565,-1.2459,-1.2372,-1.2155,-1.2219,-1.1982,-1.1427,-1.1122,-1.0771,-1.0484,-1.0428,-1.0556,-1.0645,-1.0635,-1.0447,-1.0439,-1.002,-0.9522,-0.8915,-0.8829,-0.8595,-0.8061,-0.7821,-0.7708,-0.7708,-0.7589,-0.7488,-0.7335,-0.7456,-0.7329,-0.7016,-0.7007,-0.7138,-0.6881,-0.6889,-0.7256,-1.2013,-1.0498,-1.0374,-0.9764,-0.9008,-0.8788,-0.877,-0.8765,-0.8619,-0.8619,-0.8776,-0.8683,-0.8694,-0.8683,-0.8619,-0.8619,-0.8619,-0.8554,-0.849,-0.8425,-0.8506,-0.8522,-0.8468,-0.856,-0.8337,-0.7942,-0.8009,-0.7695,-0.7032,-0.6598,-0.5695,-0.447,-0.4079,-0.479,-0.5961,-0.4678,-0.2949,-0.1188,-0.3072,-0.3695,-0.2918,-0.3059,-0.3233,-0.3286,-0.3218,-0.3218,-0.3151,-0.3218,-0.3185,-0.3186,-0.2583,-0.2239,-0.2215,-0.1703,-0.1344,-0.1345,-0.1882,-0.248,-0.3086,-0.3218,-0.3224,-0.3416,-0.3563,-0.3752,-0.3997,-0.482,-0.6428,-0.8321,-0.8927,-0.9377,-1.0073,-1.0223,-1.0582,-1.1168,-1.1254,-1.1347,-1.1527,-1.1422,-1.1341,-1.1589,-1.1706,-1.1784,-1.099,-1.1215,-1.0963,-0.9818,-0.9211,-0.8762,-0.8561,-0.8607,-0.8612,-0.8704,-0.8951,-0.8906,-0.8571,-0.8212,-0.8269,-0.8108,-0.8014,-0.791,-0.7743,-0.7667,-0.7802,-0.7371,-0.7603,-0.7382,-0.7078,-0.7087,-0.7043,-0.61,-0.5996,-0.628,-0.5752,-0.5554,-0.6007,-1.0904,-1.0194,-0.9673,-0.9249,-0.8912,-0.8806,-0.8763,-0.8769,-0.8366,-0.8225,-0.8157,-0.7825,-0.7952,-0.8495,-0.8102,-0.7907,-0.7907,-0.7456,-0.726,-0.726,-0.726,-0.726,-0.7195,-0.6854,-0.6573,-0.6332,-0.6091,-0.5772,-0.535,-0.502,-0.4612,-0.4059,-0.3907,-0.4227,-0.4637,-0.3555,-0.2311,-0.1159,-0.1774,-0.198,-0.1706,-0.184,-0.2169,-0.2484,-0.2147,-0.1946,-0.1946,-0.1946,-0.1957,-0.198,-0.1646,-0.1522,-0.154,-0.1337,-0.1129,-0.1129,-0.1411,-0.1692,-0.1973,-0.2044,-0.2183,-0.2533,-0.2672,-0.2846,-0.3431,-0.3869,-0.4855,-0.6276,-0.7395,-0.8358,-0.9145,-0.9332,-0.952,-0.9814,-0.9889,-0.9846,-0.9916,-0.9777,-0.975,-0.9825,-0.9841,-0.975,-0.939,-0.9467,-0.9453,-0.8877,-0.8513,-0.8047,-0.7705,-0.7702,-0.7327,-0.6605,-0.6583,-0.7267,-0.7939,-0.837,-0.8139,-0.7773,-0.7633,-0.7616,-0.688,-0.6826,-0.6781,-0.6704,-0.6687,-0.6588,-0.6218,-0.5813,-0.558,-0.4975,-0.4491,-0.4455,-0.4185,-0.4131,-0.4425,-0.9945,-0.9685,-0.8829,-0.8491,-0.8507,-0.8226,-0.8131,-0.799,-0.7354,-0.7078,-0.7007,-0.6516,-0.6728,-0.7301,-0.7354,-0.7292,-0.6957,-0.6423,-0.6086,-0.5884,-0.5884,-0.5862,-0.5825,-0.5413,-0.5116,-0.5059,-0.4769,-0.4278,-0.3818,-0.3737,-0.3547,-0.3239,-0.3231,-0.3121,-0.2911,-0.2144,-0.1301,-0.0605,-0.0873,-0.0941,-0.0538,-0.047,-0.0805,-0.1409,-0.0873,-0.047,-0.047,-0.0538,-0.054,-0.0544,-0.0482,-0.0488,-0.0495,-0.0501,-0.0506,-0.0509,-0.0729,-0.0729,-0.051,-0.0947,-0.1311,-0.1528,-0.1747,-0.2201,-0.2758,-0.3085,-0.3499,-0.4243,-0.5674,-0.6906,-0.8311,-0.849,-0.866,-0.8909,-0.8923,-0.8852,-0.9009,-0.8822,-0.8808,-0.8784,-0.8574,-0.7969,-0.7742,-0.7558,-0.7388,-0.7503,-0.7375,-0.7222,-0.6546,-0.6335,-0.5954,-0.4833,-0.4693,-0.5395,-0.7003,-0.7046,-0.7003,-0.6773,-0.629,-0.6023,-0.5497,-0.5419,-0.5366,-0.527,-0.522,-0.5195,-0.498,-0.4579,-0.4337,-0.414,-0.3721,-0.3319,-0.3459,-0.3261,-0.3235,-0.9456,-0.8637,-0.7663,-0.7294,-0.72,-0.6306,-0.5878,-0.5967,-0.5087,-0.472,-0.487,-0.472,-0.4712,-0.4973,-0.6317,-0.6556,-0.5837,-0.5745,-0.5303,-0.4731,-0.4671,-0.4561,-0.4466,-0.4461,-0.4393,-0.43,-0.4216,-0.3681,-0.2741,-0.2534,-0.2011,-0.1264,-0.1263,-0.1246,-0.1218,-0.0607,0.0269,0.0807,-0.0269,-0.0403,0.0806,0.1008,0.0672,0.0067,0.0605,0.0873,0.0941,0.1008,0.0951,0.0907,0.089,0.0966,0.1078,0.0995,0.0997,0.1018,0.0438,0.0365,0.0802,-0.0219,-0.0805,-0.0292,-0.0733,-0.1243,-0.1255,-0.1876,-0.2429,-0.2655,-0.3557,-0.4999,-0.6894,-0.7257,-0.7641,-0.8307,-0.8505,-0.8559,-0.8833,-0.8331,-0.8803,-0.8616,-0.7765,-0.6957,-0.6339,-0.5576,-0.5343,-0.5209,-0.4665,-0.4201,-0.4217,-0.4081,-0.4006,-0.3839,-0.3686,-0.3851,-0.4068,-0.4758,-0.4525,-0.445,-0.4761,-0.4217,-0.3979,-0.3895,-0.3956,-0.4026,-0.4196,-0.413,-0.3746,-0.3555,-0.3489,-0.336,-0.3227,-0.2976,-0.2782,-0.3125,-0.3017,-0.7551,-0.6307,-0.5956,-0.5781,-0.5778,-0.5421,-0.5252,-0.5243,-0.4938,-0.476,-0.4746,-0.4678,-0.4715,-0.4715,-0.529,-0.5315,-0.4886,-0.4883,-0.4702,-0.4357,-0.4349,-0.4327,-0.4292,-0.3876,-0.3592,-0.3442,-0.3176,-0.232,-0.113,-0.0558,-0.0138,0.0205,0.0273,-0.0136,-0.074,0.0067,0.1277,0.2221,0.1277,0.1007,0.1608,0.2147,0.2281,0.1877,0.1343,0.1076,0.1076,0.1076,0.1081,0.1091,0.103,0.1044,0.1065,0.109,0.119,0.1293,0.0993,0.0993,0.1145,0.0764,0.0534,0.0764,0.0611,0.0381,0.0382,0.0077,-0.0464,-0.1469,-0.1942,-0.2963,-0.3979,-0.4891,-0.5374,-0.5725,-0.5737,-0.5866,-0.5786,-0.5715,-0.5622,-0.5625,-0.5323,-0.5004,-0.4758,-0.4443,-0.4213,-0.4215,-0.3979,-0.3515,-0.3054,-0.2987,-0.2752,-0.2196,-0.1724,-0.1568,-0.2196,-0.3287,-0.383,-0.383,-0.3908,-0.3828,-0.3671,-0.3435,-0.3424,-0.3189,-0.3278,-0.3205,-0.2898,-0.2578,-0.2463,-0.1995,-0.1961,-0.1875,-0.1982,-0.1869,-0.1912,-0.599,-0.5061,-0.501,-0.4923,-0.4887,-0.466,-0.4508,-0.45,-0.4206,-0.4098,-0.4084,-0.3951,-0.3849,-0.37,-0.3553,-0.3289,-0.3149,-0.3732,-0.3995,-0.3655,-0.3511,-0.3425,-0.3262,-0.2649,-0.2231,-0.1955,-0.1507,-0.0622,0.0414,0.0746,0.0941,0.1076,0.1076,0.0739,0.0134,0.1074,0.2353,0.323,0.2889,0.2679,0.2874,0.3551,0.3756,0.3413,0.2746,0.2214,0.2083,0.2214,0.2278,0.2285,0.2254,0.2294,0.2339,0.2432,0.2591,0.2649,0.2423,0.2423,0.2503,0.2035,0.1721,0.1878,0.1566,0.1332,0.1332,0.1332,0.0704,-0.0156,-0.0469,-0.0781,-0.1249,-0.1873,-0.2676,-0.3445,-0.3791,-0.3904,-0.3917,-0.391,-0.3754,-0.3602,-0.3522,-0.3365,-0.3052,-0.2974,-0.2815,-0.2659,-0.2581,-0.2192,-0.1488,-0.1256,-0.11,-0.0549,-0.0078,-0.0,-0.0235,-0.0938,-0.1719,-0.1875,-0.1796,-0.2186,-0.2421,-0.2343,-0.2344,-0.2267,-0.2192,-0.2196,-0.1962,-0.1647,-0.1176,-0.0627,-0.0388,-0.0307,-0.0307,-0.0305,-0.0302,-0.4952,-0.4727,-0.4861,-0.4614,-0.439,-0.373,-0.3499,-0.3364,-0.2699,-0.2405,-0.2402,-0.2181,-0.2022,-0.1595,-0.1295,-0.0643,-0.0842,-0.2343,-0.2797,-0.2223,-0.1798,-0.1562,-0.1461,-0.0971,-0.048,-0.0,0.0538,0.1145,0.1889,0.1681,0.1477,0.1276,0.1478,0.1677,0.181,0.2546,0.3353,0.4105,0.4161,0.4348,0.4749,0.5027,0.5024,0.4749,0.4613,0.435,0.3959,0.4353,0.448,0.4547,0.4556,0.4878,0.4808,0.4961,0.5252,0.5115,0.4678,0.4761,0.5074,0.3515,0.2813,0.3125,0.2268,0.1801,0.1878,0.18,0.1644,0.1409,0.1409,0.1331,0.1252,0.1017,-0.0,-0.2034,-0.2815,-0.3129,-0.3368,-0.3616,-0.3387,-0.2514,-0.2198,-0.204,-0.1492,-0.1256,-0.1019,-0.047,-0.0313,-0.0078,0.0548,0.0706,0.1098,0.1176,0.1252,0.1329,0.1486,0.1644,0.1017,0.0626,0.0704,0.0625,0.0469,0.0391,0.0313,0.0313,0.0312,0.0312,0.0234,0.0625,0.0704,0.1096,0.117,0.1245,0.1314,0.1309,0.124,-0.3158,-0.3094,-0.2704,-0.2566,-0.2474,-0.182,-0.1601,-0.1597,-0.1216,-0.1136,-0.1061,-0.0765,-0.0689,-0.0621,-0.0138,0.0069,-0.0068,-0.0274,-0.0275,-0.0344,-0.0414,-0.0275,-0.0068,0.0068,0.0743,0.1609,0.2078,0.295,0.3959,0.3818,0.368,0.368,0.3613,0.3611,0.3476,0.4013,0.459,0.5154,0.4867,0.4922,0.5413,0.5202,0.5084,0.5348,0.5348,0.5282,0.5087,0.4882,0.4815,0.4812,0.4812,0.4898,0.5072,0.5215,0.5353,0.5403,0.5345,0.5309,0.5467,0.4996,0.4606,0.4761,0.445,0.4295,0.4295,0.4137,0.3906,0.3515,0.3437,0.3439,0.3281,0.2423,0.1486,0.0235,-0.0157,-0.047,-0.0548,-0.047,-0.0157,-0.0,0.0078,0.0235,0.0392,0.047,0.0549,0.0861,0.094,0.1175,0.1332,0.1645,0.1332,0.1332,0.1876,0.2727,0.2882,0.3505,0.3893,0.3115,0.2885,0.2734,0.2657,0.2663,0.2668,0.266,0.2652,0.2649,0.265,0.2575,0.2657,0.2504,0.2421,0.257,0.2794,0.2876,0.2963,-0.143,-0.1255,-0.0924,-0.0785,-0.0707,-0.0353,-0.0283,-0.0282,-0.0208,-0.0069,0.0137,0.0473,0.067,0.0871,0.1405,0.1674,0.1674,0.2206,0.2272,0.2006,0.1338,0.1205,0.1471,0.1806,0.214,0.2874,0.3411,0.4217,0.5302,0.502,0.4815,0.4749,0.4812,0.468,0.4544,0.4882,0.5339,0.5609,0.5466,0.5596,0.5862,0.5666,0.5679,0.6207,0.6272,0.6465,0.6597,0.6326,0.5935,0.5477,0.5415,0.549,0.5638,0.5748,0.5885,0.6077,0.6184,0.6256,0.6307,0.6086,0.6012,0.5938,0.578,0.5544,0.5547,0.5547,0.5309,0.4991,0.4838,0.4838,0.4686,0.4139,0.3281,0.2969,0.1802,0.149,0.1566,0.1643,0.1565,0.1488,0.1566,0.1644,0.1644,0.1644,0.1957,0.2268,0.2429,0.2663,0.2741,0.2976,0.2898,0.3125,0.4037,0.4421,0.4267,0.52,0.6451,0.5832,0.498,0.452,0.4137,0.4153,0.4162,0.4283,0.4337,0.4353,0.4358,0.4208,0.4135,0.3904,0.3984,0.4361,0.4735,0.4737,0.475,0.007,0.0404,0.0482,0.0619,0.0674,0.074,0.0809,0.0739,0.0738,0.1074,0.1472,0.174,0.2138,0.2871,0.3274,0.368,0.4217,0.4148,0.4281,0.4209,0.3606,0.3135,0.307,0.3609,0.388,0.3944,0.4478,0.5017,0.5561,0.5348,0.4945,0.5209,0.5338,0.5074,0.5338,0.5543,0.5888,0.5992,0.63,0.6556,0.6655,0.6552,0.6806,0.7456,0.7517,0.7712,0.8096,0.8096,0.7707,0.6741,0.6539,0.6618,0.6767,0.6821,0.7004,0.7155,0.7286,0.7409,0.7439,0.7099,0.6791,0.6795,0.6247,0.5702,0.5864,0.5938,0.5928,0.5764,0.577,0.5777,0.5774,0.5541,0.5389,0.5234,0.3363,0.2348,0.2348,0.2503,0.2656,0.2578,0.2423,0.2501,0.2734,0.281,0.3431,0.4213,0.4618,0.4943,0.5251,0.541,0.5659,0.5941,0.62,0.6388,0.6301,0.6958,0.8134,0.7749,0.7049,0.6667,0.6069,0.5941,0.6177,0.628,0.6013,0.6043,0.614,0.6066,0.5996,0.6005,0.6234,0.6535,0.6528,0.6447,0.6374,0.0948,0.1138,0.1885,0.2218,0.2338,0.2673,0.2808,0.2874,0.2808,0.2874,0.3141,0.3411,0.3542,0.354,0.4209,0.4417,0.4553,0.5017,0.5282,0.5415,0.5543,0.4942,0.4475,0.4547,0.4882,0.5147,0.5411,0.5617,0.6152,0.6535,0.6728,0.6793,0.7111,0.7233,0.7158,0.7367,0.7518,0.7332,0.77,0.7992,0.8097,0.7977,0.8042,0.8166,0.8231,0.8361,0.849,0.849,0.8361,0.8037,0.7967,0.7992,0.7951,0.8096,0.8038,0.7923,0.8457,0.8714,0.838,0.825,0.8102,0.8056,0.7383,0.7019,0.7019,0.7015,0.7011,0.7011,0.7015,0.7011,0.6934,0.663,0.6254,0.5649,0.4929,0.453,0.4545,0.4696,0.4678,0.4737,0.467,0.4908,0.5289,0.5517,0.5822,0.6674,0.6945,0.6991,0.7208,0.7334,0.7326,0.7557,0.7816,0.82,0.8552,0.908,0.9502,0.9427,0.9185,0.909,0.8514,0.8093,0.8537,0.8878,0.7824,0.7526,0.8036,0.8295,0.8241,0.7949,0.7931,0.7914,0.8062,0.8058,0.7914,0.2673,0.2804,0.3405,0.3673,0.3739,0.401,0.4146,0.4146,0.4146,0.4345,0.4544,0.4749,0.4882,0.4878,0.5282,0.5418,0.5286,0.6009,0.6404,0.6535,0.6994,0.6728,0.6133,0.5935,0.6264,0.6789,0.6793,0.699,0.7326,0.7717,0.7907,0.7907,0.8296,0.828,0.7733,0.828,0.8479,0.8367,0.8484,0.863,0.9057,0.8695,0.9134,0.9424,0.9558,0.95,1.0066,1.0186,0.9748,0.8801,0.849,0.849,0.8511,0.8721,0.8748,0.8554,0.9206,0.9379,0.9276,0.91,0.9025,0.8941,0.8431,0.8189,0.8123,0.811,0.813,0.8102,0.8245,0.8323,0.828,0.8107,0.7799,0.7606,0.7415,0.7007,0.618,0.5938,0.6217,0.6426,0.6587,0.6846,0.7604,0.7753,0.8129,0.8514,0.8699,0.8727,0.8732,0.8841,0.9044,0.9357,0.9921,1.0341,1.09,1.1506,1.1717,1.1575,1.1421,1.1335,1.045,0.997,0.9981,1.0093,0.9409,0.916,0.9756,1.0045,0.969,0.9463,0.9377,0.9437,0.9653,0.9502,0.9362,0.4616,0.4882,0.4951,0.4948,0.4948,0.4945,0.5014,0.5014,0.5143,0.5411,0.5741,0.5877,0.6203,0.6613,0.6671,0.6609,0.6675,0.726,0.7451,0.7712,0.8037,0.8032,0.7897,0.7512,0.7707,0.8161,0.849,0.8361,0.8361,0.8549,0.8748,0.8935,0.8994,0.8645,0.867,0.8896,0.9139,0.956,0.953,0.9627,0.9919,0.9703,1.0123,1.1058,1.094,1.124,1.1956,1.222,1.1479,0.9215,0.8986,0.9315,0.9215,0.9346,0.9468,0.9642,1.0022,1.0256,1.0029,0.984,0.9688,0.9683,0.9304,0.9127,0.903,0.9,0.8995,0.9039,0.9367,0.938,0.9437,0.9638,0.9679,0.959,0.9846,0.8974,0.7749,0.708,0.7367,0.8125,0.8321,0.8652,0.919,0.9497,0.9718,1.0977,1.1037,1.1039,1.1049,1.1077,1.1255,1.1471,1.2065,1.2755,1.3279,1.392,1.4045,1.4004,1.378,1.3389,1.1952,1.1396,1.123,1.1069,1.1144,1.1353,1.163,1.1613,1.1186,1.0893,1.072,1.1081,1.1372,1.0938,1.0726,0.5348,0.5481,0.5885,0.6083,0.6083,0.6017,0.6083,0.6083,0.6666,0.6924,0.719,0.7577,0.7837,0.7972,0.7907,0.8032,0.8032,0.8291,0.8296,0.8291,0.8361,0.9122,0.9372,0.893,0.849,0.8683,0.8554,0.8554,0.8801,0.9627,1.0066,1.0129,1.0843,1.1064,1.0243,1.0885,1.164,1.1772,1.1663,1.156,1.1692,1.163,1.1755,1.2313,1.2182,1.2438,1.2822,1.3004,1.2804,1.2595,1.2245,1.1998,1.1891,1.2255,1.2016,1.1497,1.1784,1.1847,1.1125,1.0896,1.0787,1.0795,1.0335,0.9702,0.9697,0.9813,0.9779,0.973,0.9761,1.0114,1.0222,0.9985,1.0421,1.0875,1.1007,1.0983,1.0834,1.0381,1.0278,1.0837,1.1132,1.1537,1.2225,1.2231,1.2611,1.3295,1.3462,1.352,1.3375,1.3165,1.3266,1.3208,1.3621,1.4159,1.4684,1.518,1.5483,1.5728,1.5649,1.5805,1.4339,1.3541,1.363,1.3484,1.3361,1.3506,1.3382,1.299,1.2551,1.2271,1.2137,1.2345,1.2412,1.2137,1.2211,0.6924,0.6985,0.7256,0.7391,0.7391,0.7391,0.7391,0.7456,0.7777,0.7972,0.8042,0.8361,0.849,0.849,0.8554,0.8613,0.9116,0.9673,1.0116,1.0375,1.0438,1.0752,1.1135,1.0822,1.0375,1.0382,1.0438,1.0375,1.0634,1.1024,1.1454,1.1476,1.236,1.2218,1.1766,1.2578,1.3332,1.3725,1.3371,1.3195,1.3457,1.3195,1.3259,1.3584,1.3836,1.4144,1.4316,1.4333,1.4435,1.4564,1.4607,1.4187,1.3574,1.3749,1.3545,1.3207,1.3338,1.3487,1.2872,1.2608,1.2599,1.2499,1.1975,1.1793,1.1663,1.1708,1.1693,1.1727,1.1888,1.2012,1.2098,1.2171,1.2405,1.256,1.2712,1.3027,1.3439,1.2556,1.1919,1.2525,1.2618,1.3071,1.3628,1.3996,1.4004,1.4171,1.4171,1.4214,1.4145,1.4024,1.4505,1.4703,1.4972,1.5432,1.5895,1.6285,1.6627,1.6922,1.7179,1.7565,1.7292,1.6722,1.6404,1.5803,1.5108,1.4844,1.4654,1.4284,1.4124,1.4148,1.4011,1.373,1.3585,1.3867,1.4011,0.8678,0.8678,0.8554,0.849,0.849,0.849,0.8484,0.8613,0.8742,0.8988,0.8988,0.9052,0.95,0.9244,0.9308,0.9494,1.0116,1.0927,1.1688,1.2004,1.2074,1.2258,1.2458,1.2522,1.2631,1.2838,1.2437,1.2383,1.2383,1.2771,1.2869,1.2953,1.3353,1.3467,1.3268,1.381,1.4959,1.59,1.5174,1.4801,1.5103,1.4772,1.4836,1.5222,1.5606,1.5998,1.6102,1.6149,1.6131,1.6206,1.6534,1.5882,1.5033,1.4443,1.4519,1.4474,1.4646,1.4506,1.4258,1.4135,1.4103,1.4215,1.4117,1.4001,1.3914,1.4022,1.4093,1.4185,1.4304,1.4479,1.4864,1.4681,1.4856,1.5065,1.5113,1.5458,1.5679,1.4403,1.4151,1.3862,1.434,1.4696,1.4871,1.5092,1.5029,1.4966,1.4966,1.5037,1.5059,1.5205,1.5774,1.6374,1.6742,1.7151,1.76,1.7716,1.8065,1.8152,1.8556,1.8863,1.9359,1.8849,1.7988,1.7209,1.6585,1.6477,1.6336,1.6165,1.6087,1.607,1.5525,1.4807,1.5021,1.5596,1.5587,0.9296,0.9302,0.8742,0.849,0.8554,0.8554,0.8924,0.9366,0.9945,1.0501,1.0989,1.1556,1.1626,1.1688,1.1811,1.1881,1.1935,1.2373,1.252,1.2728,1.2797,1.2989,1.3595,1.3977,1.4205,1.4231,1.3873,1.3441,1.3418,1.3816,1.4345,1.4483,1.4947,1.5167,1.5204,1.5936,1.6844,1.7988,1.7396,1.7007,1.6987,1.6977,1.6904,1.7123,1.7269,1.7453,1.7792,1.7927,1.808,1.8446,1.8491,1.8318,1.7686,1.6884,1.6243,1.5844,1.5747,1.5675,1.5234,1.4846,1.4632,1.4678,1.5133,1.5401,1.5574,1.5851,1.6089,1.6169,1.6229,1.6276,1.6339,1.6365,1.672,1.7051,1.7274,1.7437,1.7909,1.7656,1.6803,1.624,1.6227,1.6306,1.6437,1.6567,1.6567,1.6551,1.6614,1.6827,1.7073,1.7102,1.7364,1.7988,1.8584,1.906,1.952,1.9444,1.9497,1.9497,1.9704,1.9736,2.0084,2.0019,1.9417,1.8885,1.8745,1.8792,1.8519,1.8044,1.7726,1.7552,1.6748,1.5869,1.6349,1.6895,1.6489,1.1058,1.0996,1.069,1.0564,1.0564,1.0564,1.0752,1.1066,1.1384,1.1695,1.2058,1.2373,1.2679,1.2854,1.2976,1.3097,1.3408,1.3502,1.3674,1.3856,1.4206,1.4646,1.5213,1.5713,1.6143,1.6373,1.5968,1.5387,1.5079,1.5551,1.5955,1.6402,1.6865,1.6638,1.6186,1.6886,1.8431,1.9512,1.9297,1.8669,1.8425,1.8425,1.8425,1.8425,1.8425,1.8495,1.862,1.8702,1.8796,1.8905,1.8967,1.9044,1.8844,1.8499,1.7833,1.7541,1.7404,1.7257,1.6964,1.6895,1.6945,1.6954,1.717,1.7404,1.7451,1.7707,1.7927,1.7955,1.7878,1.7881,1.79,1.7948,1.8105,1.8321,1.8542,1.8705,1.8954,1.9044,1.8731,1.8237,1.8045,1.7988,1.8085,1.8152,1.8162,1.8183,1.8184,1.8459,1.8795,1.8728,1.8598,1.9204,1.9722,2.0085,2.0523,2.0643,2.0835,2.0846,2.088,2.099,2.1058,2.1197,2.1186,2.0982,2.0933,2.0642,1.9889,1.9137,1.9112,1.9027,1.8439,1.8055,1.8055,1.7988,1.7648,1.281,1.2704,1.2573,1.2512,1.2512,1.2512,1.2626,1.2862,1.2862,1.3105,1.3287,1.3347,1.3631,1.3921,1.41,1.4287,1.4777,1.4949,1.5232,1.5552,1.6072,1.6685,1.7039,1.7532,1.7802,1.7677,1.8025,1.8045,1.7169,1.7194,1.7557,1.7805,1.8297,1.7924,1.7084,1.7931,1.9613,2.0368,2.0501,1.9811,1.9528,1.9431,1.9431,1.9441,1.9441,1.952,1.9749,1.9814,1.9879,1.9922,1.9933,1.9868,1.9738,1.9738,1.9738,1.9683,1.9299,1.9044,1.89,1.8834,1.8556,1.8489,1.9034,1.9166,1.9465,1.9509,1.9814,1.9738,1.9792,1.9781,1.9836,1.9792,1.9802,1.9866,1.9889,1.9771,1.9982,2.0153,2.0287,1.9998,1.9771,1.953,1.9333,1.8977,1.8844,1.8838,1.8836,1.9277,1.9572,1.9404,1.9446,2.0116,2.0666,2.1014,2.1366,2.162,2.188,2.2127,2.2187,2.2247,2.2368,2.2539,2.2476,2.2363,2.2142,2.1706,2.1001,2.0375,2.0109,2.0029,2.0117,1.989,1.9278,1.9212,1.9145,1.3897,1.3312,1.2818,1.2512,1.2634,1.2687,1.3226,1.4118,1.4168,1.4885,1.5535,1.5718,1.5708,1.5823,1.5823,1.5948,1.6148,1.6343,1.6627,1.69,1.745,1.778,1.7843,1.8102,1.8722,1.887,1.9071,1.8661,1.8541,1.8739,1.8806,1.9068,1.9167,1.8812,1.8802,1.921,2.0064,2.1034,2.1115,2.0978,2.088,2.088,2.088,2.088,2.0944,2.0996,2.1227,2.129,2.1479,2.1904,2.2027,2.2151,2.2212,2.2212,2.22,2.1581,2.044,1.9044,1.9233,1.9365,1.9365,1.9497,1.9694,2.015,2.0621,2.1323,2.1747,2.2212,2.2027,2.183,2.1705,2.1966,2.2071,2.1918,2.171,2.183,2.1933,2.1431,2.1561,2.1782,2.1608,2.0726,2.016,1.9814,1.9462,1.9459,1.9653,2.0172,2.0573,2.0662,2.0711,2.149,2.2116,2.2483,2.2503,2.2687,2.2892,2.3276,2.328,2.3296,2.3276,2.3353,2.3578,2.343,2.3133,2.2739,2.2189,2.1629,2.1218,2.1163,2.1307,2.0771,2.0031,2.0161,2.0655,1.5641,1.508,1.4777,1.465,1.465,1.4641,1.4944,1.5419,1.5467,1.5776,1.6244,1.6301,1.6472,1.6754,1.681,1.6981,1.7158,1.7248,1.7638,1.8341,1.8866,1.9404,2.0065,2.0494,2.0795,2.0631,2.0917,2.114,2.0723,2.0273,2.0246,2.0887,2.1003,2.0997,2.0553,2.0585,2.1272,2.1898,2.2097,2.1904,2.1806,2.1904,2.2002,2.199,2.1939,2.2063,2.2237,2.2298,2.2359,2.2604,2.2604,2.2604,2.2592,2.2592,2.2592,2.247,2.1705,2.1014,2.0771,2.0655,2.059,2.0655,2.091,2.129,2.1818,2.2262,2.2675,2.2592,2.2604,2.2652,2.2713,2.2604,2.2616,2.2678,2.3067,2.3043,2.3132,2.3085,2.2977,2.3242,2.342,2.2627,2.2042,2.1993,2.1892,2.1733,2.1788,2.2098,2.2491,2.2681,2.2812,2.3034,2.3579,2.4094,2.3993,2.404,2.3955,2.4155,2.382,2.3897,2.3824,2.3932,2.4305,2.4196,2.3781,2.3418,2.3221,2.2937,2.2575,2.2529,2.2494,2.2065,2.1694,2.2188,2.2567,1.7268,1.6708,1.6415,1.6301,1.6301,1.6301,1.6415,1.6698,1.6687,1.6856,1.7024,1.7135,1.7368,1.7645,1.7912,1.835,1.8555,1.835,1.8917,1.9772,2.0481,2.1131,2.1554,2.2237,2.2433,2.2652,2.2237,2.2372,2.2323,2.2039,2.1916,2.2604,2.2212,2.2323,2.2226,2.1897,2.2128,2.312,2.2604,2.236,2.2421,2.2555,2.2616,2.2616,2.2604,2.2652,2.2798,2.2798,2.2798,2.304,2.31,2.316,2.3327,2.3446,2.3539,2.3644,2.3369,2.3191,2.2664,2.2311,2.2175,2.2125,2.2273,2.2396,2.2665,2.2845,2.3,2.31,2.3361,2.3361,2.3301,2.3467,2.3813,2.3943,2.3975,2.3866,2.3894,2.4173,2.4473,2.4827,2.4995,2.5009,2.4617,2.4587,2.4421,2.4105,2.4107,2.4055,2.4137,2.4172,2.4308,2.4393,2.4998,2.5449,2.5488,2.5356,2.5287,2.512,2.4797,2.4794,2.5003,2.5067,2.5314,2.5032,2.4625,2.4846,2.5037,2.4533,2.3979,2.3579,2.3289,2.3598,2.3715,2.4079,2.4021,1.841,1.7865,1.6821,1.6415,1.6415,1.6301,1.6912,1.7743,1.7797,1.8255,1.8815,1.9093,1.8774,1.8917,1.9389,1.9873,2.0153,2.1149,2.1352,2.1643,2.2152,2.236,2.2652,2.2774,2.2834,2.2834,2.2955,2.316,2.3245,2.3292,2.2919,2.2665,2.2847,2.2921,2.2836,2.2737,2.2957,2.3485,2.2969,2.2701,2.2896,2.3092,2.3007,2.2738,2.2725,2.2798,2.3258,2.3378,2.3556,2.3923,2.4015,2.4176,2.4452,2.4567,2.4711,2.4924,2.5078,2.4827,2.4403,2.3382,2.2713,2.2689,2.2982,2.3381,2.3636,2.3839,2.3969,2.4047,2.4483,2.4754,2.5022,2.5425,2.5287,2.5258,2.5176,2.5298,2.5348,2.5584,2.5915,2.6332,2.6347,2.6172,2.6187,2.6011,2.566,2.5295,2.502,2.4967,2.4968,2.5039,2.5342,2.5621,2.6341,2.6755,2.685,2.673,2.6453,2.6347,2.6172,2.6312,2.6533,2.6554,2.6146,2.6269,2.6026,2.6472,2.6573,2.5689,2.4888,2.4235,2.4124,2.4684,2.4797,2.4854,2.4627,1.9052,1.8827,1.8375,1.8038,1.7831,1.8093,1.8471,1.8804,1.8804,1.8975,1.942,1.9433,1.9552,1.9792,2.0054,2.0724,2.1223,2.1617,2.2284,2.2727,2.3037,2.3245,2.3484,2.3872,2.4105,2.4034,2.4034,2.4105,2.4363,2.4305,2.4028,2.3721,2.3531,2.3556,2.3641,2.3628,2.3824,2.3837,2.3641,2.3543,2.3569,2.368,2.3654,2.3556,2.3543,2.3616,2.3865,2.4216,2.4447,2.4664,2.4921,2.5203,2.5481,2.5481,2.5687,2.5892,2.5986,2.5903,2.5563,2.45,2.3657,2.3708,2.4086,2.4503,2.4711,2.4872,2.5066,2.5329,2.5605,2.5823,2.5863,2.6011,2.604,2.6204,2.6385,2.6535,2.666,2.6755,2.6857,2.699,2.7004,2.6953,2.7071,2.7137,2.6756,2.6321,2.609,2.5869,2.5852,2.5911,2.624,2.652,2.7119,2.7445,2.7515,2.7545,2.7509,2.7444,2.7342,2.735,2.7307,2.707,2.6837,2.7053,2.7203,2.7121,2.687,2.6388,2.5934,2.5546,2.5617,2.6079,2.6011,2.5727,2.5508,1.994,1.985,1.9811,1.9512,1.9052,1.9263,1.946,1.9565,1.9552,1.9565,1.9617,1.9745,2.0032,2.0445,2.1082,2.1728,2.2557,2.307,2.3566,2.3961,2.4266,2.4319,2.465,2.4921,2.5077,2.5216,2.5216,2.5203,2.5203,2.5216,2.4978,2.4694,2.4593,2.4536,2.439,2.4549,2.4483,2.4178,2.4094,2.4385,2.4469,2.4607,2.4593,2.4593,2.4637,2.465,2.4751,2.4978,2.5147,2.5314,2.5563,2.5877,2.604,2.6147,2.6269,2.6414,2.652,2.6558,2.6293,2.5577,2.4854,2.4881,2.5084,2.5577,2.5795,2.5735,2.5697,2.6023,2.6293,2.6558,2.6558,2.682,2.7041,2.7255,2.7306,2.7395,2.742,2.7495,2.752,2.7595,2.7595,2.7645,2.771,2.776,2.7429,2.7004,2.6622,2.6538,2.6614,2.6755,2.7085,2.7303,2.764,2.7849,2.7959,2.8008,2.7974,2.7925,2.781,2.771,2.7625,2.7458,2.7509,2.767,2.7685,2.7549,2.7391,2.7225,2.711,2.6931,2.6938,2.6849,2.673,2.6453,2.6567,2.1205,2.0851,2.0769,2.0258,1.9565,1.942,1.9708,2.0144,2.0144,2.0144,2.0207,2.0562,2.0875,2.1354,2.2471,2.3326,2.4027,2.4902,2.5398,2.5315,2.5287,2.5563,2.5632,2.5687,2.5797,2.5797,2.5797,2.5797,2.5797,2.5851,2.5728,2.5673,2.5563,2.5412,2.5048,2.5467,2.5176,2.4327,2.434,2.4819,2.5591,2.5772,2.5772,2.5453,2.5508,2.5467,2.5508,2.5728,2.5892,2.5946,2.6147,2.652,2.6849,2.6953,2.7188,2.7625,2.774,2.784,2.779,2.673,2.6226,2.5997,2.6059,2.6272,2.627,2.6243,2.6341,2.6732,2.6975,2.7246,2.7515,2.7795,2.7974,2.8039,2.8024,2.8057,2.803,2.8,2.7978,2.8125,2.8253,2.8396,2.8396,2.8317,2.7981,2.7618,2.7218,2.715,2.7305,2.749,2.774,2.7913,2.8097,2.8306,2.8448,2.8462,2.8429,2.8396,2.8429,2.8383,2.8332,2.8296,2.8281,2.8314,2.8158,2.7941,2.8146,2.8317,2.8008,2.7715,2.7378,2.724,2.7174,2.721,2.7318,2.1819,2.171,2.169,2.1513,2.1175,2.0845,2.0993,2.1355,2.1403,2.1403,2.1547,2.1993,2.2556,2.3146,2.3813,2.4671,2.5256,2.5396,2.5783,2.5837,2.5892,2.5783,2.5892,2.6283,2.6404,2.6404,2.639,2.6496,2.6534,2.6534,2.6308,2.6201,2.6428,2.6215,2.5742,2.5825,2.5783,2.6143,2.5907,2.5783,2.6797,2.688,2.66,2.592,2.5986,2.604,2.6094,2.6414,2.664,2.6707,2.6901,2.7342,2.756,2.7675,2.779,2.8005,2.8054,2.8201,2.8201,2.7745,2.7363,2.7078,2.685,2.7034,2.741,2.71,2.7225,2.75,2.7815,2.8042,2.8122,2.8186,2.8314,2.8299,2.8299,2.8299,2.8301,2.8317,2.8332,2.8654,2.8842,2.9074,2.9136,2.9045,2.8732,2.8544,2.8217,2.7994,2.8097,2.8061,2.8201,2.8321,2.8497,2.8732,2.8856,2.8935,2.9059,2.909,2.9227,2.9348,2.9229,2.8999,2.8885,2.8819,2.8632,2.8411,2.8589,2.8668,2.8605,2.8334,2.811,2.8027,2.8027,2.8061,2.811,2.2634,2.2603,2.2452,2.2452,2.2498,2.1908,2.1813,2.2081,2.2081,2.2081,2.2208,2.2774,2.3378,2.4075,2.4967,2.5683,2.6172,2.6481,2.6587,2.6549,2.6602,2.6707,2.6826,2.6878,2.7152,2.7152,2.7152,2.7203,2.7291,2.7306,2.7137,2.7071,2.7188,2.7086,2.6759,2.6765,2.6986,2.7305,2.701,2.6884,2.7512,2.76,2.7363,2.6875,2.6707,2.6745,2.6849,2.7086,2.7437,2.7619,2.7821,2.8084,2.8118,2.8118,2.8152,2.8152,2.8201,2.8299,2.8348,2.8348,2.8008,2.7913,2.7667,2.7859,2.8338,2.8124,2.8389,2.8623,2.8826,2.8842,2.8842,2.8811,2.879,2.8838,2.8811,2.8858,2.8869,2.8883,2.8951,2.9257,2.9496,2.9673,2.9891,2.971,2.9502,2.938,2.9257,2.9107,2.8905,2.8779,2.8779,2.8857,2.8995,2.9225,2.9361,2.9467,2.9572,2.975,2.9837,2.9924,2.9738,2.9398,2.9391,2.9357,2.92,2.9044,2.8952,2.8967,2.9044,2.9104,2.9073,2.895,2.8904,2.8935,2.8919,2.3595,2.3508,2.3113,2.3143,2.3363,2.2589,2.2221,2.2175,2.2175,2.2235,2.232,2.3112,2.3877,2.4476,2.5625,2.644,2.6916,2.7575,2.7675,2.779,2.7575,2.774,2.774,2.779,2.774,2.784,2.7855,2.774,2.7955,2.789,2.789,2.789,2.789,2.779,2.774,2.7891,2.8017,2.8011,2.784,2.782,2.8237,2.8233,2.8192,2.8015,2.8096,2.8081,2.8167,2.8268,2.8258,2.8247,2.8305,2.8293,2.8345,2.8363,2.8396,2.8444,2.8525,2.8573,2.8621,2.8668,2.8795,2.8779,2.8638,2.8811,2.8919,2.8987,2.9154,2.931,2.9499,2.9572,2.9677,2.9607,2.9596,2.9594,2.9579,2.9615,2.9625,2.9639,2.9701,2.9886,3.0097,3.0323,3.0642,3.0544,3.0718,3.0778,3.0751,3.0658,3.0372,2.9537,2.9505,2.9499,2.9633,2.9742,2.9874,3.0076,3.0156,3.0326,3.0199,3.0199,3.0,2.9897,2.9847,2.9833,2.9785,2.9643,2.9428,2.9464,2.9705,2.9733,2.9777,2.9657,2.954,2.9717,2.9789,2.3595,2.3595,2.3465,2.3465,2.3566,2.3275,2.3187,2.3187,2.3187,2.3452,2.4044,2.4756,2.5239,2.6206,2.704,2.7465,2.768,2.7855,2.7905,2.8005,2.8054,2.8005,2.8005,2.8005,2.8005,2.802,2.802,2.8069,2.8152,2.8201,2.8299,2.8266,2.8458,2.8409,2.8452,2.8759,2.879,2.8728,2.8556,2.8641,2.8981,2.9138,2.9261,2.9399,2.9511,2.9511,2.9526,2.9607,2.9623,2.9669,2.9269,2.9169,2.9546,2.9218,2.8951,2.9364,2.9409,2.9409,2.9409,2.938,2.9518,2.9637,2.9496,2.9476,2.9576,2.9659,2.9723,2.9913,3.0011,3.0054,3.0054,3.0053,3.0023,3.0053,3.0113,3.0228,3.0299,3.0434,3.0495,3.0787,3.0991,3.1441,3.1715,3.1974,3.215,3.2278,3.227,3.2068,3.175,3.0892,3.05,3.0522,3.0527,3.0761,3.0658,3.0742,3.0783,3.0855,3.0875,3.0883,3.0792,3.0659,3.0435,3.0377,3.0461,3.0174,2.9745,2.9943,3.041,3.0401,3.0417,3.0267,3.0218,3.0385,3.0526,2.4124,2.4063,2.393,2.39,2.3921,2.3921,2.4017,2.4158,2.3837,2.4115,2.4911,2.5546,2.6288,2.6925,2.7625,2.8039,2.8039,2.8152,2.8152,2.8152,2.8201,2.8152,2.8152,2.8152,2.8152,2.8168,2.8168,2.8201,2.8348,2.8605,2.87,2.906,2.9155,2.892,2.8951,2.9689,3.0671,3.0415,3.011,2.9863,3.0018,3.0354,3.0592,3.0729,3.0857,3.0923,3.0923,3.0989,3.1024,3.1042,3.0508,3.0559,3.0847,3.0494,3.0318,3.0687,3.0703,3.0736,3.0736,3.0703,3.0612,3.0528,3.052,3.0474,3.0302,3.0278,3.0328,3.0427,3.0418,3.041,3.0368,3.0368,3.0384,3.0368,3.0608,3.0841,3.0999,3.1186,3.1437,3.1759,3.2194,3.2765,3.3094,3.3355,3.3355,3.3086,3.2967,3.2892,3.2722,3.2293,3.1926,3.1907,3.1867,3.1909,3.1739,3.1614,3.1823,3.2015,3.216,3.2075,3.1782,3.1704,3.1702,3.1484,3.1249,3.0976,3.0729,3.0898,3.121,3.1179,3.119,3.1162,3.1072,3.1067,3.1123,2.4916,2.4879,2.4548,2.4414,2.4446,2.4471,2.4752,2.5121,2.4431,2.4465,2.5253,2.5909,2.6626,2.7359,2.7972,2.8268,2.8381,2.8477,2.8525,2.8493,2.8653,2.8605,2.8525,2.8493,2.87,2.8573,2.8573,2.8748,2.8732,2.9108,2.9619,2.9939,3.0558,3.0346,2.9718,3.1005,3.2159,3.3047,3.2208,3.1628,3.1484,3.1742,3.2122,3.2126,3.2175,3.2159,3.2174,3.2172,3.2171,3.214,3.2059,3.2012,3.1895,3.1984,3.203,3.2014,3.2003,3.1987,3.197,3.1954,3.1907,3.1808,3.1739,3.1675,3.1491,3.0845,3.0737,3.0929,3.0955,3.1156,3.1182,3.1456,3.1587,3.1655,3.181,3.1945,3.2085,3.2283,3.2588,3.2892,3.3195,3.3711,3.4015,3.4235,3.4303,3.388,3.3795,3.3829,3.3778,3.3546,3.3267,3.3153,3.2824,3.2715,3.279,3.2731,3.2992,3.3203,3.3279,3.3017,3.2493,3.2695,3.3105,3.2603,3.2081,3.2073,3.195,3.195,3.188,3.1986,3.2002,3.2055,3.1966,3.1841,3.1617,2.5147,2.5105,2.5029,2.4997,2.5028,2.5028,2.5144,2.5394,2.5727,2.6046,2.6455,2.711,2.7643,2.8105,2.8306,2.8558,2.8858,2.892,2.8904,2.9044,2.9182,2.909,2.9044,2.9198,2.9364,2.9454,2.9454,2.946,2.9662,3.0116,3.0529,3.0774,3.1466,3.1424,3.1043,3.2476,3.3563,3.4816,3.4246,3.3193,3.2757,3.2757,3.2934,3.3275,3.3486,3.3502,3.3502,3.3519,3.3534,3.3501,3.3016,3.2735,3.2545,3.289,3.3048,3.3074,3.3111,3.3161,3.3178,3.3151,3.3054,3.299,3.2934,3.2909,3.2553,3.159,3.1185,3.1427,3.1613,3.1867,3.211,3.2474,3.2764,3.2844,3.3031,3.3076,3.3169,3.3457,3.3728,3.3964,3.4192,3.4462,3.4783,3.4979,3.5098,3.5115,3.5148,3.5165,3.5209,3.5052,3.4445,3.4185,3.3537,3.3403,3.366,3.3904,3.4182,3.3997,3.3928,3.3607,3.3279,3.3622,3.3968,3.3355,3.2896,3.2948,3.2818,3.2419,3.2435,3.2583,3.2568,3.2535,3.25,3.2398,3.2127,2.577,2.5758,2.5556,2.5503,2.554,2.5524,2.5726,2.6158,2.7118,2.7539,2.7531,2.8078,2.8561,2.895,2.9013,2.9059,2.9393,2.9393,2.9393,2.9528,2.9617,2.9572,2.9617,2.9722,2.9661,2.9826,3.021,3.0389,3.0718,3.1331,3.1802,3.2034,3.2685,3.297,3.2892,3.3614,3.4518,3.5512,3.5232,3.4742,3.403,3.4159,3.4242,3.4671,3.4673,3.4673,3.4721,3.4721,3.4721,3.4688,3.4386,3.4217,3.4186,3.4286,3.4411,3.4411,3.4385,3.437,3.4336,3.4269,3.4167,3.4015,3.3897,3.3812,3.3212,3.2384,3.2334,3.2544,3.256,3.278,3.278,3.3056,3.31,3.316,3.3626,3.3953,3.4273,3.4631,3.4776,3.4817,3.4986,3.5036,3.5301,3.5334,3.5436,3.5487,3.5639,3.5909,3.6089,3.6303,3.5776,3.537,3.4895,3.4881,3.5382,3.5469,3.5469,3.5134,3.4713,3.5008,3.5078,3.489,3.4747,3.437,3.412,3.3974,3.3719,3.3248,3.2942,3.2997,3.2961,3.2911,3.2924,3.2893,3.2616,2.6504,2.6468,2.6085,2.5977,2.6085,2.6068,2.6297,2.6877,2.8281,2.872,2.8489,2.8936,2.9398,2.9615,2.9793,2.9837,2.9881,2.9881,2.9881,2.9924,3.0011,3.0011,3.0011,3.0027,3.0254,3.0598,3.1084,3.149,3.1931,3.2573,3.3155,3.3609,3.3989,3.4317,3.4273,3.4728,3.5599,3.5571,3.5487,3.5532,3.556,3.5639,3.5481,3.5498,3.5639,3.5639,3.5577,3.5577,3.5577,3.5498,3.5374,3.5301,3.5234,3.5222,3.529,3.5318,3.5267,3.5318,3.5402,3.5318,3.5064,3.4827,3.4692,3.4414,3.3872,3.3761,3.371,3.3651,3.3685,3.3584,3.3584,3.3744,3.3786,3.3828,3.4391,3.4785,3.5178,3.5504,3.5565,3.5599,3.5671,3.5671,3.5749,3.5783,3.5817,3.5885,3.6048,3.6307,3.6569,3.6869,3.6781,3.6716,3.6611,3.6769,3.6882,3.6661,3.6391,3.6348,3.6068,3.6579,3.6834,3.6347,3.598,3.5769,3.5494,3.5193,3.4636,3.4068,3.3806,3.347,3.334,3.3288,3.3245,3.3187,3.3009,2.6657,2.664,2.6556,2.6539,2.6556,2.6556,2.6624,2.6962,2.8298,2.8938,2.9164,3.0096,3.0493,2.9793,2.9793,2.9968,3.0351,3.0351,3.0351,3.0393,3.0617,3.0576,3.0584,3.0742,3.1297,3.185,3.2386,3.2908,3.3194,3.3775,3.4182,3.4336,3.4996,3.5239,3.5273,3.5639,3.5639,3.5639,3.5639,3.5639,3.5639,3.5639,3.5639,3.5639,3.5639,3.5639,3.5622,3.5639,3.5622,3.5622,3.5639,3.5639,3.5667,3.5711,3.5694,3.5827,3.5827,3.5783,3.5827,3.5827,3.5547,3.5538,3.5419,3.5392,3.5215,3.5402,3.5249,3.495,3.4865,3.4465,3.4516,3.4955,3.5115,3.5125,3.5464,3.5453,3.5667,3.5793,3.5795,3.5968,3.6146,3.6305,3.6522,3.6498,3.6498,3.6568,3.6689,3.6911,3.7009,3.7305,3.7677,3.7778,3.7896,3.7611,3.7269,3.7251,3.7071,3.7175,3.7208,3.7288,3.7386,3.7466,3.7164,3.6834,3.6583,3.6286,3.567,3.4895,3.4348,3.3973,3.378,3.3652,3.3588,3.3488,3.3354]},{"header":{"parameterUnit":"m.s-1","parameterCategory":1,"la1":31.0,"la2":29.5877,"lo1":-88.7671,"lo2":-86.6584,"dy":0.0162,"dx":0.0185,"nx":115,"ny":88,"refTime":"2023-08-21T06:00:00:Z","depth":0,"parameterNumber":3,"parameterNumberName":"V-component_of_WINDS"},"data":[0.0,0.0,0.0,0.0,0.0,0.0,0.0,0.0,0.0,0.0,0.0,0.0,0.0,0.0,0.0,0.0,0.0,0.0,0.0,0.0,0.0,0.0,0.0,0.0,0.0,0.0,0.0,0.0,0.0,0.0,0.0,0.0,0.0,0.0,0.0,0.0,0.0,0.0,0.0,0.0,0.0,0.0,0.0,0.0,0.0,0.0,0.0,0.0,0.0,0.0,0.0,0.0,0.0,0.0,0.0,0.0,0.0,0.0,0.0,0.0,0.0,0.0,0.0,0.0,0.0,0.0,0.0,0.0,0.0,0.0,0.0,0.0,0.0,0.0,0.0,0.0,0.0,0.0,0.0,0.0,0.0,0.0,0.0,0.0,0.0,0.0,0.0,0.0,0.0,0.0,0.0,0.0,0.0,0.0,0.0,0.0,0.0,0.0,0.0,0.0,0.0,0.0,0.0,0.0,0.0,0.0,0.0,0.0,0.0,0.0,0.0,0.0,0.0,0.0,0.0,0.0,0.0,0.0,0.0,0.0,0.0,0.0,0.0,0.0,0.0,0.0,0.0,0.0,0.0,0.0,0.0,0.0,0.0,0.0,0.0,0.0,0.0,0.0,0.0,0.0,0.0,0.0,0.0,0.0,0.0,0.0,0.0,0.0,0.0,0.0,0.0,0.0,0.0,0.0,0.0,0.0,0.0,0.0,0.0,0.0,0.0,0.0,0.0,0.0,0.0,0.0,0.0,0.0,0.0,0.0,0.0,0.0,0.0,0.0,0.0,0.0,0.0,0.0,0.0,0.0,0.0,0.0,0.0,0.0,0.0,0.0,0.0,0.0,0.0,0.0,0.0,0.0,0.0,0.0,0.0,0.0,0.0,0.0,0.0,0.0,0.0,0.0,0.0,0.0,0.0,0.0,0.0,0.0,0.0,0.0,0.0,0.0,0.0,0.0,0.0,0.0,0.0,0.0,0.0,0.0,0.0,0.0,0.0,0.0,0.0,0.0,0.0,0.0,0.0,0.0,0.0,0.0,0.0,0.0,0.0,0.0,0.0,0.0,0.0,0.0,0.0,0.0,0.0,0.0,0.0,0.0,0.0,0.0,0.0,0.0,0.0,0.0,0.0,0.0,0.0,0.0,0.0,0.0,0.0,0.0,0.0,0.0,0.0,0.0,0.0,0.0,0.0,0.0,0.0,0.0,0.0,0.0,0.0,0.0,0.0,0.0,0.0,0.0,0.0,0.0,0.0,0.0,0.0,0.0,0.0,0.0,0.0,0.0,0.0,0.0,0.0,0.0,0.0,0.0,0.0,0.0,0.0,0.0,0.0,0.0,0.0,0.0,0.0,0.0,0.0,0.0,0.0,0.0,0.0,0.0,0.0,0.0,0.0,0.0,0.0,0.0,0.0,0.0,0.0,0.0,0.0,0.0,0.0,0.0,0.0,0.0,0.0,0.0,0.0,0.0,0.0,0.0,0.0,0.0,0.0,0.0,0.0,0.0,0.0,0.0,0.0,0.0,0.0,0.0,0.0,0.0,0.0,0.0,0.0,0.0,0.0,0.0,0.0,0.0,0.0,0.0,0.0,0.0,0.0,0.0,0.0,0.0,0.0,0.0,0.0,0.0,0.0,0.0,0.0,0.0,0.0,0.0,0.0,0.0,0.0,0.0,0.0,0.0,0.0,0.0,0.0,0.0,0.0,0.0,0.0,0.0,0.0,0.0,0.0,0.0,0.0,0.0,0.0,0.0,0.0,0.0,0.0,0.0,0.0,0.0,0.0,0.0,0.0,0.0,0.0,0.0,0.0,0.0,0.0,0.0,0.0,0.0,0.0,0.0,0.0,0.0,0.0,0.0,0.0,0.0,0.0,0.0,0.0,0.0,0.0,0.0,0.0,0.0,0.0,0.0,0.0,0.0,0.0,0.0,0.0,0.0,0.0,0.0,0.0,0.0,0.0,0.0,0.0,0.0,0.0,0.0,0.0,0.0,0.0,0.0,0.0,0.0,0.0,0.0,0.0,0.0,0.0,0.0,0.0,0.0,0.0,0.0,0.0,0.0,0.0,0.0,0.0,0.0,0.0,0.0,0.0,0.0,0.0,0.0,0.0,0.0,0.0,0.0,0.0,0.0,0.0,0.0,0.0,0.0,0.0,0.0,0.0,0.0,0.0,0.0,0.0,0.0,0.0,0.0,0.0,0.0,0.0,0.0,0.0,0.0,0.0,0.0,0.0,0.0,0.0,0.0,0.0,0.0,0.0,0.0,0.0,0.0,0.0,0.0,0.0,0.0,0.0,0.0,0.0,0.0,0.0,0.0,0.0,0.0,0.0,0.0,0.0,0.0,0.0,0.0,0.0,0.0,0.0,0.0,0.0,0.0,0.0,0.0,0.0,0.0,0.0,0.0,0.0,0.0,0.0,0.0,0.0,0.0,0.0,0.0,0.0,0.0,0.0,0.0,0.0,0.0,0.0,0.0,0.0,0.0,0.0,0.0,0.0,0.0,0.0,0.0,0.0,0.0,0.0,0.0,0.0,0.0,0.0,0.0,0.0,0.0,0.0,0.0,0.0,0.0,0.0,0.0,0.0,0.0,0.0,0.0,0.0,0.0,0.0,0.0,0.0,0.0,0.0,0.0,0.0,0.0,0.0,0.0,0.0,0.0,0.0,0.0,0.0,0.0,0.0,0.0,0.0,0.0,0.0,0.0,0.0,0.0,0.0,0.0,0.0,0.0,0.0,0.0,0.0,0.0,0.0,0.0,0.0,0.0,0.0,0.0,0.0,0.0,0.0,0.0,0.0,0.0,0.0,0.0,0.0,0.0,0.0,0.0,0.0,0.0,0.0,0.0,0.0,0.0,0.0,0.0,0.0,0.0,0.0,0.0,0.0,0.0,0.0,0.0,0.0,0.0,0.0,0.0,0.0,0.0,0.0,0.0,0.0,0.0,0.0,0.0,0.0,0.0,0.0,0.0,0.0,0.0,0.0,0.0,0.0,0.0,0.0,0.0,0.0,0.0,0.0,0.0,0.0,0.0,0.0,0.0,0.0,0.0,0.0,0.0,0.0,0.0,0.0,0.0,0.0,0.0,0.0,0.0,0.0,0.0,0.0,0.0,0.0,0.0,0.0,0.0,0.0,0.0,0.0,0.0,0.0,0.0,0.0,0.0,0.0,0.0,0.0,0.0,0.0,0.0,0.0,0.0,0.0,0.0,0.0,0.0,0.0,0.0,0.0,0.0,0.0,0.0,0.0,0.0,0.0,0.0,0.0,0.0,0.0,0.0,0.0,0.0,0.0,0.0,0.0,0.0,0.0,0.0,0.0,0.0,0.0,0.0,0.0,0.0,0.0,0.0,0.0,0.0,0.0,0.0,0.0,0.0,0.0,0.0,0.0,0.0,0.0,0.0,0.0,0.0,0.0,0.0,0.0,0.0,0.0,0.0,0.0,0.0,0.0,0.0,0.0,0.0,0.0,0.0,0.0,0.0,0.0,0.0,0.0,0.0,0.0,0.0,0.0,0.0,0.0,0.0,0.0,0.0,0.0,0.0,0.0,0.0,0.0,0.0,0.0,0.0,0.0,0.0,0.0,0.0,0.0,0.0,0.0,0.0,0.0,0.0,0.0,0.0,0.0,0.0,0.0,0.0,0.0,0.0,0.0,0.0,0.0,0.0,0.0,0.0,0.0,0.0,0.0,0.0,0.0,0.0,0.0,0.0,0.0,0.0,0.0,0.0,0.0,0.0,0.0,0.0,0.0,0.0,0.0,0.0,0.0,0.0,0.0,0.0,0.0,0.0,0.0,0.0,0.0,0.0,0.0,0.0,0.0,0.0,0.0,0.0,0.0,0.0,0.0,0.0,0.0,0.0,0.0,0.0,0.0,0.0,0.0,0.0,0.0,0.0,0.0,0.0,0.0,0.0,0.0,0.0,0.0,0.0,0.0,0.0,0.0,0.0,0.0,0.0,0.0,0.0,0.0,0.0,0.0,0.0,0.0,0.0,0.0,0.0,0.0,0.0,0.0,0.0,0.0,0.0,0.0,0.0,0.0,0.0,0.0,0.0,0.0,0.0,0.0,0.0,0.0,0.0,0.0,0.0,0.0,0.0,0.0,0.0,0.0,0.0,0.0,0.0,0.0,0.0,0.0,0.0,0.0,0.0,0.0,0.0,0.0,0.0,0.0,0.0,0.0,0.0,0.0,0.0,0.0,0.0,0.0,0.0,0.0,0.0,0.0,0.0,0.0,0.0,0.0,0.0,0.0,0.0,0.0,0.0,0.0,0.0,0.5168,0.0,0.0,0.0,0.0,0.0,0.0,0.0,0.0,0.0,0.0,0.0,0.0,0.0,0.0,0.0,0.0,0.0,0.0,0.0,0.0,0.0,0.0,0.0,0.0,0.0,0.0,0.0,0.0,0.0,0.0,0.0,0.0,0.0,0.0,0.0,0.0,0.0,0.0,0.0,0.0,0.0,0.0,0.0,0.0,0.0,0.0,0.0,0.0,0.0,0.0,0.0,0.0,0.0,0.0,0.0,0.0,0.0,0.0,0.0,0.0,0.0,0.0,0.0,0.0,0.0,0.0,0.0,0.0,0.0,0.0,0.0,0.0,0.0,0.0,0.0,0.0,0.0,0.0,0.0,0.0,0.0,0.0,0.0,0.0,0.0,0.0,0.0,0.0,0.0,0.0,0.0,0.0,0.0,0.0,0.0,0.0,0.0,0.0,0.0,0.0,0.0,0.0,0.0,0.0,0.0,0.0,0.0,0.0,0.0,0.0,0.8389,0.7698,0.7625,0.7165,0.6395,0.0,0.0,0.0,0.0,0.0,0.0,0.0,0.0,0.0,0.0,0.0,0.0,0.0,0.0,0.0,0.0,0.0,0.0,0.0,0.0,0.0,0.0,0.0,0.0,0.0,0.0,0.0,0.0,0.0,0.0,0.0,0.0,0.0,0.0,0.0,0.0,0.0,0.0,0.0,0.0,0.0,0.0,0.0,0.0,0.0,0.0,0.0,0.0,0.0,0.0,0.0,0.0,0.0,0.0,0.0,0.0,0.0,0.0,0.0,0.0,0.0,0.0,0.0,0.0,0.0,0.0,0.0,0.0,0.0,0.0,0.0,0.0,0.0,0.0,0.0,0.0,0.0,0.0,0.0,0.0,0.0,0.0,0.0,0.0,0.0,0.0,0.0,0.0,0.0,0.0,0.0,0.0,0.0,0.0,0.0,0.0,0.0,0.0,0.0,0.0,0.0,0.0,0.0,0.0,0.0,0.0,0.0,0.0,0.0,0.0,0.0,0.0,0.8466,0.7778,0.693,0.0,0.0,0.0,0.0,0.0,0.0,0.0,0.0,0.0,0.0,0.0,0.0,0.0,0.0,0.0,0.0,0.0,0.0,0.0,0.0,0.0,0.0,0.0,0.0,0.0,0.0,0.0,0.0,0.0,0.0,0.0,0.0,0.0,0.0,0.0,0.0,0.0,0.0,0.0,0.0,0.0,0.0,0.0,0.0,0.0,0.0,0.0,0.0,0.0,0.0,0.0,0.0,0.0,0.0,0.0,0.0,0.0,0.0,0.0,0.0,0.0,0.0,0.0,0.0,0.0,0.0,0.0,0.0,0.0,0.0,0.0,0.0,0.0,0.0,0.0,0.0,0.0,0.0,0.0,0.0,0.0,0.0,0.0,0.0,0.0,0.0,0.0,0.0,0.0,0.0,0.0,0.0,0.0,0.0,0.0,0.0,0.0,0.0,0.0,0.0,0.0,0.0,0.0,0.0,0.0,0.0,0.0,0.0,0.0,0.0,0.8012,0.6549,0.6472,0.0,0.526,0.0,0.0,0.0,0.0,0.0,0.0,0.0,0.0,0.0,0.0,0.0,0.0,0.0,0.0,0.0,0.0,0.0,0.0,0.0,0.0,0.0,0.0,0.0,0.0,0.0,0.0,0.0,0.0,0.0,0.0,0.0,0.0,0.0,0.0,0.0,0.0,0.0,0.0,0.0,0.0,0.0,0.0,0.0,0.0,0.0,0.0,0.0,0.0,0.0,0.0,0.0,0.0,0.0,0.0,0.0,0.0,0.0,0.0,0.0,0.0,0.0,0.0,0.0,0.0,0.0,0.0,0.0,0.0,0.0,0.0,0.0,0.0,0.0,0.0,0.0,0.0,0.0,0.0,0.0,0.0,0.0,0.0,0.0,0.0,0.0,0.0,0.0,0.0,0.0,0.0,0.0,0.0,0.0,0.0,0.0,0.0,0.0,0.0,0.0,0.0,0.0,0.0,0.0,0.0,0.0,0.0,0.0,0.0,0.0,0.0,0.9976,0.8983,0.794,0.7269,0.0,0.0,0.0,0.0,0.0,0.0,0.0,0.0,0.0,0.0,0.0,0.0,0.0,0.0,0.0,0.0,0.0,0.0,0.0,0.0,0.0,0.0,0.0,0.0,0.0,0.0,0.0,0.0,0.0,0.0,0.0,0.0,0.0,0.0,0.0,0.0,0.0,0.0,0.0,0.0,0.0,0.0,0.0,0.0,0.0,0.0,0.0,0.0,0.0,0.0,0.0,0.0,0.0,0.0,0.0,0.0,0.0,0.0,0.0,0.0,0.0,0.0,0.0,0.0,0.0,0.0,0.0,0.0,0.0,0.0,0.0,0.0,0.0,0.0,0.0,0.0,0.0,0.0,0.0,0.0,0.0,0.0,0.0,0.0,0.0,0.0,0.0,0.0,0.0,0.0,0.0,0.0,0.0,0.0,0.0,0.0,0.0,0.0,0.0,0.0,0.0,0.0,0.0,0.0,0.0,0.0,0.0,0.0,0.0,0.0,1.1409,1.1248,1.0714,0.915,0.7766,0.6736,0.0,0.0,0.0,0.0,0.0,0.0,0.0,0.0,0.0,0.0,0.0,0.0,0.0,0.0,0.0,0.0,0.0,0.0,0.0,0.0,0.0,0.0,0.0,0.0,0.0,0.0,0.0,0.0,0.0,0.0,0.0,0.0,0.0,0.0,0.0,0.0,0.0,0.0,0.0,0.0,0.0,0.0,0.0,0.0,0.0,0.0,0.0,0.0,0.0,0.0,0.0,0.0,0.0,0.0,0.0,0.0,0.0,0.0,0.0,0.0,0.0,0.0,0.0,0.0,0.0,0.0,0.0,0.0,0.0,0.0,0.0,0.0,0.0,0.0,0.0,0.0,0.0,0.0,0.0,0.0,0.0,0.0,0.0,0.0,0.0,0.0,0.0,0.0,0.0,0.0,0.0,0.0,0.0,0.0,0.0,0.0,0.0,0.0,0.0,0.0,0.0,0.0,0.0,0.0,0.0,0.0,0.0,0.0,1.2625,1.1533,1.0852,1.0787,0.92,0.6568,0.0,0.0,0.0,0.0,0.0,0.0,0.0,0.0,0.0,0.0,0.0,0.0,0.0,0.0,0.0,0.0,0.0,0.0,0.0,0.0,0.0,0.0,0.0,0.0,0.0,0.0,0.0,0.0,0.0,0.0,0.0,0.0,0.0,0.0,0.0,0.0,0.0,0.0,0.0,0.0,0.0,0.0,0.0,0.0,0.0,0.0,0.0,0.0,0.0,0.0,0.0,0.0,0.0,0.0,0.0,0.0,0.0,0.0,0.0,0.0,0.0,0.0,0.0,0.0,0.0,0.0,0.0,0.0,0.0,0.0,0.0,0.0,0.0,0.0,0.0,0.0,0.0,0.0,0.0,0.0,0.0,0.0,0.0,0.0,0.0,0.0,0.0,0.0,0.0,0.0,0.0,0.0,0.0,0.0,0.0,0.0,0.0,0.0,0.0,0.0,0.0,0.0,0.0,0.0,0.0,0.0,0.0,0.0,0.0,1.366,1.337,1.3255,1.3422,1.1917,0.8524,0.0,0.0,0.0,0.0,0.0,0.0,0.0,0.0,0.0,0.0,0.0,0.0,0.0,0.0,0.0,0.0,0.0,0.0,0.0,0.0,0.0,0.0,0.0,0.0,0.0,0.0,0.0,0.0,0.0,0.0,0.0,0.0,0.0,0.0,0.0,0.0,0.0,0.0,0.0,0.0,0.0,0.0,0.0,0.0,0.0,0.0,0.0,0.0,0.0,0.0,0.0,0.0,0.0,0.0,0.0,0.0,0.0,0.0,0.0,0.0,0.0,0.0,0.0,0.0,0.0,0.0,0.0,0.0,0.0,0.0,0.0,0.0,0.0,0.0,0.0,0.0,0.0,0.0,0.0,0.0,0.0,0.0,0.0,0.0,0.0,0.0,0.0,0.0,0.0,0.0,0.0,0.0,0.0,0.0,0.0,0.0,0.0,0.0,0.0,0.0,0.0,0.0,0.0,0.0,0.0,0.0,0.0,0.0,0.0,1.5532,0.0,1.7423,1.6717,1.4005,1.0091,0.0,0.0,0.0,0.0,0.0,0.0,0.0,0.0,0.0,0.0,0.0,0.0,0.0,0.0,0.0,0.0,0.0,0.0,0.0,0.0,0.0,0.0,0.0,0.0,0.0,0.0,0.0,0.0,0.0,0.0,0.0,0.0,0.0,0.0,0.0,0.0,0.0,0.0,0.0,0.0,0.0,0.0,0.0,0.0,0.0,0.0,0.0,0.0,0.0,0.0,0.0,0.0,0.0,0.0,0.0,0.0,0.0,0.0,0.0,0.0,0.0,0.0,0.0,0.0,0.0,0.0,0.0,0.0,0.0,0.0,0.0,0.0,0.0,0.0,0.0,0.0,0.0,0.0,0.0,0.0,0.0,0.0,0.0,0.0,0.0,0.0,0.0,0.0,0.0,0.0,0.0,0.0,0.0,0.0,0.0,0.0,0.0,0.0,0.0,0.0,0.0,0.0,0.0,0.0,0.0,0.0,0.0,0.0,1.6779,1.8227,2.1909,2.2233,2.0166,1.4768,1.0647,0.0,0.0,0.0,0.0,0.0,0.0,0.0,0.0,0.0,0.0,0.0,0.0,0.0,0.0,0.0,0.0,0.0,0.0,0.0,0.0,0.0,0.0,0.0,0.0,0.0,0.0,0.0,0.0,0.0,0.0,0.0,0.0,0.0,0.0,0.0,0.0,0.0,0.0,0.0,0.0,0.0,0.0,0.0,0.0,0.0,0.0,0.0,0.0,0.0,0.0,0.0,0.0,0.0,0.0,0.0,0.0,0.0,0.0,0.0,0.0,0.0,0.0,0.0,0.0,0.0,0.0,0.0,0.0,0.0,0.0,0.0,0.0,0.0,0.0,0.0,0.0,0.0,0.0,0.0,0.0,0.0,0.0,0.0,0.0,0.0,0.0,0.0,0.0,0.0,0.0,0.0,0.0,0.0,0.0,0.0,0.0,0.0,0.0,0.0,0.0,0.0,0.0,0.0,0.0,0.0,0.0,0.0,0.0,0.0,2.2536,1.9103,1.6433,1.4569,0.9381,0.3919,0.0,0.0,0.0,0.0,0.0,0.0,0.0,0.0,0.0,0.0,0.0,0.0,0.0,0.0,0.0,0.0,0.0,0.0,0.0,0.0,0.0,0.0,0.0,0.0,0.0,0.0,0.0,0.0,0.0,0.0,0.0,0.0,0.0,0.0,0.0,0.0,0.0,0.0,0.0,0.0,0.0,0.0,0.0,0.0,0.0,0.0,0.0,0.0,0.0,0.0,0.0,0.0,0.0,0.0,0.0,0.0,0.0,0.0,0.0,0.0,0.0,0.0,0.0,0.0,0.0,0.0,0.0,0.0,0.0,0.0,0.0,0.0,0.0,0.0,0.0,0.0,0.0,0.0,0.0,0.0,0.0,0.0,0.0,0.0,0.0,0.0,0.0,0.0,0.0,0.0,0.0,0.0,0.0,0.0,0.0,0.0,0.0,0.0,0.0,0.0,0.0,0.0,0.0,0.0,0.0,0.0,0.0,0.0,0.0,2.1753,1.7802,1.3747,0.9806,0.3715,-0.1711,-0.6227,0.0,0.0,0.0,0.0,0.0,0.0,0.0,0.0,0.0,0.0,0.0,0.0,0.0,0.0,0.0,0.0,0.0,0.0,0.0,0.0,0.0,0.0,0.0,0.0,0.0,0.0,0.0,0.0,0.0,0.0,0.0,0.0,0.0,0.0,0.0,0.0,0.0,0.0,0.0,0.0,0.0,0.0,0.0,0.0,0.0,0.0,0.0,0.0,0.0,0.0,0.0,0.0,0.0,0.0,0.0,0.0,0.0,0.0,0.0,0.0,0.0,0.0,0.0,0.0,0.0,0.0,0.0,0.0,0.0,0.0,0.0,0.0,0.0,0.0,0.0,0.0,0.0,0.0,0.0,0.0,0.0,0.0,0.0,0.0,0.0,0.0,0.0,0.0,0.0,0.0,0.0,0.0,0.0,0.0,0.0,0.0,0.0,0.0,0.0,0.0,0.0,0.0,0.0,0.0,0.0,0.0,0.0,0.0,1.6165,1.6636,1.2888,0.5044,-0.2207,-0.6512,0.0,0.0,0.0,0.0,0.0,0.0,0.0,0.0,0.0,0.0,0.0,0.0,0.0,0.0,0.0,0.0,0.0,0.0,0.0,0.0,0.0,0.0,0.0,0.0,0.0,0.0,0.0,0.0,0.0,0.0,0.0,0.0,0.0,0.0,0.0,0.0,0.0,0.0,0.0,0.0,0.0,0.0,0.0,0.0,0.0,0.0,0.0,0.0,0.0,0.0,0.0,0.0,0.0,0.0,0.0,0.0,0.0,0.0,0.0,0.0,0.0,0.0,0.0,0.0,0.0,0.0,0.0,0.0,0.0,0.0,0.0,0.0,0.0,0.0,0.0,0.0,0.0,0.0,0.0,0.0,0.0,0.0,0.0,0.0,0.0,0.0,0.0,0.0,0.0,0.0,0.0,0.0,0.0,0.0,0.0,0.0,0.0,0.0,0.0,0.0,0.0,0.0,0.0,0.0,0.0,0.0,0.0,0.0,0.0,0.3388,0.1017,-0.1415,-0.4353,-0.9471,-1.4337,0.0,0.0,0.0,0.0,0.0,0.0,0.0,0.0,0.0,0.0,0.0,0.0,0.0,0.0,0.0,0.0,0.0,0.0,0.0,0.0,0.0,0.0,0.0,0.0,0.0,0.0,0.0,0.0,0.0,0.0,0.0,0.0,0.0,0.0,0.0,0.0,0.0,0.0,0.0,0.0,0.0,0.0,0.0,0.0,0.0,0.0,0.0,0.0,0.0,0.0,0.0,0.0,0.0,0.0,0.0,0.0,0.0,0.0,0.0,0.0,0.0,0.0,0.0,0.0,0.0,0.0,0.0,0.0,0.0,0.0,0.0,0.0,0.0,0.0,0.0,0.0,0.0,0.0,0.0,0.0,0.0,0.0,0.0,0.0,0.0,0.0,0.0,0.0,0.0,0.0,0.0,0.0,0.0,0.0,0.0,0.0,0.0,0.0,0.0,0.0,0.0,0.0,0.0,0.0,0.0,0.0,0.0,0.0,0.5776,-0.308,-0.8304,-1.1864,-1.3701,-1.693,-2.0389,0.0,0.0,0.0,0.0,0.0,0.0,0.0,0.0,0.0,0.0,0.0,0.0,0.0,0.0,0.0,0.0,0.0,0.0,0.0,0.0,0.0,0.0,0.0,0.0,0.0,0.0,0.0,0.0,0.0,0.0,0.0,0.0,0.0,0.0,0.0,0.0,0.0,0.0,0.0,0.0,0.0,0.0,0.0,0.0,0.0,0.0,0.0,0.0,0.0,0.0,0.0,0.0,0.0,0.0,0.0,0.0,0.0,0.0,0.0,0.0,0.0,0.0,0.0,0.0,0.0,0.0,0.0,0.0,0.0,0.0,0.0,0.0,0.0,0.0,0.0,0.0,0.0,0.0,0.0,0.0,0.0,0.0,0.0,0.0,0.0,0.0,0.0,0.0,0.0,0.0,0.0,0.0,0.0,0.0,0.0,0.0,0.0,0.0,0.0,0.0,0.0,0.0,0.0,0.0,0.0,0.0,0.0,0.0,-0.2774,-0.5992,-1.3478,-1.8761,-2.1635,-2.3371,-2.4762,0.0,0.0,0.0,0.0,0.0,0.0,0.0,0.0,0.0,0.0,0.0,0.0,0.0,0.0,0.0,0.0,0.0,0.0,0.0,0.0,0.0,0.0,0.0,0.0,0.0,0.0,0.0,0.0,0.0,0.0,0.0,0.0,0.0,0.0,0.0,0.0,0.0,0.0,0.0,0.0,0.0,0.0,0.0,0.0,0.0,0.0,0.0,0.0,0.0,0.0,0.0,0.0,0.0,0.0,0.0,0.0,0.0,0.0,0.0,0.0,0.0,0.0,0.0,0.0,0.0,0.0,0.0,0.0,0.0,0.0,0.0,0.0,0.0,0.0,0.0,0.0,0.0,0.0,0.0,0.0,0.0,0.0,0.0,0.0,0.0,0.0,0.0,0.0,0.0,0.0,0.0,0.0,0.0,0.0,0.0,0.0,0.0,0.0,0.0,0.0,0.0,0.0,0.0,0.0,0.0,0.0,0.0,0.0,-0.6697,-1.3695,-1.7556,-2.0233,-2.1752,-2.3097,-2.5082,0.0,0.0,0.0,0.0,0.0,0.0,0.0,0.0,0.0,0.0,0.0,0.0,0.0,0.0,0.0,0.0,0.0,0.0,0.0,0.0,0.0,0.0,0.0,0.0,0.0,0.0,0.0,0.0,0.0,0.0,0.0,0.0,0.0,0.0,0.0,0.0,0.0,0.0,0.0,0.0,0.0,0.0,0.0,0.0,0.0,0.0,0.0,0.0,-0.4307,0.0,0.0,0.0,0.0,0.0,0.0,0.0,0.0,0.0,0.0,0.0,0.0,0.0,0.0,0.0,0.0,0.0,0.0,0.0,0.0,0.0,0.0,0.0,0.0,0.0,0.0,0.0,0.0,0.0,0.0,0.0,0.0,0.0,0.0,0.0,0.0,0.0,0.0,0.0,0.0,0.0,0.0,0.0,0.0,0.0,0.0,0.0,0.0,0.0,0.0,0.0,0.0,0.0,0.0,0.0,0.0,0.0,0.0,0.0,-1.0905,-1.6358,-1.892,-2.0868,-2.2289,-2.3531,-2.5227,0.0,0.0,0.0,0.0,0.0,0.0,0.0,0.0,0.0,0.0,0.0,0.0,0.0,0.0,0.0,0.0,0.0,0.0,0.0,0.0,0.0,0.0,0.0,0.0,0.0,0.0,0.0,0.0,0.0,0.0,0.0,0.0,0.0,0.0,0.0,0.0,0.0,0.0,0.0,0.0,0.0,0.0,0.0,0.0,0.0,0.0,0.0,0.0,0.0,0.0,0.0,0.0,0.0,0.0,0.0,0.0,0.0,0.0,0.0,0.0,0.0,0.0,0.0,0.0,0.0,0.0,0.0,0.0,0.0,0.0,0.0,0.0,0.0,0.0,0.0,0.0,0.0,0.0,0.0,0.0,0.0,0.0,0.0,0.0,0.0,0.0,0.0,0.0,0.0,0.0,0.0,0.0,0.0,0.0,0.0,0.0,0.0,0.0,0.0,0.0,0.0,0.0,0.0,0.0,0.0,0.0,0.0,-0.9228,-1.4699,-1.7181,-1.9246,-2.1142,-2.2863,-2.4096,-2.5314,-2.6493,0.0,0.0,0.0,0.0,0.0,0.0,0.0,0.0,0.0,0.0,0.0,0.0,0.0,0.0,0.0,0.0,0.0,0.0,0.0,0.0,0.0,0.0,0.0,0.0,0.0,0.0,0.0,0.0,0.0,0.0,0.0,0.0,0.0,0.0,0.0,0.0,0.0,0.0,1.3078,1.2763,0.0,0.0,0.0,0.0,0.0,0.0,0.0,0.0,-1.036,0.0,0.0,0.0,0.0,0.0,0.0,0.0,0.0,0.0,0.0,0.0,0.0,0.0,0.0,0.0,0.0,0.0,0.0,0.0,0.0,0.0,0.0,0.0,0.0,0.0,0.0,0.0,0.0,0.0,0.0,0.0,0.0,0.0,0.0,0.0,0.0,0.0,0.0,0.0,0.0,0.0,0.0,0.0,0.0,0.0,0.0,0.0,0.0,0.0,0.0,0.0,0.0,0.0,0.0,0.0,0.0,-0.304,-1.1127,-1.6574,-1.8976,-2.0374,-2.1676,-2.2876,-2.4282,-2.5473,-2.6553,0.0,0.0,0.0,0.0,0.0,0.0,0.0,0.0,0.0,0.0,0.0,0.0,0.0,0.0,0.0,0.0,0.0,0.0,0.0,0.0,0.0,0.0,0.0,0.0,0.0,0.0,0.0,0.0,0.0,0.0,0.0,0.0,0.0,0.0,0.0,0.0,0.0,0.0,0.0,1.5471,1.5142,0.0,0.0,0.0,0.0,0.0,0.0,0.0,0.0,-1.4222,0.0,0.0,0.0,0.0,0.0,0.0,0.0,0.0,0.0,0.0,0.0,0.0,0.0,0.0,0.0,0.0,0.0,0.0,0.0,0.0,0.0,0.0,0.0,0.0,0.0,0.0,0.0,0.0,0.0,0.0,0.0,0.0,0.0,0.0,0.0,0.0,0.0,0.0,0.0,0.0,0.0,0.0,0.0,0.0,0.0,0.0,0.0,0.0,0.0,0.0,0.0,0.0,0.0,0.0,0.0,-0.902,-1.3722,-1.7255,-1.9273,-2.0765,-2.2085,-2.3332,-2.4585,-2.5867,0.0,0.0,0.0,0.0,0.0,0.0,0.0,0.0,0.0,0.0,0.0,0.0,0.0,0.0,0.0,0.0,0.0,0.0,0.0,0.0,0.0,0.0,0.0,0.0,0.0,0.0,0.0,0.0,0.0,0.0,0.0,0.0,0.0,0.0,0.0,0.0,0.0,0.0,0.0,0.0,1.8182,1.8422,1.9577,0.0,0.0,0.0,0.0,0.0,0.0,-1.7477,-1.9931,0.0,0.0,0.0,0.0,0.0,0.0,0.0,0.0,0.0,0.0,0.0,0.0,0.0,0.0,0.0,0.0,0.0,0.0,0.0,0.0,0.0,0.0,0.0,0.0,0.0,0.0,0.0,0.0,0.0,0.0,0.0,0.0,0.0,0.0,0.0,0.0,0.0,0.0,0.0,0.0,0.0,0.0,0.0,0.0,0.0,0.0,0.0,0.0,0.0,0.0,0.0,0.0,0.0,0.0,0.0,-1.4245,-1.6033,-1.7781,-1.9492,-2.0921,-2.235,-2.3773,-2.4839,-2.6098,0.0,0.0,0.0,0.0,0.0,0.0,0.0,0.0,0.0,0.0,0.0,0.0,0.0,0.0,0.0,0.0,0.0,0.0,0.0,0.0,0.0,0.0,0.0,0.0,0.0,0.0,0.0,0.0,0.0,0.0,0.0,0.0,0.0,0.0,0.0,0.0,0.0,0.0,0.0,0.0,0.0,2.1285,2.2123,2.701,0.0,0.0,0.0,0.0,-1.8434,-2.1288,0.0,0.0,0.0,0.0,0.0,0.0,0.0,0.0,0.0,0.0,0.0,0.0,0.0,0.0,0.0,0.0,0.0,0.0,0.0,0.0,0.0,0.0,0.0,0.0,0.0,0.0,0.0,0.0,0.0,0.0,0.0,0.0,0.0,0.0,0.0,0.0,0.0,0.0,0.0,0.0,0.0,0.0,0.0,0.0,0.0,0.0,0.0,0.0,0.0,0.0,0.0,0.0,0.0,0.0,0.0,0.0,-1.6479,-1.7368,-1.8819,-2.0841,-2.1299,-2.2291,-2.3834,-2.487,-2.5977,0.0,0.0,0.0,0.0,0.0,0.0,0.0,0.0,0.0,0.0,0.0,0.0,0.0,0.0,0.0,0.0,0.0,0.0,0.0,0.0,0.0,0.0,0.0,0.0,0.0,0.0,0.0,0.0,0.0,0.0,0.0,0.0,0.0,0.0,0.0,0.0,0.0,0.0,0.0,0.0,0.0,2.2635,1.9033,2.5453,2.3491,0.0,0.0,-2.0887,-2.1663,-2.3652,0.0,0.0,0.0,0.0,0.0,0.0,0.0,0.0,0.0,0.0,0.0,0.0,0.0,0.0,0.0,0.0,0.0,0.0,0.0,0.0,0.0,0.0,0.0,0.0,0.0,0.0,0.0,0.0,0.0,0.0,0.0,0.0,0.0,0.0,0.0,0.0,0.0,0.0,0.0,0.0,0.0,0.0,0.0,0.0,0.0,0.0,0.0,0.0,0.0,0.0,0.0,0.0,0.0,0.0,0.0,-1.6265,-1.7904,-1.8737,-1.9788,-2.1077,-2.2101,-2.3082,-2.4059,-2.5389,-2.6505,0.0,0.0,0.0,0.0,0.0,0.0,0.0,0.0,0.0,0.0,0.0,0.0,0.0,0.0,0.0,0.0,0.0,0.0,0.0,0.0,0.0,0.0,0.0,0.0,0.0,0.0,0.0,0.0,0.0,0.0,0.0,0.0,0.0,0.0,0.0,0.0,0.0,0.0,0.0,0.0,0.0,0.0,1.6517,1.0567,0.0,0.0,0.0,-2.0847,-2.1524,0.0,0.0,0.0,0.0,0.0,0.0,0.0,0.0,0.0,0.0,0.0,0.0,0.0,0.0,0.0,0.0,0.0,0.0,0.0,0.0,0.0,0.0,0.0,0.0,0.0,0.0,0.0,0.0,0.0,0.0,0.0,0.0,0.0,0.0,0.0,0.0,0.0,0.0,0.0,0.0,0.0,0.0,0.0,0.0,0.0,0.0,0.0,0.0,0.0,0.0,0.0,0.0,0.0,0.0,0.0,0.0,0.0,-1.9178,-1.9915,-2.0716,-2.1602,-2.2818,-2.3857,-2.4649,-2.5917,0.0,0.0,0.0,0.0,0.0,0.0,0.0,0.0,0.0,0.0,0.0,0.0,0.0,0.0,0.0,0.0,0.0,0.0,0.0,0.0,0.0,0.0,0.0,0.0,0.0,0.0,0.0,0.4691,0.0,0.0,0.0,0.0,0.0,0.0,0.0,0.0,0.0,0.0,0.0,0.0,0.0,0.0,1.8146,1.1692,-0.2585,-0.9197,0.0,0.0,-2.1154,-2.1599,-2.3582,-2.5345,0.0,0.0,0.0,0.0,0.0,0.0,0.0,0.0,0.0,0.0,0.0,0.0,0.0,0.0,0.0,0.0,0.0,0.0,0.0,0.0,0.0,0.0,0.0,0.0,0.0,0.0,0.0,0.0,0.0,0.0,0.0,0.0,0.0,0.0,0.0,0.0,0.0,0.0,0.0,0.0,0.0,0.0,0.0,0.0,0.0,0.0,0.0,0.0,0.0,0.0,0.0,0.0,0.0,0.0,-1.9101,-2.0584,-2.0746,-2.1602,-2.3259,-2.3447,-2.424,-2.5826,-2.637,-2.712,0.0,0.0,0.0,0.0,0.0,0.0,0.0,0.0,0.0,0.0,0.0,0.0,0.0,0.0,0.0,0.0,0.0,0.0,0.0,0.0,0.0,0.0,0.0,0.0,0.0,0.0,0.0,0.0,0.0,0.0,0.0,0.0,0.0,0.0,0.0,0.0,0.0,0.0,0.0,0.0,0.0,0.7124,0.265,-0.7808,-1.4038,0.0,-1.7027,-2.2346,-2.3049,-2.384,-2.4759,-2.5895,0.0,0.0,0.0,0.0,0.0,0.0,0.0,0.0,0.0,0.0,0.0,0.0,0.0,0.0,0.0,0.0,0.0,0.0,0.0,0.0,0.0,0.0,0.0,0.0,0.0,0.0,0.0,0.0,0.0,0.0,0.0,0.0,0.0,0.0,0.0,0.0,0.0,0.0,0.0,0.0,0.0,0.0,0.0,0.0,0.0,0.0,0.0,0.0,0.0,0.0,0.0,0.0,0.0,-2.032,-2.1166,-2.1766,-2.256,-2.349,-2.407,-2.4902,-2.5986,-2.6607,-2.7404,0.0,0.0,0.0,0.0,0.0,0.0,0.0,0.0,0.0,0.0,0.0,0.0,0.0,0.0,0.0,0.0,0.0,0.0,0.0,0.0,0.0,0.0,0.0,0.0,0.0,0.0,0.0,0.0,0.8568,0.894,-0.5951,0.0,0.0,0.0,0.0,0.0,0.0,0.0,0.0,0.0,0.0,-0.5599,-0.8636,-1.5109,0.0,0.0,-2.0708,-2.2798,-2.3219,-2.3768,-2.443,-2.5435,-2.6714,0.0,0.0,0.0,0.0,0.0,0.0,0.0,0.0,0.0,0.0,0.0,0.0,0.0,0.0,0.0,0.0,0.0,0.0,0.0,0.0,0.0,0.0,0.0,0.0,0.0,0.0,0.0,0.0,0.0,0.0,0.0,0.0,0.0,0.0,0.0,0.0,0.0,0.0,0.0,0.0,0.0,0.0,0.0,0.0,0.0,0.0,0.0,0.0,0.0,0.0,0.0,0.0,-2.1251,-2.1841,-2.2665,-2.3362,-2.3888,-2.4657,-2.5486,-2.6318,-2.697,-2.7648,0.0,0.0,0.0,0.0,0.0,0.0,0.0,0.0,0.0,0.0,0.0,0.0,0.0,0.0,0.0,0.0,0.0,0.0,0.0,0.0,0.0,0.0,0.0,0.0,0.0,0.0,0.0,0.0,0.2311,0.0794,-1.6891,0.0,0.0,0.0,0.0,0.0,0.0,0.0,0.0,0.0,0.0,-1.4146,-1.5763,-1.9766,-2.2509,-2.2235,-2.2648,-2.3096,-2.3452,-2.3688,-2.4104,-2.4921,0.0,0.0,0.0,0.0,0.0,0.0,0.0,0.0,0.0,0.0,0.0,0.0,0.0,0.0,0.0,0.0,0.0,0.0,0.0,0.0,0.0,0.0,0.0,0.0,0.0,0.0,0.0,0.0,0.0,0.0,-3.0551,0.0,0.0,0.0,0.0,0.0,0.0,0.0,0.0,0.0,0.0,0.0,0.0,0.0,0.0,0.0,0.0,0.0,0.0,0.0,0.0,0.0,0.0,-2.1874,-2.283,-2.3274,-2.3945,-2.4847,-2.5275,-2.6035,-2.7117,-2.7378,-2.7901,-2.8755,0.0,0.0,0.0,0.0,0.0,0.0,0.0,0.0,0.0,0.0,0.0,0.0,0.0,0.0,0.0,0.0,0.0,0.0,0.0,0.0,0.0,0.0,0.0,0.0,0.0,0.0,-0.8318,-0.7407,-1.0914,0.0,0.0,0.0,0.0,0.0,0.0,0.0,0.0,0.0,0.0,-1.6994,-1.7098,-1.7186,-2.0814,-2.3188,-2.2337,-2.2758,-2.3363,-2.3894,-2.3746,-2.3726,0.0,0.0,0.0,0.0,0.0,0.0,0.0,0.0,0.0,0.0,0.0,0.0,0.0,0.0,0.0,0.0,0.0,0.0,0.0,0.0,0.0,0.0,0.0,0.0,0.0,0.0,0.0,-3.0902,-3.1196,0.0,0.0,0.0,0.0,0.0,0.0,0.0,0.0,0.0,0.0,0.0,-2.4682,-2.4475,0.0,0.0,0.0,0.0,0.0,0.0,0.0,0.0,0.0,0.0,0.0,0.0,-2.268,-2.3303,-2.3764,-2.4446,-2.5275,-2.5656,-2.6265,-2.7181,-2.7589,-2.8314,-2.9282,0.0,0.0,0.0,0.0,0.0,0.0,0.0,0.0,0.0,0.0,0.0,0.0,0.0,0.0,0.0,0.0,0.0,0.0,0.0,0.0,0.0,0.0,0.0,0.0,0.0,-2.0361,0.0,0.0,0.0,0.0,0.0,0.0,0.0,0.0,0.0,0.0,0.0,-1.8725,-1.9221,-1.8709,-1.8556,-1.9351,-2.169,-2.332,0.0,0.0,0.0,0.0,0.0,0.0,0.0,0.0,0.0,0.0,0.0,0.0,0.0,0.0,-3.2135,-3.274,-3.2977,-3.3029,-3.3087,0.0,0.0,0.0,0.0,0.0,0.0,0.0,0.0,0.0,0.0,0.0,0.0,0.0,0.0,-3.1044,0.0,-3.0861,0.0,0.0,0.0,0.0,0.0,0.0,0.0,0.0,-2.7738,-2.6901,-2.5662,-2.5162,-2.4659,0.0,-2.3435,-2.2871,0.0,0.0,0.0,0.0,0.0,0.0,0.0,0.0,-2.3437,-2.3791,-2.4395,-2.5036,-2.5656,-2.6054,-2.659,-2.7369,-2.7954,-2.8706,-2.957,-2.9698,-2.9769,0.0,0.0,0.0,0.0,0.0,0.0,0.0,0.0,0.0,0.0,0.0,0.0,0.0,0.0,0.0,0.0,0.0,0.0,0.0,0.0,0.0,0.0,0.0,-2.2383,0.0,0.0,0.0,0.0,0.0,0.0,0.0,0.0,0.0,-2.0926,-2.0419,-2.0319,-2.0818,-2.0054,-1.9917,-2.1351,0.0,0.0,0.0,0.0,0.0,0.0,0.0,-2.5121,-2.556,-2.715,-2.8592,-2.9415,-3.0085,-3.0504,-3.0472,0.0,0.0,-3.2424,-3.2385,-3.2352,-3.2919,-3.2908,-3.2908,-3.3254,-3.3247,-3.308,0.0,0.0,0.0,0.0,0.0,0.0,0.0,0.0,-3.0804,-3.1162,0.0,-3.11,0.0,0.0,0.0,0.0,0.0,-2.9941,0.0,0.0,-2.8526,-2.77,-2.6949,-2.5691,-2.483,-2.4283,-2.3714,-2.3701,-2.4127,-2.2862,0.0,0.0,0.0,0.0,0.0,0.0,-2.4122,-2.4385,-2.5123,-2.568,-2.6021,-2.6471,-2.7068,-2.7713,-2.843,-2.9056,-2.957,-2.9472,-2.9551,-2.9869,-2.9716,0.0,0.0,0.0,0.0,0.0,0.0,0.0,0.0,0.0,0.0,0.0,0.0,0.0,0.0,0.0,0.0,0.0,0.0,0.0,0.0,-2.3317,0.0,0.0,0.0,0.0,0.0,0.0,0.0,0.0,0.0,0.0,-2.1643,-2.1465,-2.1527,-2.1835,0.0,0.0,0.0,0.0,-2.4103,-2.4267,-2.3966,-2.3988,-2.4843,-2.5304,-2.5764,-2.6518,0.0,0.0,-3.1162,-3.0959,-3.0597,-3.0568,-3.0675,-3.0971,-3.2301,-3.191,-3.1747,-3.2823,-3.2312,-3.1998,-3.2835,-3.2409,-3.174,-2.977,0.0,0.0,0.0,0.0,-3.0502,-3.0707,-3.0788,-3.1061,-3.1274,-3.1428,-3.1257,0.0,0.0,0.0,0.0,0.0,0.0,-2.9562,-2.8674,-2.8319,-2.7378,-2.6001,-2.5683,-2.5191,-2.4668,-2.4533,-2.4561,-2.4688,-2.4292,-2.4236,-2.4511,0.0,0.0,0.0,0.0,-2.4916,-2.5508,-2.5746,-2.6177,-2.6856,-2.721,-2.7754,-2.8482,-2.8821,-2.9185,-2.9589,-2.9551,-2.957,-2.9662,-2.9715,0.0,0.0,0.0,0.0,0.0,0.0,0.0,0.0,0.0,0.0,0.0,0.0,0.0,0.0,0.0,0.0,0.0,0.0,0.0,-2.4592,-2.4307,-2.421,0.0,0.0,0.0,0.0,0.0,0.0,0.0,0.0,0.0,-2.2799,-2.2603,-2.2683,0.0,0.0,-2.2406,-2.296,-2.3934,-2.4453,-2.3881,-2.4729,0.0,-2.6364,-2.6933,-2.7332,-2.7405,-2.8493,-2.9852,-3.1399,-3.1611,-3.1716,-3.2115,-3.2212,-3.2337,-3.2651,-3.2576,-3.24,-3.2354,-3.2302,-3.2266,-3.2282,-3.2071,-3.1896,-2.9957,-3.0011,-2.9881,-3.0097,-3.0502,-3.0723,-3.0868,-3.1004,-3.1218,-3.1372,-3.1504,-3.1521,-3.135,-3.1005,-3.0378,0.0,0.0,0.0,-2.9206,-2.8469,-2.8176,-2.7494,-2.6486,-2.6101,-2.5825,-2.5572,-2.5368,-2.5422,-2.5598,-2.5503,-2.5503,-2.5598,0.0,0.0,-2.5319,-2.5612,-2.587,-2.6232,-2.6403,-2.6825,-2.7487,-2.7926,-2.8404,-2.8887,-2.9044,-2.9225,-2.9512,-2.9531,-2.9513,-2.9513,-2.9589,-2.957,0.0,0.0,0.0,0.0,0.0,0.0,0.0,0.0,0.0,0.0,0.0,-2.7049,-2.6268,0.0,0.0,0.0,-2.5828,-2.5427,-2.5059,-2.5036,0.0,0.0,0.0,0.0,0.0,0.0,0.0,-2.4131,-2.4094,-2.4101,-2.4101,-2.4223,-2.4209,-2.3955,-2.4312,-2.4292,-2.3289,0.0,-2.5848,-2.4785,-2.571,-2.6978,-2.8233,-2.8426,-2.8549,-2.8984,-2.9955,-3.0865,-3.1671,-3.2117,-3.2475,-3.2809,-3.2911,-3.2889,-3.2889,-3.2885,-3.2811,-3.242,-3.2368,-3.2368,-3.2351,-3.2248,-3.2179,-3.0393,-3.0804,-3.0518,-3.0543,-3.0804,-3.0845,-3.1004,-3.1295,-3.1334,-3.1504,-3.18,-3.18,-3.1386,-3.0609,-2.9553,0.0,-3.0111,-2.9171,-2.8777,-2.8766,-2.8075,-2.7755,-2.7619,-2.6753,-2.6453,-2.6657,-2.6206,-2.6225,-2.6691,-2.6487,-2.6487,-2.6741,-2.63,-2.609,-2.6189,-2.6792,-2.7023,-2.6909,-2.7204,-2.7593,-2.8047,-2.8558,-2.891,-2.9089,-2.913,-2.9218,-2.9427,-2.9409,-2.9427,-2.9427,-2.9427,-2.9427,-2.9388,0.0,0.0,0.0,0.0,0.0,0.0,0.0,0.0,0.0,0.0,0.0,0.0,0.0,0.0,-2.6239,-2.5901,0.0,-2.5307,-2.5535,0.0,0.0,0.0,-2.5843,-2.6324,-2.5648,-2.51,-2.5076,0.0,0.0,-2.5438,-2.6037,-2.5885,-2.4338,-2.5835,-2.6329,-2.4214,-2.6483,-2.7929,-2.6745,-2.6952,-2.804,-2.9906,-2.9633,-2.951,-3.0752,-3.175,-3.2109,-3.2057,-3.24,-3.2766,-3.2888,-3.2916,-3.2884,-3.2916,-3.2884,-3.2916,-3.2866,-3.2535,-3.2348,-3.2702,-3.2654,-3.247,-3.0845,-3.1179,-3.1083,-3.0965,-3.0845,-3.1083,-3.1218,-3.1334,-3.1579,-3.1726,-3.18,-3.18,-3.1259,-3.0284,-2.9659,-2.9242,-2.8992,-2.8955,-2.853,-2.7827,-2.7643,-2.7274,-2.6756,-2.6571,-2.6572,-2.659,-2.6556,-2.6674,-2.6923,-2.6952,-2.7095,-2.7299,-2.7435,-2.7546,-2.7624,-2.7928,-2.8546,-2.9493,-2.8981,-2.8687,-2.8608,-2.8887,-2.9044,-2.9108,-2.924,-2.939,-2.9551,-2.9532,-2.9551,-2.9551,-2.9551,-2.9512,-2.9407,-2.9344,0.0,0.0,0.0,0.0,0.0,0.0,0.0,0.0,0.0,-2.7574,-2.7225,0.0,-2.6572,0.0,-2.6132,-2.6043,-2.5954,-2.6043,0.0,0.0,-2.6484,-2.7147,-2.7794,-2.7364,-2.6912,-2.6598,-2.6656,-2.6682,-2.6666,-2.6824,-2.6725,-2.6161,-2.5728,-2.5734,-2.6498,-2.853,-2.9856,-2.9464,-2.9072,-2.9264,-3.0225,-3.0559,-3.0735,-3.1456,-3.1714,-3.1826,-3.1812,-3.188,-3.2172,-3.2749,-3.2916,-3.2916,-3.2916,-3.2916,-3.2916,-3.2916,-3.2802,-3.2734,-3.2884,-3.2834,-3.277,-3.2161,-3.2518,-3.2192,-3.1905,-3.1698,-3.1585,-3.1504,-3.1524,-3.1364,-3.1317,-3.1265,-3.0593,-3.0125,-2.9846,-2.8939,-2.8528,-2.8488,-2.8305,-2.793,-2.7419,-2.7402,-2.7266,-2.6954,-2.6939,-2.6971,-2.7068,-2.6985,-2.7098,-2.7289,-2.7435,-2.7596,-2.7833,-2.8084,-2.8421,-2.8785,-2.8943,-2.9366,-3.015,-2.9514,-2.908,-2.8934,-2.9185,-2.9103,-2.8685,-2.9305,-2.9439,-2.9082,-2.9491,-2.968,-2.957,-2.9551,-2.9514,-2.9434,-2.9412,-2.9434,0.0,0.0,0.0,0.0,0.0,0.0,0.0,0.0,0.0,0.0,0.0,-2.6939,-2.6468,-2.6735,-2.6918,-2.6954,-2.7222,-2.7234,-2.6878,-2.7517,-2.8185,-2.8666,-2.83,-2.7931,-2.7688,-2.7756,-2.7806,-2.7806,-2.8259,-2.854,-2.8372,-2.7826,-2.7243,-2.7243,-2.919,-3.0773,-3.053,-3.0278,-3.0132,-3.0278,-3.0463,-3.0781,-3.1306,-3.1603,-3.1809,-3.2155,-3.2223,-3.2376,-3.2816,-3.2916,-3.2983,-3.3149,-3.3198,-3.3212,-3.3214,-3.3226,-3.3178,-3.3055,-3.3006,-3.3055,-3.3356,-3.3792,-3.3118,-3.2772,-3.2654,-3.2067,-3.1806,-3.1821,-3.1236,-3.0889,-3.0716,-2.9192,-2.888,-2.9382,-2.8031,-2.7754,-2.8308,-2.7684,-2.739,-2.739,-2.739,-2.7526,-2.7742,-2.75,-2.7517,-2.7742,-2.7519,-2.7572,-2.7959,-2.8032,-2.8263,-2.8622,-2.8786,-2.9286,-3.0093,-3.0024,-2.9944,-2.9947,-2.9517,-2.9248,-2.916,-2.9474,-2.9177,-2.8427,-2.9357,-2.9496,-2.868,-2.9474,-2.9817,-2.9588,-2.957,-2.957,-2.9551,-2.9533,-2.9625,0.0,-2.9625,0.0,0.0,0.0,0.0,0.0,0.0,0.0,0.0,-2.7644,-2.7622,-2.6961,-2.7589,-2.8048,-2.8083,-2.8643,-2.8742,-2.8106,-2.8653,-2.9214,-2.9446,-2.9092,-2.8832,-2.8832,-2.8992,-2.909,-2.9165,-2.9947,-3.0542,-3.0432,-3.0408,-2.9715,-2.7931,-2.9382,-3.0701,-3.0301,-3.0549,-3.04,-3.0102,-3.0024,-3.0267,-3.0926,-3.126,-3.1844,-3.2536,-3.28,-3.2903,-3.2916,-3.2911,-3.296,-3.328,-3.3291,-3.3296,-3.312,-3.3203,-3.331,-3.3291,-3.325,-3.3339,-3.2291,-3.2616,-3.2476,-3.2194,-3.1827,-3.1668,-3.1855,-3.2197,-3.2345,-3.2051,-3.1328,-2.9804,-2.9201,-2.9254,-2.8379,-2.8007,-2.8149,-2.8025,-2.7954,-2.7936,-2.7936,-2.7964,-2.802,-2.7974,-2.7974,-2.8002,-2.7956,-2.8396,-2.9259,-2.9413,-2.9948,-3.0764,-3.0833,-3.1396,-3.2426,0.0,0.0,0.0,-3.0253,-3.0064,-2.9533,-2.9551,-2.9587,-2.9557,-2.9794,0.0,-2.9794,-2.9956,-3.0052,-2.9988,-2.9969,0.0,0.0,0.0,0.0,0.0,0.0,0.0,0.0,0.0,0.0,0.0,-2.8773,-2.8201,-2.7833,-2.8434,-2.8618,-2.8163,-2.8766,-2.9179,-2.9196,-2.93,-2.9575,-3.0058,-3.0213,-3.0609,-3.1372,-3.1261,-3.1079,-3.1079,-3.1107,-3.11,-3.11,-3.1329,-3.1524,-3.1631,-3.1593,-3.1564,-3.1509,-3.0465,-2.9527,-2.8817,-2.9274,-2.9592,-2.9934,-2.9974,-3.0088,-3.0526,-3.0665,-3.1076,-3.182,-3.2477,-3.2863,-3.2885,-3.2903,-3.252,-3.1792,-3.1874,-3.2047,-3.1655,-3.2156,-3.2812,-3.3403,-3.353,-3.3549,-3.2557,0.0,-3.2038,-3.1659,0.0,-3.1345,-3.1387,-3.1555,-3.1212,-3.0606,-2.9822,-2.9066,-2.8709,-2.8709,-2.8281,-2.8102,-2.8102,-2.8102,-2.8102,-2.812,-2.8513,-2.8774,-2.8945,-2.935,-2.953,-2.953,-2.9646,-2.9916,-3.0333,-3.056,-3.1054,-3.1704,-3.1658,-3.2024,-3.2711,-3.2195,-3.1435,-3.0497,-3.0248,-2.9978,-2.9773,-2.9822,-2.9683,-2.9352,0.0,0.0,0.0,0.0,0.0,0.0,0.0,0.0,0.0,0.0,0.0,-3.0085,-2.9977,-2.9912,-2.9877,-2.9604,-2.9476,-2.9551,-2.9659,-2.949,-2.8979,-2.9469,-2.9685,-2.9421,-2.9942,-3.0296,-3.0347,-3.0679,-3.1027,-3.1358,-3.1429,-3.1638,-3.2001,-3.1856,-3.1731,-3.1694,-3.1694,-3.1694,-3.1694,-3.1896,-3.1846,-3.1673,-3.1548,-3.1557,-3.159,-3.0711,-2.9746,-2.9161,-2.9101,-2.9257,-2.9493,-2.9472,-2.9643,-3.008,-3.0251,-3.0677,-3.1538,-3.1865,-3.2165,-3.2627,-3.2025,-3.0946,-3.0469,-3.0476,-3.0764,-3.1299,-3.1789,-3.2176,-3.2672,-3.3264,-3.3762,-3.2753,-3.2843,-3.1608,-3.1133,-3.1243,-3.0902,-3.0712,-3.0522,0.0,0.0,0.0,-2.8317,-2.8264,-2.8237,-2.8264,-2.8264,-2.8264,-2.8264,-2.8264,-2.8299,-2.8927,-2.9386,-2.9704,-3.0348,-3.0755,-3.0935,-3.1139,-3.1336,-3.1481,-3.1691,-3.2042,-3.2458,-3.2418,-3.2444,-3.2524,-3.2558,-3.2032,-3.094,-3.0353,-3.0114,-3.0175,-3.0281,-2.9908,-2.9026,-2.9896,-3.0016,-2.9219,-2.9958,-3.0299,-3.0089,-3.0084,-3.0098,-3.0098,-3.0092,-3.0222,-3.0417,-3.0266,-3.019,-3.0157,-3.0022,-2.9934,-2.9902,-3.0396,-3.0522,-3.0015,-3.0646,-3.0966,-3.076,-3.1213,-3.1597,-3.1614,-3.213,-3.2468,-3.2311,-3.2433,-3.2472,-3.2267,-3.2144,-3.2074,-3.1986,-3.2039,-3.1916,-3.1865,-3.2037,-3.1976,-3.1299,-3.1146,-3.0903,-3.0337,-3.0041,-2.9823,-2.9619,-2.9325,-2.9173,-2.9086,-2.8961,-2.9083,-2.9635,-2.9744,-3.0141,-3.0885,-3.0932,-3.1148,-3.1905,-3.0586,-2.971,-2.9483,-2.9549,-2.9899,-3.1216,-3.1555,-3.1648,-3.1781,-3.2692,-3.3549,-3.1299,-3.125,-3.1034,-3.0713,-3.0399,-3.0314,-2.9917,-2.9331,-2.9856,-2.9978,-2.985,-2.9156,-2.8881,-2.8881,-2.8863,-2.8863,-2.8881,-2.8881,-2.8881,0.0,-2.8991,-2.907,-2.913,-2.9222,-2.9766,-3.062,-3.0702,-3.1496,-3.2842,-3.3034,-3.3475,-3.422,-3.4314,-3.3994,-3.3486,-3.3574,-3.2902,-3.1378,-3.1762,-3.1754,-3.1194,-3.1202,-3.0882,-3.0215,-3.0309,-3.034,-3.0194,-3.0321,-3.0379,-3.0355,-3.04,-3.0433,-3.0433,-3.049,-3.0529,-3.0576,-3.0491,-3.0433,-3.0433,-3.0209,-3.0022,-2.9899,-2.9727,-2.9718,-3.0045,-3.207,-3.3013,-3.2247,-3.2754,-3.3263,-3.3281,-3.3296,-3.3284,-3.314,-3.3296,-3.3259,-3.2859,-3.3069,-3.3178,-3.3021,-3.3021,-3.2709,-3.2259,-3.211,-3.1858,-3.1219,-3.0758,-3.0257,-2.9479,-2.872,-2.8667,-2.8858,-2.8833,-2.8767,-2.9057,-2.8852,-2.9059,-2.8943,-2.915,-2.9392,-2.9642,-2.9531,-2.9576,-2.9879,-2.9672,-2.9551,-2.9716,-2.9578,-2.9734,-3.0301,-3.0641,-3.0978,-3.1148,-3.1902,-3.2426,-3.0172,-3.0188,-2.9817,-2.9617,-2.9567,-2.9567,-2.9365,-2.9053,-2.9503,-2.9628,-2.9512,-2.9163,-2.8975,-2.9017,-2.9134,-2.9163,-2.9181,-2.927,-2.9314,-2.9351,-2.976,-2.9983,-3.002,-3.0408,-3.0881,-3.136,-3.1848,-3.2512,-3.3332,-3.3761,-3.4276,-3.487,-3.4999,-3.4655,-3.3933,-3.4021,-3.35,-3.2299,-3.2001,-3.1534,-3.0893,-3.089,-3.076,-3.0471,-3.0482,-3.051,-3.051,-3.051,-3.0491,-3.051,-3.0554,-3.056,-3.056,-3.0571,-3.0613,-3.0613,-3.0583,-3.056,-3.056,-3.0443,-3.029,-3.0073,-3.0376,-3.0769,-3.125,-3.3206,-3.4096,-3.3444,-3.3629,-3.3716,-3.3615,-3.3486,-3.3431,-3.3468,-3.3623,-3.3678,-3.3605,-3.3449,-3.3431,-3.3413,-3.2983,-3.2573,-3.2329,-3.2274,-3.1928,-3.1237,-3.0319,-2.9617,-2.9728,-2.9296,-2.9025,-2.9411,-2.9936,-3.0259,-3.0265,-3.0378,-3.0471,-3.055,-3.0593,-3.0246,-2.9698,-2.9269,-2.9213,-2.9326,-2.9401,-2.9531,-2.9844,-2.9941,-2.9938,-2.9876,-3.0082,-3.0349,-3.0495,-3.0776,-3.1389,-3.0035,-3.0115,-2.9557,-2.9355,-2.9414,-2.9211,-2.9115,-2.916,-2.9312,-2.9272,-2.9138,-2.9138,-2.9138,-2.916,-2.9312,-2.9357,-2.9377,-2.9514,-2.9608,-2.9683,-3.0227,-3.0527,-3.0583,-3.1164,-3.1578,-3.188,-3.2691,-3.326,-3.3601,-3.432,-3.4773,-3.4944,-3.5042,-3.4716,-3.3925,-3.4005,-3.3627,-3.2758,-3.1937,-3.1254,-3.0775,-3.0776,-3.0739,-3.0527,-3.0583,-3.0613,-3.0613,-3.0613,-3.069,-3.0872,-3.0723,-3.0717,-3.0892,-3.073,-3.0639,-3.0658,-3.0626,-3.0614,-3.062,-3.0613,-3.0521,-3.0316,-3.0901,-3.1558,-3.2306,-3.3741,-3.4604,-3.4367,-3.4223,-3.4049,-3.3902,-3.3742,-3.366,-3.3753,-3.3826,-3.3963,-3.4101,-3.3781,-3.3552,-3.3607,-3.3104,-3.2657,-3.2509,-3.2464,-3.2261,-3.1611,-3.0351,-3.0,-3.0886,-3.072,-3.0655,-3.0914,-3.1784,-3.2154,-3.189,-3.1778,-3.189,-3.2146,-3.2109,-3.1525,-3.0617,-2.9973,-2.9538,-2.9538,-2.9609,-2.9756,-2.9975,-3.0186,-3.0238,-3.0091,-3.0053,-3.0022,-3.0102,-3.0141,-3.0516,-3.1707,-3.1603,-3.1459,-3.1203,-3.0657,-2.9907,-2.9607,-2.9589,-2.957,-2.957,-2.9626,-2.9551,-2.9589,-2.9551,-2.957,-2.957,-2.957,-2.9589,-2.9608,-2.9626,-2.9664,-2.972,-2.9776,-2.9852,-3.032,-3.1273,-3.2122,-3.3001,-3.3808,-3.475,-3.4969,-3.4536,-3.4466,-3.4079,-3.3378,-3.3286,-3.2876,-3.2029,-3.1903,-3.1817,-3.1761,-3.1767,-3.1416,-3.0625,-3.0613,-3.0613,-3.062,-3.0613,-3.095,-3.1637,-3.1084,-3.1052,-3.168,-3.1184,-3.0791,-3.081,-3.0763,-3.0661,-3.0646,-3.0613,-3.0671,-3.0571,-3.0673,-3.1122,-3.1978,-3.3246,-3.4265,-3.466,-3.4831,-3.4693,-3.4558,-3.4514,-3.4344,-3.4117,-3.413,-3.4161,-3.4203,-3.4136,-3.4142,-3.4141,-3.3998,-3.3744,-3.3086,-3.2804,-3.2765,-3.2882,-3.2123,-3.1864,-3.2808,-3.328,-3.3299,-3.3356,-3.3998,-3.3828,-3.2845,-3.2333,-3.256,-3.252,-3.2443,-3.2327,-3.1946,-3.104,-2.9897,-3.0408,-3.0492,-3.0747,-3.0658,-3.0396,-3.0506,-3.0669,-3.049,-3.0194,-3.0299,-3.0336,-3.0548,-3.1444,-3.1846,-3.2395,-3.2255,-3.1599,-3.1223,-3.1073,-3.1092,-3.1223,-3.124,-3.1258,-3.1383,-3.0746,-2.9626,-2.9716,-2.9769,-2.9769,-2.9905,-2.9953,-2.9953,-2.9953,-2.9953,-2.9969,-2.9988,-3.0271,-3.0781,-3.2083,-3.2737,-3.2848,-3.3592,-3.3887,-3.3662,-3.3641,-3.3228,-3.2483,-3.2462,-3.2046,-3.1228,-3.1239,-3.1246,-3.1242,-3.1196,-3.1018,-3.07,-3.0706,-3.072,-3.072,-3.072,-3.0895,-3.1246,-3.1402,-3.1682,-3.2053,-3.2238,-3.2343,-3.2324,-3.2313,-3.228,-3.2264,-3.2259,-3.2231,-3.2186,-3.2155,-3.2532,-3.334,-3.396,-3.4543,-3.5147,-3.5168,-3.5153,-3.536,-3.4826,-3.4329,-3.4226,-3.4205,-3.4339,-3.4583,-3.4379,-3.4285,-3.4548,-3.4604,-3.4285,-3.3575,-3.3289,-3.3517,-3.4017,-3.3828,-3.3842,-3.4401,-3.4742,-3.4843,-3.4789,-3.5091,-3.4936,-3.4048,-3.3884,-3.39,-3.4006,-3.4077,-3.4001,-3.344,-3.3551,-3.2962,-3.1881,-3.2503,-3.3121,-3.355,-3.2551,-3.2057,-3.186,-3.1458,-3.1207,-3.1264,-3.0857,-3.0521,-3.2027,-3.2697,-3.3242,-3.3128,-3.26,-3.239,-3.2313,-3.2348,-3.2499,-3.26,-3.2615,-3.2757,-3.1996,-3.0706,-3.0633,-3.0668,-3.0746,-3.0882,-3.095,-3.0989,-3.0989,-3.0874,-3.0682,-3.0698,-3.0571,-3.064,-3.1911,-3.2493,-3.2255,-3.2796,-3.3052,-3.2888,-3.281,-3.2409,-3.1683,-3.1646,-3.136,-3.0795,-3.0769,-3.0786,-3.0796,-3.0758,-3.0732,-3.0729,-3.0769,-3.0797,-3.0797,-3.0796,-3.0913,-3.1167,-3.1539,-3.1969,-3.2438,-3.2828,-3.3141,-3.3355,-3.339,-3.339,-3.3375,-3.3385,-3.3373,-3.3324,-3.3333,-3.358,-3.4088,-3.4393,-3.4746,-3.5194,-3.5328,-3.5526,-3.5645,-3.5362,-3.5059,-3.5078,-3.5457,-3.5837,-3.5153,-3.4737,-3.468,-3.4908,-3.504,-3.4863,-3.4213,-3.4094,-3.4391,-3.4926,-3.5073,-3.5105,-3.5316,-3.5474,-3.5579,-3.5512,-3.5649,-3.557,-3.5209,-3.5021,-3.5209,-3.5254,-3.5224,-3.5053,-3.4704,-3.521,-3.5377,-3.3751,-3.4925,-3.5284,-3.4881,-3.4206,-3.3509,-3.3121,-3.266,-3.2252,-3.2237,-3.1688,-3.1436,-3.4388,-3.4643,-3.4211,-3.3952,-3.3872,-3.3215,-3.2917,-3.3,-3.3048,-3.3063,-3.3081,-3.3063,-3.3005,-3.2789,-3.2497,-3.2589,-3.2686,-3.2583,-3.2559,-3.2627,-3.2715,-3.2454,-3.1777,-3.1739,-3.1255,-3.0598,-3.1496,-3.231,-3.2992,-3.3126,-3.2888,-3.2182,-3.2143,-3.1714,-3.1011,-3.0931,-3.0839,-3.081,-3.08,-3.0798,-3.079,-3.0784,-3.0793,-3.0762,-3.0795,-3.0788,-3.0786,-3.0784,-3.1138,-3.1979,-3.1355,-3.1626,-3.2931,-3.2582,-3.2641,-3.3305,-3.3454,-3.3435,-3.3428,-3.3534,-3.3525,-3.3475,-3.3605,-3.3492,-3.3824,-3.4363,-3.4739,-3.4703,-3.5329,-3.5568,-3.5469,-3.6074,-3.6733,-3.7089,-3.8765,-3.8213,-3.5761,-3.538,-3.5306,-3.5211,-3.5389,-3.5377,-3.5056,-3.5206,-3.5222,-3.538,-3.5436,-3.5494,-3.563,-3.5823,-3.5851,-3.5771,-3.5826,-3.5888,-3.5706,-3.5542,-3.5573,-3.5602,-3.5562,-3.563,-3.5618,-3.5568,-3.5405,-3.5338,-3.5456,-3.5562,-3.5643,-3.531,-3.4649,-3.4112,-3.3517,-3.3187,-3.3478,-3.3213,-3.283,-3.4776,-3.532,-3.5123,-3.5014,-3.4995,-3.4716,-3.4623,-3.4565,-3.4058,-3.3866,-3.377,-3.3286,-3.3024,-3.3024,-3.2937,-3.2636,-3.221,-3.219,-3.1941,-3.1497,-3.1439,-3.1284,-3.1033,-3.1009,-3.0925,-3.0804,-3.154,-3.2162,-3.2363,-3.1987,-3.1562,-3.1347,-3.1268,-3.1093,-3.0831,-3.0801,-3.0794,-3.0799,-3.0794,-3.0765,-3.068,-3.0706,-3.0697,-3.0685,-3.0752,-3.0801,-3.0801,-3.0801,-3.0958,-3.125,-3.1467,-3.1897,-3.2522,-3.3302,-3.4081,-3.4839,-3.4986,-3.4986,-3.4981,-3.4992,-3.4996,-3.5011,-3.4995,-3.4939,-3.5037,-3.5273,-3.5427,-3.5419,-3.5572,-3.5658,-3.5618,-3.5938,-3.6501,-3.7199,-3.7276,-3.7038,-3.6023,-3.5579,-3.5495,-3.5514,-3.562,-3.5607,-3.5542,-3.5544,-3.5591,-3.5611,-3.5618,-3.5687,-3.5807,-3.595,-3.5969,-3.5909,-3.5896,-3.5923,-3.5909,-3.5767,-3.5693,-3.5693,-3.5685,-3.5674,-3.5671,-3.5675,-3.5558,-3.556,-3.567,-3.5735,-3.582,-3.5747,-3.5226,-3.5139,-3.4534,-3.4343,-3.4905,-3.4226,-3.3676,-3.486,-3.4908,-3.5093,-3.5027,-3.4775,-3.4807,-3.4827,-3.4768,-3.4254,-3.3992,-3.3876,-3.338,-3.3137,-3.3114,-3.3111,-3.2667,-3.1974,-3.2128,-3.1958,-3.1468,-3.1425,-3.1278,-3.104,-3.1059,-3.0935,-3.0856,-3.137,-3.1674,-3.1618,-3.1085,-3.0806,-3.0801,-3.0801,-3.0792,-3.0761,-3.0743,-3.075,-3.0729,-3.0704,-3.0625,-3.0549,-3.0576,-3.0591,-3.0552,-3.0619,-3.0701,-3.075,-3.0701,-3.0658,-3.0755,-3.1247,-3.1812,-3.2435,-3.3721,-3.4865,-3.5644,-3.5777,-3.5777,-3.5791,-3.5841,-3.5838,-3.583,-3.5864,-3.5893,-3.5893,-3.5893,-3.5872,-3.5839,-3.5837,-3.5812,-3.5779,-3.5732,-3.6014,-3.6616,-3.6071,-3.5646,-3.5763,-3.5704,-3.5721,-3.5776,-3.5764,-3.576,-3.5788,-3.5795,-3.5768,-3.578,-3.5786,-3.5831,-3.5887,-3.5955,-3.5999,-3.5972,-3.5918,-3.5918,-3.5917,-3.5808,-3.5779,-3.5771,-3.5756,-3.5734,-3.5738,-3.5744,-3.5763,-3.5788,-3.5831,-3.5909,-3.5942,-3.5919,-3.5918,-3.5912,-3.5564,-3.5174,-3.5233,-3.4999,-3.4569,-3.4687,-3.3634,-3.4049,-3.3906,-3.3345,-3.3386,-3.3293,-3.3405,-3.3367,-3.3351,-3.3312,-3.3268,-3.3063,-3.3204,-3.2963,-3.2728,-3.2157,-3.2494,-3.2791,-3.2815,-3.2939,-3.2521,-3.1861,-3.1782,-3.1403,-3.0781,-3.0816,-3.0858,-3.088,-3.0794,-3.0746,-3.0774,-3.0765,-3.0716,-3.0689,-3.0637,-3.0618,-3.0664,-3.0577,-3.0453,-3.0413,-3.0447,-3.0428,-3.0413,-3.0414,-3.0472,-3.0585,-3.0492,-3.0434,-3.0424,-3.0482,-3.1242,-3.2656,-3.3699,-3.4623,-3.5276,-3.5533,-3.5562,-3.5538,-3.5687,-3.5749,-3.5723,-3.5807,-3.5853,-3.583,-3.5834,-3.5861,-3.5851,-3.5871,-3.5874,-3.5857,-3.5845,-3.5879,-3.5821,-3.5768,-3.5762,-3.5799,-3.5912,-3.5993,-3.5947,-3.5929,-3.5919,-3.5985,-3.5955,-3.5923,-3.5895,-3.5917,-3.5937,-3.5894,-3.593,-3.594,-3.5918,-3.5857,-3.5815,-3.5828,-3.5861,-3.5864,-3.5854,-3.5833,-3.5795,-3.5798,-3.5799,-3.5858,-3.5877,-3.5741,-3.5799,-3.5819,-3.5815,-3.5872,-3.5862,-3.5742,-3.5662,-3.5425,-3.5269,-3.5506,-3.3563,-3.2882,-3.3426,-3.3535,-3.3287,-3.3329,-3.334,-3.3243,-3.277,-3.2519,-3.2404,-3.1866,-3.1594,-3.1615,-3.1543,-3.1426,-3.123,-3.1366,-3.1464,-3.158,-3.1618,-3.1503,-3.1211,-3.1133,-3.0968,-3.07,-3.0672,-3.0639,-3.0585,-3.0543,-3.0521,-3.0521,-3.0529,-3.051,-3.0506,-3.0479,-3.0714,-3.1218,-3.073,-3.0642,-3.1095,-3.0675,-3.0378,-3.0333,-3.0333,-3.0344,-3.0398,-3.0392,-3.0402,-3.0383,-3.0383,-3.0923,-3.2023,-3.2929,-3.3797,-3.46,-3.5241,-3.5523,-3.5519,-3.5549,-3.5582,-3.5562,-3.5602,-3.5621,-3.5621,-3.562,-3.5666,-3.5687,-3.5694,-3.5714,-3.5709,-3.5777,-3.5828,-3.5859,-3.5898,-3.5876,-3.5855,-3.5915,-3.5918,-3.5937,-3.5918,-3.5898,-3.5916,-3.5934,-3.5933,-3.5888,-3.5906,-3.5899,-3.5893,-3.588,-3.5893,-3.5893,-3.5791,-3.5638,-3.5626,-3.5589,-3.5549,-3.5606,-3.5665,-3.5735,-3.5761,-3.5839,-3.5897,-3.58,-3.5683,-3.5644,-3.5663,-3.5708,-3.5761,-3.5811,-3.5738,-3.563,-3.5496,-3.5548,-3.5658,-3.2762,-3.1948,-3.2584,-3.2686,-3.2414,-3.2381,-3.2401,-3.2323,-3.1816,-3.1562,-3.1406,-3.0973,-3.0715,-3.0691,-3.0651,-3.0657,-3.0657,-3.0585,-3.058,-3.0598,-3.0654,-3.066,-3.0629,-3.063,-3.0609,-3.0549,-3.0533,-3.0491,-3.046,-3.0409,-3.0402,-3.0413,-3.0383,-3.0404,-3.0404,-3.0392,-3.0671,-3.102,-3.0609,-3.0566,-3.0874,-3.0573,-3.0273,-3.0169,-3.0155,-3.0095,-3.0066,-3.0084,-3.0184,-3.029,-3.0321,-3.0744,-3.1571,-3.2186,-3.2955,-3.4032,-3.4628,-3.5032,-3.532,-3.5418,-3.5451,-3.5483,-3.5489,-3.5507,-3.5526,-3.5526,-3.5523,-3.551,-3.5551,-3.5551,-3.5591,-3.5639,-3.5709,-3.5736,-3.5873,-3.5926,-3.5864,-3.5841,-3.5845,-3.5868,-3.5864,-3.5861,-3.5861,-3.5861,-3.5845,-3.5807,-3.5855,-3.5839,-3.5833,-3.5814,-3.582,-3.5723,-3.5435,-3.5369,-3.5388,-3.5322,-3.5235,-3.5323,-3.5433,-3.5534,-3.562,-3.5756,-3.5833,-3.5524,-3.5321,-3.5456,-3.5495,-3.5553,-3.56,-3.5646,-3.5657,-3.5514,-3.5368,-3.5387,-3.5484,-3.2187,-3.0876,-3.1578,-3.1498,-3.0871,-3.0831,-3.0888,-3.0772,-3.0753,-3.0743,-3.0648,-3.0634,-3.057,-3.051,-3.0508,-3.0521,-3.0491,-3.0481,-3.0462,-3.0433,-3.0471,-3.0464,-3.049,-3.049,-3.0496,-3.0468,-3.0414,-3.0389,-3.0374,-3.0333,-3.0362,-3.0317,-3.0275,-3.0321,-3.0275,-3.0278,-3.0292,-3.0471,-3.0289,-3.0195,-3.0333,-3.0176,-3.0079,-2.9905,-2.9869,-2.982,-2.9697,-2.9697,-2.9801,-3.0094,-3.0118,-3.0481,-3.1168,-3.1416,-3.2256,-3.3662,-3.3914,-3.4486,-3.4999,-3.5289,-3.535,-3.5369,-3.543,-3.5502,-3.5515,-3.5483,-3.5425,-3.5393,-3.5432,-3.547,-3.5451,-3.5488,-3.5531,-3.5554,-3.5741,-3.5821,-3.5821,-3.5791,-3.5741,-3.5747,-3.5777,-3.5772,-3.5735,-3.571,-3.5636,-3.5591,-3.5679,-3.5734,-3.567,-3.5666,-3.5726,-3.5502,-3.5161,-3.4889,-3.4845,-3.4979,-3.4884,-3.4952,-3.504,-3.5115,-3.5322,-3.5502,-3.5482,-3.5166,-3.4995,-3.5168,-3.527,-3.5303,-3.5355,-3.5412,-3.5353,-3.5259,-3.522,-3.5215,-3.5249,-3.104,-3.0662,-3.0821,-3.076,-3.0555,-3.0547,-3.0555,-3.0549,-3.0555,-3.0549,-3.0522,-3.0533,-3.0498,-3.0479,-3.0433,-3.0463,-3.0462,-3.0389,-3.0344,-3.0321,-3.0278,-3.0342,-3.0395,-3.0424,-3.0392,-3.0348,-3.0302,-3.0304,-3.024,-3.0099,-3.0037,-3.0022,-2.9908,-2.9839,-2.9817,-2.9826,-3.0151,-3.0538,-3.0045,-3.0089,-3.0486,-3.0033,-2.9753,-2.9698,-2.9681,-2.9644,-2.9608,-2.9608,-2.9644,-2.9734,-2.9732,-2.9827,-3.0201,-3.0749,-3.1651,-3.2686,-3.3298,-3.3999,-3.4906,-3.5038,-3.5092,-3.5243,-3.5111,-3.5285,-3.5285,-3.5266,-3.5247,-3.5247,-3.5266,-3.5247,-3.5262,-3.534,-3.5468,-3.5669,-3.5637,-3.5611,-3.5728,-3.5669,-3.5533,-3.5387,-3.5475,-3.5482,-3.5388,-3.5333,-3.5265,-3.5153,-3.532,-3.555,-3.5426,-3.5261,-3.5223,-3.5174,-3.4897,-3.4488,-3.4301,-3.4489,-3.4557,-3.4578,-3.4582,-3.4526,-3.4794,-3.5054,-3.4889,-3.4642,-3.4575,-3.4661,-3.4807,-3.4887,-3.5,-3.5127,-3.5051,-3.4975,-3.4921,-3.4902,-3.4975,-3.0547,-3.0516,-3.0474,-3.0463,-3.0455,-3.046,-3.0461,-3.0461,-3.0461,-3.0434,-3.0404,-3.0413,-3.0392,-3.0372,-3.0344,-3.034,-3.0364,-3.0209,-3.0128,-3.0099,-2.9996,-3.0037,-3.0144,-3.0184,-3.0117,-3.0003,-3.0022,-2.9977,-2.9937,-2.9839,-2.9769,-2.9769,-2.9662,-2.9606,-2.9633,-2.9606,-2.9814,-3.017,-2.9833,-2.9852,-3.0092,-2.9833,-2.9415,-2.9221,-2.9198,-2.9237,-2.9027,-2.8964,-2.9135,-2.9476,-2.9608,-2.9608,-2.9683,-3.0415,-3.128,-3.2204,-3.2917,-3.3821,-3.4619,-3.4564,-3.4281,-3.4263,-3.413,-3.4109,-3.4165,-3.4108,-3.3862,-3.3427,-3.4015,-3.4338,-3.4489,-3.477,-3.5181,-3.5403,-3.5264,-3.5228,-3.5501,-3.5483,-3.5257,-3.51,-3.511,-3.522,-3.5024,-3.4971,-3.4865,-3.4794,-3.4889,-3.5003,-3.5022,-3.4813,-3.466,-3.4617,-3.4317,-3.3825,-3.3547,-3.3654,-3.3788,-3.3857,-3.3889,-3.3877,-3.418,-3.4486,-3.4524,-3.4349,-3.4218,-3.4185,-3.4304,-3.4464,-3.4647,-3.471,-3.4693,-3.4615,-3.4515,-3.4557,-3.4636,-3.0433,-3.0392,-3.04,-3.0381,-3.0381,-3.0362,-3.037,-3.037,-3.0329,-3.0302,-3.0241,-3.0235,-3.015,-3.0142,-3.009,-3.0123,-3.0109,-2.9953,-2.9886,-2.982,-2.9734,-2.9715,-2.9731,-2.9851,-2.9801,-2.968,-2.9608,-2.9644,-2.9644,-2.957,-2.9532,-2.9456,-2.9418,-2.942,-2.927,-2.9325,-2.9434,-2.9423,-2.933,-2.9196,-2.9222,-2.9212,-2.8986,-2.8621,-2.8688,-2.8718,-2.8513,-2.8443,-2.8771,-2.9676,-2.9624,-2.9543,-2.9676,-3.0331,-3.1213,-3.2037,-3.278,-3.3545,-3.4408,-3.4036,-3.351,-3.3492,-3.299,-3.2634,-3.341,-3.3297,-3.2712,-3.205,-3.2668,-3.3537,-3.3744,-3.4175,-3.4609,-3.4877,-3.4623,-3.4698,-3.4952,-3.5193,-3.5035,-3.4505,-3.466,-3.4699,-3.4601,-3.4538,-3.4457,-3.4035,-3.4221,-3.4487,-3.4258,-3.3839,-3.3883,-3.4037,-3.3603,-3.3012,-3.2868,-3.2793,-3.2888,-3.2991,-3.3064,-3.314,-3.3519,-3.3815,-3.4056,-3.4067,-3.3796,-3.3685,-3.3776,-3.3968,-3.4173,-3.4288,-3.426,-3.4104,-3.3988,-3.4171,-3.4279,-3.0333,-3.0309,-3.0273,-3.0234,-3.0234,-3.0247,-3.0234,-3.0234,-3.0071,-2.9992,-2.995,-2.9834,-2.9767,-2.9751,-2.9769,-2.9715,-2.9715,-2.9644,-2.9662,-2.9644,-2.9644,-2.9378,-2.9279,-2.9437,-2.9608,-2.9551,-2.9589,-2.9589,-2.9476,-2.9196,-2.9027,-2.9005,-2.8808,-2.8452,-2.8529,-2.873,-2.8453,-2.842,-2.8507,-2.8612,-2.858,-2.8605,-2.8554,-2.8318,-2.8353,-2.8604,-2.8969,-2.9037,-2.9446,-2.9854,-2.9746,-2.951,-2.9616,-3.0143,-3.1099,-3.2022,-3.2375,-3.2996,-3.3987,-3.4041,-3.3953,-3.3724,-3.3542,-3.4116,-3.4381,-3.3942,-3.328,-3.2847,-3.3489,-3.3874,-3.3964,-3.4258,-3.4353,-3.4232,-3.4128,-3.4054,-3.4102,-3.4222,-3.4151,-3.3855,-3.3759,-3.3746,-3.3587,-3.3605,-3.3506,-3.3325,-3.3531,-3.3887,-3.3524,-3.2998,-3.3042,-3.3317,-3.3087,-3.2563,-3.2222,-3.2186,-3.2279,-3.2248,-3.2264,-3.2406,-3.2782,-3.3099,-3.3316,-3.3375,-3.3277,-3.3219,-3.3121,-3.3403,-3.357,-3.3715,-3.3805,-3.3688,-3.3643,-3.3805,-3.3778,-2.9992,-2.9958,-2.9934,-2.9921,-2.9921,-2.9921,-2.9921,-2.9905,-2.9803,-2.9751,-2.9753,-2.9644,-2.9608,-2.9608,-2.9589,-2.9551,-2.9359,-2.9119,-2.8968,-2.8897,-2.8874,-2.8759,-2.8634,-2.8753,-2.8897,-2.8915,-2.8874,-2.8897,-2.8824,-2.8718,-2.8529,-2.8583,-2.8596,-2.8784,-2.876,-2.8927,-2.9254,-2.9266,-2.9171,-2.9123,-2.9024,-2.9123,-2.9094,-2.8965,-2.8845,-2.9,-2.9351,-2.9386,-2.9597,-2.986,-2.9948,-2.9911,-2.9959,-3.0523,-3.1339,-3.1885,-3.2401,-3.2762,-3.3532,-3.3278,-3.2821,-3.2776,-3.268,-3.2621,-3.2709,-3.261,-3.2346,-3.2001,-3.2441,-3.3227,-3.3695,-3.3668,-3.3625,-3.3817,-3.3552,-3.3284,-3.3056,-3.336,-3.3427,-3.3058,-3.3086,-3.3182,-3.3105,-3.2973,-3.2991,-3.2983,-3.2983,-3.3283,-3.3122,-3.2642,-3.2389,-3.2449,-3.2477,-3.2174,-3.1708,-3.1619,-3.1771,-3.166,-3.1476,-3.1688,-3.2015,-3.2295,-3.2545,-3.2581,-3.2586,-3.2385,-3.2343,-3.2657,-3.2875,-3.2929,-3.3009,-3.3148,-3.3207,-3.3069,-3.3009,-2.9533,-2.9533,-2.9589,-2.9608,-2.9608,-2.9608,-2.9589,-2.9551,-2.9514,-2.9399,-2.9399,-2.9379,-2.9237,-2.9319,-2.9299,-2.9219,-2.8968,-2.8651,-2.8391,-2.828,-2.8272,-2.8192,-2.8147,-2.829,-2.837,-2.817,-2.8434,-2.8479,-2.8479,-2.835,-2.8734,-2.8589,-2.8965,-2.9213,-2.9454,-2.9786,-2.9839,-2.9748,-2.9621,-2.9525,-2.9482,-2.9627,-2.9595,-2.9398,-2.9196,-2.9161,-2.935,-2.9435,-2.9556,-2.9693,-3.0293,-3.0508,-3.0653,-3.115,-3.1675,-3.176,-3.2325,-3.2773,-3.2988,-3.2509,-3.1862,-3.1191,-3.0978,-3.0902,-3.1069,-3.1128,-3.0924,-3.0947,-3.1386,-3.2143,-3.2805,-3.2781,-3.298,-3.325,-3.2971,-3.2227,-3.1793,-3.2349,-3.2353,-3.2265,-3.2398,-3.2624,-3.2631,-3.255,-3.2601,-3.2651,-3.2651,-3.2619,-3.2479,-3.2239,-3.1986,-3.1793,-3.1821,-3.1425,-3.0951,-3.084,-3.0977,-3.0971,-3.073,-3.0933,-3.1132,-3.1215,-3.1472,-3.186,-3.186,-3.1652,-3.1549,-3.1725,-3.1917,-3.2057,-3.2368,-3.2681,-3.2583,-3.2334,-3.2316,-2.9262,-2.928,-2.9514,-2.9608,-2.9589,-2.9589,-2.9418,-2.926,-2.9089,-2.8851,-2.8627,-2.8424,-2.8417,-2.8391,-2.834,-2.8332,-2.8288,-2.8121,-2.812,-2.8091,-2.8081,-2.8014,-2.8029,-2.8343,-2.8491,-2.8543,-2.8762,-2.8989,-2.9107,-2.946,-2.925,-2.953,-2.9495,-2.9449,-2.9363,-2.9351,-2.9471,-2.9499,-2.924,-2.9016,-2.8982,-2.8966,-2.8986,-2.8925,-2.8883,-2.9047,-2.9321,-2.9399,-2.9649,-3.0249,-3.0473,-3.0486,-3.0632,-3.1259,-3.1707,-3.1952,-3.2108,-3.2317,-3.2484,-3.2577,-3.2481,-3.2396,-3.1906,-3.1929,-3.1932,-3.162,-3.0907,-3.0733,-3.101,-3.1602,-3.1723,-3.1775,-3.2119,-3.2409,-3.1981,-3.0976,-3.0253,-3.0581,-3.1436,-3.1532,-3.1846,-3.2003,-3.1914,-3.1825,-3.1825,-3.1965,-3.2086,-3.2152,-3.211,-3.1829,-3.1487,-3.1314,-3.1237,-3.0651,-3.0058,-3.0084,-3.0166,-3.0166,-3.0054,-3.0103,-3.0201,-3.0103,-3.0333,-3.0667,-3.089,-3.0816,-3.0821,-3.0785,-3.1014,-3.1181,-3.1664,-3.2179,-3.1915,-3.1608,-3.1844,-2.8621,-2.8646,-2.8782,-2.8828,-2.8828,-2.8828,-2.8759,-2.864,-2.8535,-2.841,-2.8236,-2.8121,-2.7984,-2.7883,-2.7826,-2.777,-2.7643,-2.7683,-2.7882,-2.8097,-2.8032,-2.8135,-2.8166,-2.8494,-2.8387,-2.8503,-2.8955,-2.9246,-2.9121,-2.9248,-2.9385,-2.9138,-2.9211,-2.9408,-2.9504,-2.9695,-2.9639,-2.9619,-2.9433,-2.9304,-2.9343,-2.9343,-2.9343,-2.9343,-2.9343,-2.9599,-2.9798,-2.993,-3.0079,-3.0402,-3.0502,-3.0477,-3.0601,-3.0788,-3.1201,-3.1321,-3.1397,-3.1456,-3.1571,-3.1608,-3.1537,-3.1554,-3.1459,-3.1397,-3.1483,-3.1138,-3.074,-3.0634,-3.0656,-3.097,-3.1004,-3.0931,-3.1202,-3.1415,-3.1012,-3.0227,-2.9609,-3.0038,-3.0418,-3.0807,-3.0943,-3.0999,-3.101,-3.0971,-3.0988,-3.1179,-3.1495,-3.1651,-3.1748,-3.1015,-3.0499,-3.0584,-3.0369,-2.9777,-2.931,-2.9345,-2.921,-2.9225,-2.9273,-2.9291,-2.9386,-2.931,-2.9294,-2.9416,-2.9619,-2.9894,-2.9626,-2.9468,-2.9856,-3.0303,-3.0687,-3.096,-3.096,-3.0999,-3.1193,-2.7946,-2.8037,-2.8075,-2.8102,-2.8102,-2.8102,-2.8029,-2.7901,-2.7901,-2.7787,-2.7701,-2.7672,-2.749,-2.7322,-2.723,-2.7155,-2.6935,-2.7108,-2.7621,-2.7913,-2.7978,-2.8185,-2.8498,-2.861,-2.8489,-2.8705,-2.927,-2.9303,-2.9147,-2.9336,-2.9075,-2.9198,-2.9423,-2.9538,-2.9739,-2.999,-3.0346,-3.034,-3.0251,-3.0217,-3.0215,-3.0208,-3.0208,-3.0225,-3.0225,-3.0058,-2.9837,-2.9794,-2.9751,-2.9816,-2.9832,-2.9876,-2.9962,-2.9962,-2.9962,-3.0021,-3.0293,-3.0477,-3.0543,-3.0584,-3.073,-3.0771,-3.046,-3.0377,-3.0117,-3.0041,-2.9794,-2.9962,-2.9903,-2.9886,-2.9827,-2.9903,-3.006,-3.0158,-3.0049,-2.9729,-2.921,-2.9187,-2.938,-2.9648,-2.987,-3.0074,-3.0201,-3.0518,-3.0601,-3.0742,-3.1041,-3.1458,-3.1321,-2.9737,-2.9241,-2.9544,-2.9377,-2.8791,-2.8482,-2.856,-2.8386,-2.8194,-2.8271,-2.8348,-2.8501,-2.859,-2.8639,-2.8753,-2.8726,-2.8936,-2.8511,-2.8434,-2.9122,-2.9556,-2.9685,-2.9908,-3.026,-3.0302,-3.0344,-2.7422,-2.7754,-2.7964,-2.8102,-2.8047,-2.8002,-2.773,-2.7265,-2.7217,-2.6853,-2.6505,-2.642,-2.6403,-2.6334,-2.6334,-2.6282,-2.648,-2.6933,-2.7401,-2.7714,-2.7926,-2.818,-2.8417,-2.8969,-2.8829,-2.8919,-2.965,-2.9864,-2.9386,-2.97,-3.0096,-2.993,-2.9798,-3.0253,-2.9799,-2.9723,-2.9886,-2.9763,-2.9466,-2.9275,-2.9273,-2.9273,-2.9273,-2.9273,-2.9227,-2.9166,-2.895,-2.8904,-2.8764,-2.8417,-2.8321,-2.8225,-2.8176,-2.8176,-2.8161,-2.8639,-2.9464,-3.0477,-3.0335,-3.0251,-3.0251,-3.0166,-3.0038,-2.9733,-2.9313,-2.8685,-2.8341,-2.8176,-2.8321,-2.8449,-2.8544,-2.8369,-2.8633,-2.8824,-2.881,-2.8449,-2.8073,-2.8311,-2.8482,-2.8387,-2.8545,-2.9191,-2.9609,-2.9935,-3.0258,-3.0399,-3.0553,-3.0915,-3.079,-2.9236,-2.8117,-2.8389,-2.7804,-2.7154,-2.7542,-2.7644,-2.7525,-2.7253,-2.7378,-2.7518,-2.7739,-2.7955,-2.8225,-2.8297,-2.8188,-2.808,-2.7896,-2.8061,-2.8544,-2.8731,-2.8794,-2.9255,-2.9837,-2.975,-2.9361,-2.6421,-2.679,-2.6935,-2.6982,-2.6982,-2.6965,-2.6821,-2.6573,-2.6522,-2.6386,-2.6123,-2.6087,-2.598,-2.5799,-2.5762,-2.6024,-2.6421,-2.6944,-2.7553,-2.7842,-2.8102,-2.8233,-2.8391,-2.8468,-2.8491,-2.8659,-2.879,-2.8699,-2.8785,-2.9223,-2.9597,-2.9148,-2.9041,-2.89,-2.9217,-2.886,-2.8747,-2.8667,-2.8539,-2.8417,-2.8418,-2.8417,-2.8415,-2.84,-2.8463,-2.8367,-2.8207,-2.8158,-2.811,-2.7913,-2.7913,-2.7913,-2.7898,-2.7898,-2.7898,-2.7997,-2.8544,-2.9057,-2.9255,-2.9361,-2.9406,-2.9361,-2.918,-2.8904,-2.8434,-2.7987,-2.7629,-2.7898,-2.7913,-2.7849,-2.7799,-2.7913,-2.8054,-2.813,-2.7735,-2.722,-2.6965,-2.739,-2.7505,-2.7333,-2.7181,-2.7694,-2.8086,-2.815,-2.8401,-2.8841,-2.9045,-2.9325,-2.9443,-2.8901,-2.792,-2.733,-2.6418,-2.5279,-2.6069,-2.6582,-2.6605,-2.6477,-2.6805,-2.6893,-2.7166,-2.7409,-2.7471,-2.7229,-2.6761,-2.6821,-2.7069,-2.7335,-2.7508,-2.7697,-2.7902,-2.8242,-2.8529,-2.8146,-2.7868,-2.5481,-2.5852,-2.6016,-2.6087,-2.6087,-2.6087,-2.6016,-2.5835,-2.5819,-2.5709,-2.5598,-2.5524,-2.5389,-2.5317,-2.5345,-2.5608,-2.6134,-2.6824,-2.7524,-2.7976,-2.8189,-2.817,-2.8217,-2.8082,-2.7951,-2.7849,-2.8082,-2.8,-2.8064,-2.8336,-2.8432,-2.7913,-2.8176,-2.8064,-2.7941,-2.8027,-2.8069,-2.8047,-2.8039,-2.7984,-2.7936,-2.7978,-2.7929,-2.7929,-2.7913,-2.7849,-2.778,-2.778,-2.778,-2.758,-2.753,-2.7479,-2.7312,-2.721,-2.7078,-2.696,-2.7121,-2.7274,-2.7739,-2.8048,-2.8255,-2.8319,-2.8253,-2.8155,-2.7864,-2.759,-2.741,-2.753,-2.7232,-2.7232,-2.7282,-2.7115,-2.6916,-2.6826,-2.6745,-2.6159,-2.5735,-2.6036,-2.613,-2.5821,-2.5658,-2.5672,-2.5941,-2.6023,-2.6418,-2.7126,-2.7489,-2.7794,-2.7645,-2.7563,-2.6997,-2.6044,-2.5217,-2.4255,-2.4721,-2.5356,-2.5398,-2.5563,-2.5903,-2.6014,-2.6004,-2.6186,-2.6328,-2.5921,-2.55,-2.5394,-2.559,-2.5966,-2.6399,-2.6887,-2.7268,-2.7027,-2.6923,-2.6625,-2.6678,-2.4766,-2.5162,-2.5779,-2.6016,-2.6016,-2.6087,-2.5672,-2.5105,-2.5067,-2.4784,-2.441,-2.4219,-2.4467,-2.4653,-2.4929,-2.5096,-2.5223,-2.6352,-2.6964,-2.7332,-2.7601,-2.7859,-2.7849,-2.775,-2.77,-2.77,-2.76,-2.7479,-2.7458,-2.7393,-2.768,-2.7864,-2.7715,-2.7806,-2.7825,-2.7705,-2.7725,-2.7742,-2.774,-2.7784,-2.7775,-2.7765,-2.7786,-2.783,-2.7815,-2.778,-2.7473,-2.7372,-2.7218,-2.6922,-2.6788,-2.6616,-2.6336,-2.6229,-2.604,-2.5809,-2.5631,-2.5821,-2.6169,-2.7136,-2.7799,-2.7894,-2.7755,-2.7497,-2.7071,-2.6945,-2.6855,-2.6707,-2.6254,-2.5972,-2.5686,-2.5315,-2.5508,-2.5591,-2.5508,-2.486,-2.4585,-2.4706,-2.47,-2.4341,-2.4355,-2.4513,-2.4526,-2.4684,-2.5216,-2.5966,-2.6366,-2.6657,-2.563,-2.5369,-2.5122,-2.4527,-2.3927,-2.3463,-2.3651,-2.3962,-2.4239,-2.4355,-2.4513,-2.4536,-2.4527,-2.4762,-2.5249,-2.5037,-2.4697,-2.4363,-2.4137,-2.4485,-2.5106,-2.6218,-2.6558,-2.6011,-2.5903,-2.5849,-2.6065,-2.4276,-2.4426,-2.4719,-2.4942,-2.5114,-2.4902,-2.4623,-2.4395,-2.4395,-2.4287,-2.3982,-2.3997,-2.4253,-2.4661,-2.4876,-2.5364,-2.6091,-2.6576,-2.6913,-2.7205,-2.7455,-2.7458,-2.7255,-2.6864,-2.6654,-2.6692,-2.6692,-2.6654,-2.6472,-2.6525,-2.6803,-2.7049,-2.7188,-2.7218,-2.7196,-2.7181,-2.7166,-2.7181,-2.7196,-2.7203,-2.7233,-2.724,-2.7211,-2.7218,-2.7203,-2.7167,-2.6974,-2.6659,-2.6447,-2.6218,-2.592,-2.5646,-2.537,-2.537,-2.5133,-2.4894,-2.4768,-2.4797,-2.512,-2.6158,-2.6975,-2.7034,-2.6986,-2.6741,-2.604,-2.5532,-2.5397,-2.5218,-2.5161,-2.4937,-2.4867,-2.4684,-2.4711,-2.465,-2.4284,-2.3683,-2.3483,-2.367,-2.3761,-2.3669,-2.3682,-2.3741,-2.3636,-2.359,-2.4197,-2.4869,-2.5195,-2.531,-2.4426,-2.3847,-2.3835,-2.367,-2.3162,-2.2927,-2.3088,-2.3113,-2.3185,-2.3233,-2.3352,-2.3463,-2.3633,-2.3844,-2.4164,-2.404,-2.3752,-2.3369,-2.3153,-2.3141,-2.3764,-2.4886,-2.5065,-2.4641,-2.4684,-2.4953,-2.5176,-2.345,-2.3551,-2.361,-2.3882,-2.4276,-2.4109,-2.3925,-2.3839,-2.3824,-2.3839,-2.3797,-2.3741,-2.4086,-2.4582,-2.4683,-2.5106,-2.5835,-2.6191,-2.6403,-2.6495,-2.6481,-2.6539,-2.6204,-2.592,-2.5742,-2.566,-2.566,-2.5646,-2.5646,-2.566,-2.5865,-2.6136,-2.6258,-2.6312,-2.65,-2.6326,-2.6254,-2.627,-2.6294,-2.6265,-2.624,-2.6272,-2.6258,-2.6258,-2.619,-2.6204,-2.6082,-2.5865,-2.5701,-2.5536,-2.5231,-2.4881,-2.4711,-2.4597,-2.4496,-2.431,-2.4195,-2.4124,-2.4412,-2.5134,-2.5849,-2.5877,-2.6089,-2.5577,-2.491,-2.4209,-2.3963,-2.4587,-2.4412,-2.4124,-2.4124,-2.3833,-2.361,-2.3484,-2.3424,-2.2987,-2.2805,-2.2867,-2.299,-2.3053,-2.3053,-2.2992,-2.2944,-2.2884,-2.322,-2.3682,-2.3761,-2.4,-2.3858,-2.3463,-2.3441,-2.3217,-2.2784,-2.2652,-2.2641,-2.258,-2.2653,-2.2714,-2.2823,-2.2944,-2.3078,-2.3245,-2.3185,-2.3115,-2.2822,-2.2309,-2.2379,-2.2643,-2.3052,-2.3618,-2.3728,-2.3859,-2.3962,-2.4239,-2.4026,-2.2151,-2.2457,-2.2665,-2.3201,-2.3839,-2.3982,-2.3696,-2.3275,-2.3275,-2.3275,-2.3246,-2.3037,-2.3491,-2.4136,-2.4097,-2.4581,-2.5099,-2.523,-2.5287,-2.5425,-2.5508,-2.5231,-2.5189,-2.5133,-2.5021,-2.5021,-2.5021,-2.5021,-2.5021,-2.4964,-2.5063,-2.5119,-2.5231,-2.5412,-2.5825,-2.5356,-2.5067,-2.5082,-2.5205,-2.5256,-2.5258,-2.5326,-2.5326,-2.5342,-2.5287,-2.5356,-2.5287,-2.5063,-2.4894,-2.4838,-2.4597,-2.4195,-2.3859,-2.3741,-2.3531,-2.3078,-2.2969,-2.2848,-2.2909,-2.3962,-2.4456,-2.467,-2.4946,-2.4607,-2.4178,-2.3423,-2.2898,-2.3755,-2.3657,-2.3374,-2.3088,-2.2811,-2.2653,-2.2604,-2.2592,-2.2519,-2.2396,-2.2372,-2.2555,-2.2372,-2.2273,-2.2185,-2.2185,-2.2223,-2.2457,-2.2565,-2.2437,-2.258,-2.2912,-2.2965,-2.2969,-2.2604,-2.225,-2.2015,-2.1928,-2.2037,-2.2111,-2.2185,-2.2111,-2.2075,-2.2235,-2.2407,-2.2395,-2.2321,-2.2298,-2.2226,-2.2188,-2.2223,-2.258,-2.2847,-2.328,-2.3471,-2.3518,-2.3446,-2.3229,-2.1629,-2.171,-2.1785,-2.1988,-2.2314,-2.2649,-2.2512,-2.2114,-2.2067,-2.2067,-2.2119,-2.2283,-2.2853,-2.3451,-2.3917,-2.4244,-2.4819,-2.4956,-2.5007,-2.4951,-2.4894,-2.5007,-2.4894,-2.4509,-2.4408,-2.4408,-2.4394,-2.4279,-2.4208,-2.4208,-2.4425,-2.454,-2.4323,-2.4553,-2.5077,-2.5048,-2.5007,-2.5027,-2.5018,-2.5007,-2.4989,-2.4957,-2.4914,-2.4921,-2.4768,-2.4711,-2.4654,-2.431,-2.4092,-2.4047,-2.38,-2.3352,-2.3125,-2.3017,-2.2909,-2.2678,-2.2616,-2.2432,-2.2432,-2.2871,-2.3267,-2.3539,-2.3651,-2.35,-2.3,-2.2639,-2.2643,-2.277,-2.2725,-2.2506,-2.2469,-2.242,-2.2321,-2.2309,-2.2309,-2.2309,-2.2211,-2.2223,-2.2235,-2.169,-2.1439,-2.1123,-2.1071,-2.1296,-2.1553,-2.1705,-2.1651,-2.197,-2.225,-2.2421,-2.2432,-2.2027,-2.167,-2.1358,-2.1255,-2.1313,-2.121,-2.1135,-2.0944,-2.0741,-2.1042,-2.1556,-2.2064,-2.2214,-2.2169,-2.2197,-2.1937,-2.18,-2.1851,-2.2137,-2.2359,-2.2494,-2.2494,-2.2421,-2.2359,-2.0832,-2.0894,-2.1028,-2.1028,-2.0979,-2.1623,-2.1718,-2.1417,-2.1417,-2.1417,-2.1539,-2.1993,-2.2576,-2.3148,-2.3486,-2.395,-2.4513,-2.4266,-2.415,-2.4221,-2.4163,-2.4047,-2.3943,-2.3884,-2.3603,-2.3603,-2.3603,-2.3543,-2.3412,-2.3424,-2.359,-2.3636,-2.3531,-2.3649,-2.3989,-2.4099,-2.4086,-2.4051,-2.4001,-2.3995,-2.4022,-2.4099,-2.4103,-2.4093,-2.4047,-2.3975,-2.3859,-2.3649,-2.333,-2.3175,-2.2934,-2.2641,-2.2567,-2.2567,-2.2494,-2.2494,-2.2432,-2.2309,-2.2247,-2.2247,-2.258,-2.2604,-2.2504,-2.236,-2.1942,-2.158,-2.1393,-2.1471,-2.1526,-2.1537,-2.1537,-2.1612,-2.2091,-2.2028,-2.1612,-2.1549,-2.0974,-2.0888,-2.1423,-2.0869,-2.0462,-2.0204,-2.0161,-2.0324,-2.0658,-2.0764,-2.0869,-2.1244,-2.1584,-2.1686,-2.1686,-2.1353,-2.1066,-2.0846,-2.0655,-2.0537,-2.042,-2.0161,-2.0031,-1.9901,-2.0248,-2.0873,-2.1452,-2.2022,-2.2004,-2.1886,-2.1521,-2.1336,-2.1198,-2.1049,-2.1026,-2.1227,-2.1388,-2.1313,-2.1302,-1.9798,-1.9901,-2.0359,-2.0295,-2.0042,-2.0881,-2.1272,-2.1321,-2.1321,-2.1286,-2.1367,-2.1837,-2.2364,-2.2924,-2.2972,-2.3289,-2.3605,-2.3138,-2.3017,-2.2909,-2.3138,-2.2969,-2.2969,-2.2909,-2.2969,-2.2848,-2.286,-2.2969,-2.2739,-2.2787,-2.2787,-2.2787,-2.2787,-2.2909,-2.2969,-2.3094,-2.3095,-2.3193,-2.3155,-2.324,-2.338,-2.317,-2.3343,-2.3403,-2.3367,-2.3354,-2.3219,-2.3096,-2.2985,-2.2874,-2.2616,-2.2505,-2.2345,-2.2259,-2.2185,-2.2123,-2.1987,-2.1925,-2.1862,-2.18,-2.16,-2.1491,-2.1678,-2.1514,-2.1204,-2.0676,-2.0508,-2.0523,-2.056,-2.042,-2.0302,-2.1118,-2.18,-2.1305,-2.0616,-1.9976,-1.9147,-1.934,-2.0128,-2.0064,-1.9639,-1.9505,-1.9804,-2.0026,-2.0044,-1.9988,-2.0066,-2.01,-2.039,-2.0778,-2.0756,-2.056,-2.0366,-2.0346,-2.0151,-1.9813,-1.9584,-1.932,-1.9518,-1.9518,-1.9857,-1.9977,-2.0227,-2.0696,-2.1541,-2.1537,-2.0797,-2.044,-2.0226,-2.015,-2.0085,-2.0193,-2.0398,-2.0139,-1.9998,-1.9798,-1.9798,-1.9952,-1.9952,-1.9862,-2.0144,-2.0245,-2.0245,-2.0245,-2.0386,-2.0717,-2.1237,-2.1843,-2.2185,-2.2589,-2.2842,-2.2919,-2.286,-2.28,-2.2678,-2.2616,-2.2678,-2.2678,-2.2678,-2.2678,-2.269,-2.269,-2.2629,-2.2494,-2.2432,-2.2309,-2.2383,-2.2234,-2.2296,-2.243,-2.2672,-2.2696,-2.2648,-2.2613,-2.2884,-2.3052,-2.3074,-2.3171,-2.328,-2.3264,-2.3264,-2.3276,-2.3236,-2.3248,-2.3284,-2.2971,-2.2687,-2.2063,-2.162,-2.1325,-2.0752,-2.0688,-2.0688,-2.0688,-2.0764,-2.0669,-2.0464,-2.0462,-2.0353,-2.0138,-1.9911,-1.9673,-1.9705,-1.977,-1.9704,-1.9704,-2.0271,-2.073,-2.0271,-1.9649,-1.9073,-1.8476,-1.9295,-1.9993,-1.9613,-1.9178,-1.9267,-1.953,-1.9594,-1.9605,-1.9394,-1.9294,-1.9364,-1.9361,-1.9775,-2.0092,-1.9916,-1.973,-1.9691,-1.9343,-1.9024,-1.8771,-1.8539,-1.892,-1.9018,-1.8869,-1.8972,-1.8926,-1.9166,-1.9687,-1.9877,-1.9782,-1.9445,-1.9003,-1.9274,-1.9285,-1.9375,-1.9344,-1.9079,-1.889,-1.9275,-1.9226,-1.9639,-1.9614,-1.9371,-1.9371,-1.919,-1.9044,-1.9475,-1.9967,-2.0353,-2.0872,-2.1383,-2.1901,-2.237,-2.2604,-2.2604,-2.2494,-2.2494,-2.2494,-2.2432,-2.2494,-2.2494,-2.2494,-2.2494,-2.2506,-2.2506,-2.2432,-2.2247,-2.1851,-2.1726,-2.1308,-2.1475,-2.1596,-2.1717,-2.1969,-2.2182,-2.2301,-2.2484,-2.2811,-2.293,-2.2874,-2.2948,-2.3156,-2.3147,-2.3092,-2.3092,-2.3036,-2.2956,-2.2865,-2.2472,-2.2203,-2.17,-2.1352,-2.1229,-2.0796,-2.0807,-2.0829,-2.0829,-2.0807,-2.0454,-2.0015,-1.9631,-1.9414,-1.9212,-1.892,-1.8951,-1.9013,-1.91,-1.9187,-1.9253,-1.9253,-1.9264,-1.9253,-1.8757,-1.8257,-1.8904,-1.9677,-1.9644,-1.9272,-1.9153,-1.9108,-1.9203,-1.9258,-1.9258,-1.9295,-1.9226,-1.9278,-1.8987,-1.8832,-1.9373,-1.9553,-1.9243,-1.8984,-1.8696,-1.8715,-1.8745,-1.8765,-1.8943,-1.8894,-1.835,-1.8212,-1.8488,-1.8086,-1.759,-1.7794,-1.8101,-1.7929,-1.7658,-1.791,-1.8008,-1.7901,-1.7939,-1.8027,-1.7969,-1.8437,-1.8159,-1.9179,-1.916,-1.8673,-1.8608,-1.8232,-1.7754,-1.8917,-1.9724,-2.0177,-2.0702,-2.1275,-2.186,-2.225,-2.2285,-2.2173,-2.2049,-2.1987,-2.2061,-2.1788,-2.1851,-2.1987,-2.2061,-2.1726,-2.1925,-2.1925,-2.1663,-2.1749,-2.1441,-2.0933,-2.0194,-2.0709,-2.1052,-2.1198,-2.161,-2.1897,-2.1977,-2.224,-2.2456,-2.2354,-2.2021,-2.1463,-2.1772,-2.1804,-2.1793,-2.1701,-2.1599,-2.1496,-2.1577,-2.1522,-2.1592,-2.1311,-2.107,-2.1,-2.0989,-2.0684,-2.0673,-2.0663,-2.0652,-2.0327,-1.9972,-1.964,-1.9221,-1.8922,-1.8442,-1.8469,-1.8492,-1.86,-1.872,-1.8829,-1.8714,-1.8606,-1.8646,-1.8458,-1.8536,-1.9184,-1.9687,-1.9484,-1.9278,-1.9456,-1.9463,-1.9639,-1.9766,-1.9805,-1.9561,-1.9512,-1.9531,-1.9306,-1.8883,-1.8822,-1.9334,-1.9431,-1.9271,-1.9027,-1.9088,-1.9144,-1.917,-1.9117,-1.9062,-1.876,-1.8404,-1.8068,-1.7518,-1.6878,-1.6342,-1.6367,-1.6367,-1.6419,-1.6298,-1.6394,-1.6333,-1.6464,-1.6664,-1.7166,-1.802,-1.7743,-1.8018,-1.7995,-1.7852,-1.7852,-1.7688,-1.7534,-1.8182,-1.9011,-1.9935,-2.0429,-2.1116,-2.186,-2.2015,-2.1913,-2.1451,-2.14,-2.1388,-2.1198,-2.1008,-2.1135,-2.1198,-2.1019,-2.0752,-2.0624,-2.0624,-2.082,-2.077,-2.0698,-2.0786,-2.0563,-2.0827,-2.0997,-2.1037,-2.1495,-2.1796,-2.1756,-2.1817,-2.2074,-2.2095,-2.2199,-2.211,-2.2339,-2.248,-2.228,-2.228,-2.2396,-2.2513,-2.2597,-2.2165,-2.1564,-2.0634,-2.0155,-1.9857,-1.9775,-2.0092,-2.0123,-2.0133,-2.0215,-1.9959,-1.9725,-1.9399,-1.9288,-1.8889,-1.8331,-1.8095,-1.8144,-1.8252,-1.8398,-1.8446,-1.828,-1.8161,-1.8299,-1.8404,-1.9,-1.9538,-1.9511,-1.9473,-1.9609,-1.984,-1.9997,-2.0183,-2.0195,-2.0264,-2.0273,-2.0293,-2.0303,-2.0226,-1.9832,-1.8995,-1.9341,-1.9952,-1.9872,-1.9434,-1.9084,-1.8947,-1.9039,-1.9001,-1.9014,-1.9117,-1.8829,-1.8443,-1.7179,-1.6401,-1.5715,-1.5303,-1.5463,-1.5384,-1.5021,-1.51,-1.5171,-1.5155,-1.528,-1.6018,-1.6976,-1.6888,-1.7157,-1.7202,-1.7146,-1.7135,-1.6866,-1.6665,-1.7193,-1.8055,-1.901,-1.9661,-2.0466,-2.1227,-2.1273,-2.121,-2.0677,-2.0677,-2.0677,-2.0484,-2.0355,-2.042,-2.0355,-2.0237,-2.0291,-2.0118,-2.0281,-2.0401,-2.0044,-2.0249,-2.0456,-2.031,-2.0523,-2.0803,-2.0854,-2.1209,-2.1569,-2.1444,-2.1379,-2.1394,-2.1575,-2.1553,-2.1605,-2.1876,-2.1983,-2.1983,-2.1907,-2.1907,-2.1907,-2.1886,-2.1487,-2.1277,-2.0541,-2.0297,-1.9968,-1.9968,-2.0053,-1.9844,-1.9824,-1.9785,-1.9727,-1.9639,-1.957,-1.9521,-1.9272,-1.8791,-1.8762,-1.8789,-1.8799,-1.8926,-1.8926,-1.8798,-1.8918,-1.9049,-1.9414,-1.99,-2.0088,-2.0095,-2.0078,-2.0203,-2.0301,-2.033,-2.0381,-2.04,-2.0459,-2.0488,-2.0576,-2.042,-2.0418,-1.9711,-1.9123,-1.8806,-1.8947,-1.9136,-1.8615,-1.8366,-1.8366,-1.8583,-1.875,-1.9107,-1.9344,-1.9241,-1.8768,-1.6856,-1.537,-1.4684,-1.4487,-1.4543,-1.4068,-1.3584,-1.3822,-1.414,-1.406,-1.4132,-1.495,-1.5768,-1.5904,-1.6379,-1.6549,-1.6379,-1.6368,-1.6036,-1.5674,-1.6328,-1.7086,-1.7802,-1.8701,-1.9458,-1.9976,-2.0096,-2.0031,-1.9966,-1.9966,-1.9966,-1.9901,-1.977,-1.977,-1.977,-1.9781,-1.9647,-1.9871,-2.009,-1.9965,-1.9663,-1.9961,-2.002,-1.96,-1.9723,-2.0013,-2.0088,-2.0355,-2.0761,-2.0848,-2.0799,-2.0722,-2.0634,-2.0576,-2.0692,-2.0702,-2.0576,-2.0576,-2.0644,-2.0644,-2.0644,-2.0702,-2.0837,-2.069,-2.0651,-2.0438,-2.0477,-2.0391,-2.0361,-2.0391,-2.0439,-2.0391,-2.0244,-2.0107,-2.0029,-1.9769,-1.9457,-1.9296,-1.9267,-1.9331,-1.935,-1.9292,-1.9292,-1.9482,-1.9605,-1.9728,-2.0157,-2.049,-2.0515,-2.0498,-2.043,-2.045,-2.0285,-2.0285,-2.0226,-2.0245,-2.0264,-2.0303,-2.0292,-2.0229,-1.9752,-1.8282,-1.7249,-1.6926,-1.6781,-1.6951,-1.7493,-1.7683,-1.7749,-1.7925,-1.818,-1.894,-1.9379,-1.8921,-1.7743,-1.5553,-1.434,-1.4041,-1.3644,-1.3592,-1.2977,-1.2597,-1.2882,-1.3281,-1.3179,-1.3324,-1.4011,-1.5468,-1.5536,-1.5642,-1.5633,-1.5642,-1.5642,-1.5526,-1.5566,-1.6338,-1.6792,-1.7179,-1.7905,-1.887,-2.0096,-2.0096,-1.9835,-1.9243,-1.9243,-1.9243,-1.9177,-1.8854,-1.8921,-1.9019,-1.9024,-1.8713,-1.9043,-1.9556,-1.9481,-1.965,-1.9895,-1.9934,-1.9824,-2.0205,-2.0448,-2.0468,-2.0576,-2.0576,-2.0576,-2.0576,-2.0576,-2.0576,-2.0576,-2.0576,-2.0576,-2.0576,-2.0576,-2.0566,-2.0576,-2.0566,-2.0566,-2.0576,-2.0576,-2.0489,-2.0411,-2.0401,-2.0167,-2.0167,-2.0245,-2.0167,-2.0167,-1.9907,-2.0004,-1.9937,-2.0024,-1.9621,-1.9322,-1.9439,-1.9774,-1.9726,-1.9599,-1.9628,-2.008,-2.0273,-2.0177,-2.0372,-2.0469,-2.0489,-2.0148,-1.9944,-1.9631,-1.9219,-1.9,-1.8709,-1.8798,-1.8798,-1.8834,-1.8896,-1.8807,-1.8351,-1.7001,-1.5606,-1.5359,-1.5119,-1.5965,-1.6985,-1.6976,-1.709,-1.7236,-1.735,-1.7686,-1.7933,-1.8172,-1.6839,-1.4882,-1.4135,-1.3929,-1.3514,-1.3134,-1.2757,-1.2533,-1.2378,-1.2498,-1.2391,-1.2604,-1.3222]}]]